<?xml version="1.0" encoding="UTF-8" standalone="no" ?>
<gpx xmlns="http://www.topografix.com/GPX/1/1" xmlns:xsi="http://www.w3.org/2001/XMLSchema-instance" xsi:schemaLocation="http://www.topografix.com/GPX/1/1 http://www.topografix.com/GPX/1/1/gpx.xsd" version="1.1" creator="VisuGPX - https://www.visugpx.com">
  <metadata>
    <name>La Filée - Vertou - Bord de Loire</name>
    <desc><![CDATA[La Filée - Vertou - Bord de Loire]]></desc>
  </metadata>
  <trk>
    <name><![CDATA[2016-01-09 11:16]]></name>
    <desc><![CDATA[<h1>OruxMaps</h1><br /><hr align="center" width="480" style="height: 2px; width: 517px"/><h2>Nom: 2016-01-09 11:16</h2><br /><p>Temps de départ: 01/09/2016 11:19</p><p>Temps d'arrivée: 01/09/2016 13:54</p><p>Distance: 55,5km (02:35)</p><p>Temps déplacement: 02:26</p><p>Vitesse moyenne: 21,4km/h</p><p>Vitesse moyenne: 22,7km/h</p><p>Vitess Max.: 37,9km/h</p><p>Altitude minimale: -14m</p><p>Altitude maximale: 62m</p><p>Vitesse d'élévation: 615m/h</p><p>Vitesse de descente: -608,5m/h</p><p>Gain Altitude: 438m</p><p>Perte Altitude: -474m</p><p>Temps d'élévation: 00:42</p><p>Temps de descente: 00:46</p><hr align="center" width="480" style="height: 2px; width: 517px"/>]]></desc>
    <trkseg>
      <trkpt lat="47.16697" lon="-1.62674">
        <ele>54.2</ele>
        <time>2016-01-09T10:19:19Z</time>
      </trkpt>
      <trkpt lat="47.16675" lon="-1.62664">
        <ele>54.3</ele>
        <time>2016-01-09T10:19:24Z</time>
      </trkpt>
      <trkpt lat="47.16726" lon="-1.627">
        <ele>54.2</ele>
        <time>2016-01-09T10:19:26Z</time>
      </trkpt>
      <trkpt lat="47.16714" lon="-1.6267">
        <ele>54.2</ele>
        <time>2016-01-09T10:19:32Z</time>
      </trkpt>
      <trkpt lat="47.16696" lon="-1.62642">
        <ele>54.3</ele>
        <time>2016-01-09T10:19:36Z</time>
      </trkpt>
      <trkpt lat="47.16679" lon="-1.62616">
        <ele>54.3</ele>
        <time>2016-01-09T10:19:39Z</time>
      </trkpt>
      <trkpt lat="47.16669" lon="-1.62581">
        <ele>54.3</ele>
        <time>2016-01-09T10:19:42Z</time>
      </trkpt>
      <trkpt lat="47.16666" lon="-1.62549">
        <ele>54.3</ele>
        <time>2016-01-09T10:19:45Z</time>
      </trkpt>
      <trkpt lat="47.16677" lon="-1.62514">
        <ele>54.3</ele>
        <time>2016-01-09T10:19:48Z</time>
      </trkpt>
      <trkpt lat="47.16689" lon="-1.62491">
        <ele>54.3</ele>
        <time>2016-01-09T10:19:50Z</time>
      </trkpt>
      <trkpt lat="47.16699" lon="-1.62463">
        <ele>54.3</ele>
        <time>2016-01-09T10:19:53Z</time>
      </trkpt>
      <trkpt lat="47.16713" lon="-1.62434">
        <ele>54.3</ele>
        <time>2016-01-09T10:19:56Z</time>
      </trkpt>
      <trkpt lat="47.16725" lon="-1.62404">
        <ele>54.3</ele>
        <time>2016-01-09T10:19:59Z</time>
      </trkpt>
      <trkpt lat="47.16735" lon="-1.62377">
        <ele>54.3</ele>
        <time>2016-01-09T10:20:02Z</time>
      </trkpt>
      <trkpt lat="47.16745" lon="-1.62347">
        <ele>54.4</ele>
        <time>2016-01-09T10:20:06Z</time>
      </trkpt>
      <trkpt lat="47.16757" lon="-1.62323">
        <ele>54.4</ele>
        <time>2016-01-09T10:20:10Z</time>
      </trkpt>
      <trkpt lat="47.16776" lon="-1.62305">
        <ele>54.4</ele>
        <time>2016-01-09T10:20:14Z</time>
      </trkpt>
      <trkpt lat="47.16796" lon="-1.62295">
        <ele>54.4</ele>
        <time>2016-01-09T10:20:17Z</time>
      </trkpt>
      <trkpt lat="47.16814" lon="-1.62286">
        <ele>54.4</ele>
        <time>2016-01-09T10:20:20Z</time>
      </trkpt>
      <trkpt lat="47.16836" lon="-1.62269">
        <ele>54.4</ele>
        <time>2016-01-09T10:20:24Z</time>
      </trkpt>
      <trkpt lat="47.16852" lon="-1.62255">
        <ele>54.4</ele>
        <time>2016-01-09T10:20:27Z</time>
      </trkpt>
      <trkpt lat="47.16868" lon="-1.6224">
        <ele>54.4</ele>
        <time>2016-01-09T10:20:30Z</time>
      </trkpt>
      <trkpt lat="47.16883" lon="-1.62223">
        <ele>54.4</ele>
        <time>2016-01-09T10:20:33Z</time>
      </trkpt>
      <trkpt lat="47.16898" lon="-1.62204">
        <ele>54.4</ele>
        <time>2016-01-09T10:20:36Z</time>
      </trkpt>
      <trkpt lat="47.16912" lon="-1.62185">
        <ele>54.4</ele>
        <time>2016-01-09T10:20:39Z</time>
      </trkpt>
      <trkpt lat="47.16925" lon="-1.62164">
        <ele>54.4</ele>
        <time>2016-01-09T10:20:42Z</time>
      </trkpt>
      <trkpt lat="47.16938" lon="-1.62142">
        <ele>54.5</ele>
        <time>2016-01-09T10:20:45Z</time>
      </trkpt>
      <trkpt lat="47.16952" lon="-1.62119">
        <ele>54.5</ele>
        <time>2016-01-09T10:20:48Z</time>
      </trkpt>
      <trkpt lat="47.16965" lon="-1.62095">
        <ele>54.5</ele>
        <time>2016-01-09T10:20:51Z</time>
      </trkpt>
      <trkpt lat="47.16976" lon="-1.62073">
        <ele>54.5</ele>
        <time>2016-01-09T10:20:54Z</time>
      </trkpt>
      <trkpt lat="47.16987" lon="-1.62052">
        <ele>54.5</ele>
        <time>2016-01-09T10:20:57Z</time>
      </trkpt>
      <trkpt lat="47.16999" lon="-1.62026">
        <ele>54.5</ele>
        <time>2016-01-09T10:21:01Z</time>
      </trkpt>
      <trkpt lat="47.17016" lon="-1.62002">
        <ele>54.6</ele>
        <time>2016-01-09T10:21:05Z</time>
      </trkpt>
      <trkpt lat="47.17035" lon="-1.6198">
        <ele>54.6</ele>
        <time>2016-01-09T10:21:09Z</time>
      </trkpt>
      <trkpt lat="47.1705" lon="-1.61962">
        <ele>54.6</ele>
        <time>2016-01-09T10:21:12Z</time>
      </trkpt>
      <trkpt lat="47.17067" lon="-1.61946">
        <ele>54.6</ele>
        <time>2016-01-09T10:21:15Z</time>
      </trkpt>
      <trkpt lat="47.17087" lon="-1.6193">
        <ele>54.6</ele>
        <time>2016-01-09T10:21:18Z</time>
      </trkpt>
      <trkpt lat="47.17103" lon="-1.61913">
        <ele>54.6</ele>
        <time>2016-01-09T10:21:21Z</time>
      </trkpt>
      <trkpt lat="47.17119" lon="-1.61899">
        <ele>54.6</ele>
        <time>2016-01-09T10:21:24Z</time>
      </trkpt>
      <trkpt lat="47.17135" lon="-1.61882">
        <ele>54.6</ele>
        <time>2016-01-09T10:21:27Z</time>
      </trkpt>
      <trkpt lat="47.17152" lon="-1.61867">
        <ele>54.7</ele>
        <time>2016-01-09T10:21:30Z</time>
      </trkpt>
      <trkpt lat="47.17169" lon="-1.61854">
        <ele>54.7</ele>
        <time>2016-01-09T10:21:33Z</time>
      </trkpt>
      <trkpt lat="47.17188" lon="-1.61836">
        <ele>54.7</ele>
        <time>2016-01-09T10:21:37Z</time>
      </trkpt>
      <trkpt lat="47.17203" lon="-1.61818">
        <ele>54.7</ele>
        <time>2016-01-09T10:21:40Z</time>
      </trkpt>
      <trkpt lat="47.17218" lon="-1.61797">
        <ele>54.7</ele>
        <time>2016-01-09T10:21:44Z</time>
      </trkpt>
      <trkpt lat="47.1723" lon="-1.61772">
        <ele>54.7</ele>
        <time>2016-01-09T10:21:49Z</time>
      </trkpt>
      <trkpt lat="47.17217" lon="-1.61752">
        <ele>54.7</ele>
        <time>2016-01-09T10:21:54Z</time>
      </trkpt>
      <trkpt lat="47.17202" lon="-1.61736">
        <ele>54.7</ele>
        <time>2016-01-09T10:21:59Z</time>
      </trkpt>
      <trkpt lat="47.17184" lon="-1.61718">
        <ele>54.7</ele>
        <time>2016-01-09T10:22:02Z</time>
      </trkpt>
      <trkpt lat="47.17166" lon="-1.61706">
        <ele>54.6</ele>
        <time>2016-01-09T10:22:04Z</time>
      </trkpt>
      <trkpt lat="47.17146" lon="-1.61691">
        <ele>54.6</ele>
        <time>2016-01-09T10:22:06Z</time>
      </trkpt>
      <trkpt lat="47.17129" lon="-1.6168">
        <ele>54.6</ele>
        <time>2016-01-09T10:22:08Z</time>
      </trkpt>
      <trkpt lat="47.1711" lon="-1.61667">
        <ele>54.7</ele>
        <time>2016-01-09T10:22:11Z</time>
      </trkpt>
      <trkpt lat="47.17091" lon="-1.61657">
        <ele>54.7</ele>
        <time>2016-01-09T10:22:14Z</time>
      </trkpt>
      <trkpt lat="47.17074" lon="-1.61644">
        <ele>54.7</ele>
        <time>2016-01-09T10:22:17Z</time>
      </trkpt>
      <trkpt lat="47.17042" lon="-1.61617">
        <ele>54.7</ele>
        <time>2016-01-09T10:22:22Z</time>
      </trkpt>
      <trkpt lat="47.17025" lon="-1.6159">
        <ele>54.8</ele>
        <time>2016-01-09T10:22:26Z</time>
      </trkpt>
      <trkpt lat="47.17014" lon="-1.61562">
        <ele>54.8</ele>
        <time>2016-01-09T10:22:29Z</time>
      </trkpt>
      <trkpt lat="47.17008" lon="-1.61534">
        <ele>54.9</ele>
        <time>2016-01-09T10:22:32Z</time>
      </trkpt>
      <trkpt lat="47.17001" lon="-1.61508">
        <ele>54.9</ele>
        <time>2016-01-09T10:22:35Z</time>
      </trkpt>
      <trkpt lat="47.16993" lon="-1.61482">
        <ele>55</ele>
        <time>2016-01-09T10:22:38Z</time>
      </trkpt>
      <trkpt lat="47.16984" lon="-1.61459">
        <ele>55</ele>
        <time>2016-01-09T10:22:41Z</time>
      </trkpt>
      <trkpt lat="47.16973" lon="-1.61432">
        <ele>55</ele>
        <time>2016-01-09T10:22:45Z</time>
      </trkpt>
      <trkpt lat="47.1696" lon="-1.61408">
        <ele>55.1</ele>
        <time>2016-01-09T10:22:49Z</time>
      </trkpt>
      <trkpt lat="47.16948" lon="-1.61388">
        <ele>55.1</ele>
        <time>2016-01-09T10:22:52Z</time>
      </trkpt>
      <trkpt lat="47.16933" lon="-1.61366">
        <ele>55.2</ele>
        <time>2016-01-09T10:22:55Z</time>
      </trkpt>
      <trkpt lat="47.1692" lon="-1.61346">
        <ele>55.2</ele>
        <time>2016-01-09T10:22:58Z</time>
      </trkpt>
      <trkpt lat="47.1691" lon="-1.61323">
        <ele>55.2</ele>
        <time>2016-01-09T10:23:01Z</time>
      </trkpt>
      <trkpt lat="47.16901" lon="-1.61299">
        <ele>55.1</ele>
        <time>2016-01-09T10:23:05Z</time>
      </trkpt>
      <trkpt lat="47.16882" lon="-1.61286">
        <ele>55.1</ele>
        <time>2016-01-09T10:23:10Z</time>
      </trkpt>
      <trkpt lat="47.16862" lon="-1.61284">
        <ele>55</ele>
        <time>2016-01-09T10:23:13Z</time>
      </trkpt>
      <trkpt lat="47.16837" lon="-1.61281">
        <ele>55</ele>
        <time>2016-01-09T10:23:16Z</time>
      </trkpt>
      <trkpt lat="47.16817" lon="-1.61274">
        <ele>55</ele>
        <time>2016-01-09T10:23:18Z</time>
      </trkpt>
      <trkpt lat="47.16793" lon="-1.6126">
        <ele>55</ele>
        <time>2016-01-09T10:23:21Z</time>
      </trkpt>
      <trkpt lat="47.16771" lon="-1.61249">
        <ele>55</ele>
        <time>2016-01-09T10:23:24Z</time>
      </trkpt>
      <trkpt lat="47.16752" lon="-1.61238">
        <ele>55</ele>
        <time>2016-01-09T10:23:27Z</time>
      </trkpt>
      <trkpt lat="47.16735" lon="-1.6123">
        <ele>55</ele>
        <time>2016-01-09T10:23:30Z</time>
      </trkpt>
      <trkpt lat="47.16714" lon="-1.61214">
        <ele>55</ele>
        <time>2016-01-09T10:23:34Z</time>
      </trkpt>
      <trkpt lat="47.16698" lon="-1.612">
        <ele>55</ele>
        <time>2016-01-09T10:23:37Z</time>
      </trkpt>
      <trkpt lat="47.16681" lon="-1.61188">
        <ele>55</ele>
        <time>2016-01-09T10:23:41Z</time>
      </trkpt>
      <trkpt lat="47.16665" lon="-1.6117">
        <ele>55.1</ele>
        <time>2016-01-09T10:23:45Z</time>
      </trkpt>
      <trkpt lat="47.16654" lon="-1.6114">
        <ele>55.1</ele>
        <time>2016-01-09T10:23:50Z</time>
      </trkpt>
      <trkpt lat="47.16648" lon="-1.61109">
        <ele>55.1</ele>
        <time>2016-01-09T10:23:54Z</time>
      </trkpt>
      <trkpt lat="47.16649" lon="-1.61076">
        <ele>55.1</ele>
        <time>2016-01-09T10:23:59Z</time>
      </trkpt>
      <trkpt lat="47.16649" lon="-1.61046">
        <ele>55</ele>
        <time>2016-01-09T10:24:04Z</time>
      </trkpt>
      <trkpt lat="47.16647" lon="-1.61019">
        <ele>55</ele>
        <time>2016-01-09T10:24:09Z</time>
      </trkpt>
      <trkpt lat="47.16636" lon="-1.60997">
        <ele>55</ele>
        <time>2016-01-09T10:24:13Z</time>
      </trkpt>
      <trkpt lat="47.16624" lon="-1.60975">
        <ele>55</ele>
        <time>2016-01-09T10:24:17Z</time>
      </trkpt>
      <trkpt lat="47.16616" lon="-1.60946">
        <ele>55</ele>
        <time>2016-01-09T10:24:22Z</time>
      </trkpt>
      <trkpt lat="47.16605" lon="-1.60921">
        <ele>54.9</ele>
        <time>2016-01-09T10:24:26Z</time>
      </trkpt>
      <trkpt lat="47.16591" lon="-1.60899">
        <ele>54.9</ele>
        <time>2016-01-09T10:24:29Z</time>
      </trkpt>
      <trkpt lat="47.16579" lon="-1.60878">
        <ele>54.8</ele>
        <time>2016-01-09T10:24:32Z</time>
      </trkpt>
      <trkpt lat="47.16568" lon="-1.60856">
        <ele>54.7</ele>
        <time>2016-01-09T10:24:36Z</time>
      </trkpt>
      <trkpt lat="47.16553" lon="-1.60834">
        <ele>54.7</ele>
        <time>2016-01-09T10:24:40Z</time>
      </trkpt>
      <trkpt lat="47.16537" lon="-1.60813">
        <ele>54.7</ele>
        <time>2016-01-09T10:24:45Z</time>
      </trkpt>
      <trkpt lat="47.16527" lon="-1.60786">
        <ele>54.6</ele>
        <time>2016-01-09T10:24:49Z</time>
      </trkpt>
      <trkpt lat="47.16529" lon="-1.60757">
        <ele>54.4</ele>
        <time>2016-01-09T10:24:53Z</time>
      </trkpt>
      <trkpt lat="47.1653" lon="-1.60727">
        <ele>54.2</ele>
        <time>2016-01-09T10:24:57Z</time>
      </trkpt>
      <trkpt lat="47.16532" lon="-1.60697">
        <ele>54.1</ele>
        <time>2016-01-09T10:25:01Z</time>
      </trkpt>
      <trkpt lat="47.16535" lon="-1.60667">
        <ele>54</ele>
        <time>2016-01-09T10:25:05Z</time>
      </trkpt>
      <trkpt lat="47.16539" lon="-1.60637">
        <ele>53.8</ele>
        <time>2016-01-09T10:25:09Z</time>
      </trkpt>
      <trkpt lat="47.16543" lon="-1.60605">
        <ele>53.7</ele>
        <time>2016-01-09T10:25:13Z</time>
      </trkpt>
      <trkpt lat="47.16549" lon="-1.60578">
        <ele>53.5</ele>
        <time>2016-01-09T10:25:17Z</time>
      </trkpt>
      <trkpt lat="47.1656" lon="-1.6055">
        <ele>53.3</ele>
        <time>2016-01-09T10:25:21Z</time>
      </trkpt>
      <trkpt lat="47.16577" lon="-1.60536">
        <ele>53.1</ele>
        <time>2016-01-09T10:25:24Z</time>
      </trkpt>
      <trkpt lat="47.16594" lon="-1.60529">
        <ele>53.1</ele>
        <time>2016-01-09T10:25:27Z</time>
      </trkpt>
      <trkpt lat="47.16612" lon="-1.6052">
        <ele>53</ele>
        <time>2016-01-09T10:25:30Z</time>
      </trkpt>
      <trkpt lat="47.16631" lon="-1.60511">
        <ele>52.9</ele>
        <time>2016-01-09T10:25:33Z</time>
      </trkpt>
      <trkpt lat="47.16649" lon="-1.605">
        <ele>52.8</ele>
        <time>2016-01-09T10:25:36Z</time>
      </trkpt>
      <trkpt lat="47.1667" lon="-1.60487">
        <ele>52.6</ele>
        <time>2016-01-09T10:25:40Z</time>
      </trkpt>
      <trkpt lat="47.1669" lon="-1.60471">
        <ele>52.5</ele>
        <time>2016-01-09T10:25:44Z</time>
      </trkpt>
      <trkpt lat="47.16708" lon="-1.60455">
        <ele>52.3</ele>
        <time>2016-01-09T10:25:48Z</time>
      </trkpt>
      <trkpt lat="47.16729" lon="-1.60439">
        <ele>52.2</ele>
        <time>2016-01-09T10:25:52Z</time>
      </trkpt>
      <trkpt lat="47.16744" lon="-1.60424">
        <ele>52.1</ele>
        <time>2016-01-09T10:25:55Z</time>
      </trkpt>
      <trkpt lat="47.16764" lon="-1.60411">
        <ele>52.1</ele>
        <time>2016-01-09T10:25:59Z</time>
      </trkpt>
      <trkpt lat="47.16784" lon="-1.60403">
        <ele>51.9</ele>
        <time>2016-01-09T10:26:03Z</time>
      </trkpt>
      <trkpt lat="47.16807" lon="-1.60396">
        <ele>51.8</ele>
        <time>2016-01-09T10:26:06Z</time>
      </trkpt>
      <trkpt lat="47.16825" lon="-1.60389">
        <ele>51.7</ele>
        <time>2016-01-09T10:26:09Z</time>
      </trkpt>
      <trkpt lat="47.16848" lon="-1.60379">
        <ele>51.5</ele>
        <time>2016-01-09T10:26:13Z</time>
      </trkpt>
      <trkpt lat="47.16871" lon="-1.60368">
        <ele>51.2</ele>
        <time>2016-01-09T10:26:17Z</time>
      </trkpt>
      <trkpt lat="47.1689" lon="-1.60359">
        <ele>51.1</ele>
        <time>2016-01-09T10:26:21Z</time>
      </trkpt>
      <trkpt lat="47.1691" lon="-1.60343">
        <ele>50.9</ele>
        <time>2016-01-09T10:26:25Z</time>
      </trkpt>
      <trkpt lat="47.16922" lon="-1.60321">
        <ele>50.7</ele>
        <time>2016-01-09T10:26:29Z</time>
      </trkpt>
      <trkpt lat="47.16903" lon="-1.60312">
        <ele>50.1</ele>
        <time>2016-01-09T10:26:36Z</time>
      </trkpt>
      <trkpt lat="47.16882" lon="-1.60308">
        <ele>49.7</ele>
        <time>2016-01-09T10:26:39Z</time>
      </trkpt>
      <trkpt lat="47.16862" lon="-1.60304">
        <ele>49.5</ele>
        <time>2016-01-09T10:26:42Z</time>
      </trkpt>
      <trkpt lat="47.16839" lon="-1.60298">
        <ele>49.2</ele>
        <time>2016-01-09T10:26:46Z</time>
      </trkpt>
      <trkpt lat="47.16816" lon="-1.60291">
        <ele>48.8</ele>
        <time>2016-01-09T10:26:50Z</time>
      </trkpt>
      <trkpt lat="47.16798" lon="-1.60273">
        <ele>48.4</ele>
        <time>2016-01-09T10:26:54Z</time>
      </trkpt>
      <trkpt lat="47.16785" lon="-1.60248">
        <ele>48.1</ele>
        <time>2016-01-09T10:26:58Z</time>
      </trkpt>
      <trkpt lat="47.16768" lon="-1.60223">
        <ele>47.9</ele>
        <time>2016-01-09T10:27:02Z</time>
      </trkpt>
      <trkpt lat="47.16753" lon="-1.60197">
        <ele>47.6</ele>
        <time>2016-01-09T10:27:06Z</time>
      </trkpt>
      <trkpt lat="47.16739" lon="-1.60171">
        <ele>47.4</ele>
        <time>2016-01-09T10:27:10Z</time>
      </trkpt>
      <trkpt lat="47.16727" lon="-1.60147">
        <ele>47.2</ele>
        <time>2016-01-09T10:27:14Z</time>
      </trkpt>
      <trkpt lat="47.16713" lon="-1.60123">
        <ele>47.2</ele>
        <time>2016-01-09T10:27:18Z</time>
      </trkpt>
      <trkpt lat="47.167" lon="-1.601">
        <ele>46.9</ele>
        <time>2016-01-09T10:27:22Z</time>
      </trkpt>
      <trkpt lat="47.16688" lon="-1.60078">
        <ele>46.6</ele>
        <time>2016-01-09T10:27:26Z</time>
      </trkpt>
      <trkpt lat="47.16675" lon="-1.60052">
        <ele>46.3</ele>
        <time>2016-01-09T10:27:30Z</time>
      </trkpt>
      <trkpt lat="47.16661" lon="-1.60027">
        <ele>46</ele>
        <time>2016-01-09T10:27:34Z</time>
      </trkpt>
      <trkpt lat="47.16647" lon="-1.60004">
        <ele>45.8</ele>
        <time>2016-01-09T10:27:38Z</time>
      </trkpt>
      <trkpt lat="47.16634" lon="-1.59981">
        <ele>45.7</ele>
        <time>2016-01-09T10:27:42Z</time>
      </trkpt>
      <trkpt lat="47.16618" lon="-1.59956">
        <ele>45.7</ele>
        <time>2016-01-09T10:27:46Z</time>
      </trkpt>
      <trkpt lat="47.16603" lon="-1.59939">
        <ele>45.7</ele>
        <time>2016-01-09T10:27:49Z</time>
      </trkpt>
      <trkpt lat="47.16587" lon="-1.59918">
        <ele>45.6</ele>
        <time>2016-01-09T10:27:53Z</time>
      </trkpt>
      <trkpt lat="47.16567" lon="-1.59901">
        <ele>45.6</ele>
        <time>2016-01-09T10:27:57Z</time>
      </trkpt>
      <trkpt lat="47.16551" lon="-1.59887">
        <ele>45.7</ele>
        <time>2016-01-09T10:28:00Z</time>
      </trkpt>
      <trkpt lat="47.1653" lon="-1.5987">
        <ele>45.8</ele>
        <time>2016-01-09T10:28:04Z</time>
      </trkpt>
      <trkpt lat="47.16514" lon="-1.59853">
        <ele>45.9</ele>
        <time>2016-01-09T10:28:07Z</time>
      </trkpt>
      <trkpt lat="47.16494" lon="-1.59836">
        <ele>45.8</ele>
        <time>2016-01-09T10:28:10Z</time>
      </trkpt>
      <trkpt lat="47.16476" lon="-1.59822">
        <ele>45.9</ele>
        <time>2016-01-09T10:28:13Z</time>
      </trkpt>
      <trkpt lat="47.16455" lon="-1.59806">
        <ele>46</ele>
        <time>2016-01-09T10:28:17Z</time>
      </trkpt>
      <trkpt lat="47.16438" lon="-1.59793">
        <ele>45.9</ele>
        <time>2016-01-09T10:28:21Z</time>
      </trkpt>
      <trkpt lat="47.16421" lon="-1.5978">
        <ele>45.9</ele>
        <time>2016-01-09T10:28:25Z</time>
      </trkpt>
      <trkpt lat="47.16406" lon="-1.59764">
        <ele>45.9</ele>
        <time>2016-01-09T10:28:29Z</time>
      </trkpt>
      <trkpt lat="47.16392" lon="-1.59745">
        <ele>46</ele>
        <time>2016-01-09T10:28:33Z</time>
      </trkpt>
      <trkpt lat="47.16378" lon="-1.59726">
        <ele>46</ele>
        <time>2016-01-09T10:28:37Z</time>
      </trkpt>
      <trkpt lat="47.16361" lon="-1.59706">
        <ele>46</ele>
        <time>2016-01-09T10:28:41Z</time>
      </trkpt>
      <trkpt lat="47.16345" lon="-1.59685">
        <ele>45.9</ele>
        <time>2016-01-09T10:28:45Z</time>
      </trkpt>
      <trkpt lat="47.1633" lon="-1.59661">
        <ele>45.9</ele>
        <time>2016-01-09T10:28:49Z</time>
      </trkpt>
      <trkpt lat="47.16313" lon="-1.59644">
        <ele>45.7</ele>
        <time>2016-01-09T10:28:53Z</time>
      </trkpt>
      <trkpt lat="47.16293" lon="-1.59648">
        <ele>45.4</ele>
        <time>2016-01-09T10:28:57Z</time>
      </trkpt>
      <trkpt lat="47.16272" lon="-1.59655">
        <ele>45.1</ele>
        <time>2016-01-09T10:29:01Z</time>
      </trkpt>
      <trkpt lat="47.16253" lon="-1.59661">
        <ele>44.7</ele>
        <time>2016-01-09T10:29:04Z</time>
      </trkpt>
      <trkpt lat="47.16232" lon="-1.59671">
        <ele>44.6</ele>
        <time>2016-01-09T10:29:08Z</time>
      </trkpt>
      <trkpt lat="47.16215" lon="-1.59678">
        <ele>44.6</ele>
        <time>2016-01-09T10:29:11Z</time>
      </trkpt>
      <trkpt lat="47.16196" lon="-1.59688">
        <ele>44.5</ele>
        <time>2016-01-09T10:29:15Z</time>
      </trkpt>
      <trkpt lat="47.16176" lon="-1.59696">
        <ele>44.4</ele>
        <time>2016-01-09T10:29:19Z</time>
      </trkpt>
      <trkpt lat="47.16157" lon="-1.59705">
        <ele>44.5</ele>
        <time>2016-01-09T10:29:23Z</time>
      </trkpt>
      <trkpt lat="47.16138" lon="-1.59715">
        <ele>44.5</ele>
        <time>2016-01-09T10:29:27Z</time>
      </trkpt>
      <trkpt lat="47.1612" lon="-1.59721">
        <ele>44.5</ele>
        <time>2016-01-09T10:29:30Z</time>
      </trkpt>
      <trkpt lat="47.16101" lon="-1.59735">
        <ele>44.6</ele>
        <time>2016-01-09T10:29:34Z</time>
      </trkpt>
      <trkpt lat="47.16084" lon="-1.59749">
        <ele>44.8</ele>
        <time>2016-01-09T10:29:38Z</time>
      </trkpt>
      <trkpt lat="47.16065" lon="-1.5976">
        <ele>45</ele>
        <time>2016-01-09T10:29:42Z</time>
      </trkpt>
      <trkpt lat="47.16044" lon="-1.5977">
        <ele>44.9</ele>
        <time>2016-01-09T10:29:46Z</time>
      </trkpt>
      <trkpt lat="47.16027" lon="-1.59779">
        <ele>45</ele>
        <time>2016-01-09T10:29:49Z</time>
      </trkpt>
      <trkpt lat="47.16007" lon="-1.59794">
        <ele>44.8</ele>
        <time>2016-01-09T10:29:53Z</time>
      </trkpt>
      <trkpt lat="47.15986" lon="-1.59807">
        <ele>44.7</ele>
        <time>2016-01-09T10:29:57Z</time>
      </trkpt>
      <trkpt lat="47.15967" lon="-1.59819">
        <ele>44.7</ele>
        <time>2016-01-09T10:30:01Z</time>
      </trkpt>
      <trkpt lat="47.15947" lon="-1.59828">
        <ele>44.9</ele>
        <time>2016-01-09T10:30:05Z</time>
      </trkpt>
      <trkpt lat="47.15928" lon="-1.59835">
        <ele>45.1</ele>
        <time>2016-01-09T10:30:09Z</time>
      </trkpt>
      <trkpt lat="47.15911" lon="-1.59848">
        <ele>45.5</ele>
        <time>2016-01-09T10:30:15Z</time>
      </trkpt>
      <trkpt lat="47.15902" lon="-1.59872">
        <ele>45.4</ele>
        <time>2016-01-09T10:30:19Z</time>
      </trkpt>
      <trkpt lat="47.15886" lon="-1.59852">
        <ele>45.6</ele>
        <time>2016-01-09T10:30:28Z</time>
      </trkpt>
      <trkpt lat="47.15876" lon="-1.59829">
        <ele>45.6</ele>
        <time>2016-01-09T10:30:31Z</time>
      </trkpt>
      <trkpt lat="47.1586" lon="-1.59808">
        <ele>46</ele>
        <time>2016-01-09T10:30:35Z</time>
      </trkpt>
      <trkpt lat="47.15844" lon="-1.59792">
        <ele>46.4</ele>
        <time>2016-01-09T10:30:38Z</time>
      </trkpt>
      <trkpt lat="47.15824" lon="-1.59774">
        <ele>46.8</ele>
        <time>2016-01-09T10:30:41Z</time>
      </trkpt>
      <trkpt lat="47.15806" lon="-1.5976">
        <ele>47.1</ele>
        <time>2016-01-09T10:30:44Z</time>
      </trkpt>
      <trkpt lat="47.15786" lon="-1.59747">
        <ele>46.5</ele>
        <time>2016-01-09T10:30:48Z</time>
      </trkpt>
      <trkpt lat="47.15765" lon="-1.59737">
        <ele>46.6</ele>
        <time>2016-01-09T10:30:53Z</time>
      </trkpt>
      <trkpt lat="47.15754" lon="-1.59713">
        <ele>46.4</ele>
        <time>2016-01-09T10:30:56Z</time>
      </trkpt>
      <trkpt lat="47.15753" lon="-1.59686">
        <ele>46.4</ele>
        <time>2016-01-09T10:30:59Z</time>
      </trkpt>
      <trkpt lat="47.15754" lon="-1.59652">
        <ele>46.7</ele>
        <time>2016-01-09T10:31:03Z</time>
      </trkpt>
      <trkpt lat="47.15753" lon="-1.59621">
        <ele>47</ele>
        <time>2016-01-09T10:31:07Z</time>
      </trkpt>
      <trkpt lat="47.15752" lon="-1.59587">
        <ele>47.2</ele>
        <time>2016-01-09T10:31:11Z</time>
      </trkpt>
      <trkpt lat="47.15753" lon="-1.59559">
        <ele>47.4</ele>
        <time>2016-01-09T10:31:15Z</time>
      </trkpt>
      <trkpt lat="47.15756" lon="-1.59529">
        <ele>47.6</ele>
        <time>2016-01-09T10:31:19Z</time>
      </trkpt>
      <trkpt lat="47.15757" lon="-1.59497">
        <ele>47.8</ele>
        <time>2016-01-09T10:31:23Z</time>
      </trkpt>
      <trkpt lat="47.1576" lon="-1.59465">
        <ele>47.9</ele>
        <time>2016-01-09T10:31:27Z</time>
      </trkpt>
      <trkpt lat="47.15764" lon="-1.59431">
        <ele>48</ele>
        <time>2016-01-09T10:31:31Z</time>
      </trkpt>
      <trkpt lat="47.15769" lon="-1.59406">
        <ele>48.1</ele>
        <time>2016-01-09T10:31:34Z</time>
      </trkpt>
      <trkpt lat="47.15774" lon="-1.59374">
        <ele>48.3</ele>
        <time>2016-01-09T10:31:38Z</time>
      </trkpt>
      <trkpt lat="47.15778" lon="-1.59341">
        <ele>48.5</ele>
        <time>2016-01-09T10:31:42Z</time>
      </trkpt>
      <trkpt lat="47.15782" lon="-1.5931">
        <ele>48.7</ele>
        <time>2016-01-09T10:31:46Z</time>
      </trkpt>
      <trkpt lat="47.15786" lon="-1.59278">
        <ele>49</ele>
        <time>2016-01-09T10:31:50Z</time>
      </trkpt>
      <trkpt lat="47.15793" lon="-1.59247">
        <ele>48.9</ele>
        <time>2016-01-09T10:31:54Z</time>
      </trkpt>
      <trkpt lat="47.15802" lon="-1.59217">
        <ele>48.8</ele>
        <time>2016-01-09T10:31:58Z</time>
      </trkpt>
      <trkpt lat="47.15807" lon="-1.59185">
        <ele>48.6</ele>
        <time>2016-01-09T10:32:02Z</time>
      </trkpt>
      <trkpt lat="47.15818" lon="-1.59154">
        <ele>48.5</ele>
        <time>2016-01-09T10:32:06Z</time>
      </trkpt>
      <trkpt lat="47.15837" lon="-1.5914">
        <ele>48.6</ele>
        <time>2016-01-09T10:32:10Z</time>
      </trkpt>
      <trkpt lat="47.15852" lon="-1.59122">
        <ele>48.7</ele>
        <time>2016-01-09T10:32:13Z</time>
      </trkpt>
      <trkpt lat="47.15866" lon="-1.59102">
        <ele>48.9</ele>
        <time>2016-01-09T10:32:16Z</time>
      </trkpt>
      <trkpt lat="47.15879" lon="-1.59081">
        <ele>49</ele>
        <time>2016-01-09T10:32:19Z</time>
      </trkpt>
      <trkpt lat="47.15892" lon="-1.59061">
        <ele>49.2</ele>
        <time>2016-01-09T10:32:22Z</time>
      </trkpt>
      <trkpt lat="47.15906" lon="-1.5904">
        <ele>49.2</ele>
        <time>2016-01-09T10:32:25Z</time>
      </trkpt>
      <trkpt lat="47.1592" lon="-1.59018">
        <ele>49.3</ele>
        <time>2016-01-09T10:32:28Z</time>
      </trkpt>
      <trkpt lat="47.15932" lon="-1.58997">
        <ele>49.4</ele>
        <time>2016-01-09T10:32:31Z</time>
      </trkpt>
      <trkpt lat="47.15945" lon="-1.58976">
        <ele>49.6</ele>
        <time>2016-01-09T10:32:34Z</time>
      </trkpt>
      <trkpt lat="47.15957" lon="-1.58954">
        <ele>49.7</ele>
        <time>2016-01-09T10:32:37Z</time>
      </trkpt>
      <trkpt lat="47.15969" lon="-1.58934">
        <ele>49.7</ele>
        <time>2016-01-09T10:32:40Z</time>
      </trkpt>
      <trkpt lat="47.15981" lon="-1.58914">
        <ele>49.6</ele>
        <time>2016-01-09T10:32:43Z</time>
      </trkpt>
      <trkpt lat="47.15995" lon="-1.58896">
        <ele>49.4</ele>
        <time>2016-01-09T10:32:46Z</time>
      </trkpt>
      <trkpt lat="47.16008" lon="-1.58877">
        <ele>49.5</ele>
        <time>2016-01-09T10:32:49Z</time>
      </trkpt>
      <trkpt lat="47.16023" lon="-1.5886">
        <ele>49.4</ele>
        <time>2016-01-09T10:32:52Z</time>
      </trkpt>
      <trkpt lat="47.16038" lon="-1.58836">
        <ele>49.4</ele>
        <time>2016-01-09T10:32:56Z</time>
      </trkpt>
      <trkpt lat="47.16052" lon="-1.58819">
        <ele>49.5</ele>
        <time>2016-01-09T10:32:59Z</time>
      </trkpt>
      <trkpt lat="47.16067" lon="-1.58799">
        <ele>49.5</ele>
        <time>2016-01-09T10:33:02Z</time>
      </trkpt>
      <trkpt lat="47.16082" lon="-1.58781">
        <ele>49.6</ele>
        <time>2016-01-09T10:33:05Z</time>
      </trkpt>
      <trkpt lat="47.16098" lon="-1.58755">
        <ele>49.6</ele>
        <time>2016-01-09T10:33:09Z</time>
      </trkpt>
      <trkpt lat="47.16111" lon="-1.58734">
        <ele>49.6</ele>
        <time>2016-01-09T10:33:12Z</time>
      </trkpt>
      <trkpt lat="47.16124" lon="-1.58713">
        <ele>49.6</ele>
        <time>2016-01-09T10:33:15Z</time>
      </trkpt>
      <trkpt lat="47.1614" lon="-1.58688">
        <ele>49.6</ele>
        <time>2016-01-09T10:33:19Z</time>
      </trkpt>
      <trkpt lat="47.16158" lon="-1.58664">
        <ele>49.6</ele>
        <time>2016-01-09T10:33:23Z</time>
      </trkpt>
      <trkpt lat="47.16171" lon="-1.58645">
        <ele>49.6</ele>
        <time>2016-01-09T10:33:26Z</time>
      </trkpt>
      <trkpt lat="47.16185" lon="-1.58625">
        <ele>49.7</ele>
        <time>2016-01-09T10:33:29Z</time>
      </trkpt>
      <trkpt lat="47.16201" lon="-1.58607">
        <ele>49</ele>
        <time>2016-01-09T10:33:32Z</time>
      </trkpt>
      <trkpt lat="47.16215" lon="-1.58589">
        <ele>48.3</ele>
        <time>2016-01-09T10:33:35Z</time>
      </trkpt>
      <trkpt lat="47.16229" lon="-1.58571">
        <ele>48.1</ele>
        <time>2016-01-09T10:33:38Z</time>
      </trkpt>
      <trkpt lat="47.16245" lon="-1.5855">
        <ele>48.1</ele>
        <time>2016-01-09T10:33:41Z</time>
      </trkpt>
      <trkpt lat="47.1626" lon="-1.58531">
        <ele>47.9</ele>
        <time>2016-01-09T10:33:44Z</time>
      </trkpt>
      <trkpt lat="47.16276" lon="-1.58511">
        <ele>47.8</ele>
        <time>2016-01-09T10:33:47Z</time>
      </trkpt>
      <trkpt lat="47.16293" lon="-1.58493">
        <ele>47.9</ele>
        <time>2016-01-09T10:33:50Z</time>
      </trkpt>
      <trkpt lat="47.1631" lon="-1.58471">
        <ele>47.8</ele>
        <time>2016-01-09T10:33:53Z</time>
      </trkpt>
      <trkpt lat="47.16326" lon="-1.58451">
        <ele>47.9</ele>
        <time>2016-01-09T10:33:56Z</time>
      </trkpt>
      <trkpt lat="47.16341" lon="-1.5843">
        <ele>48</ele>
        <time>2016-01-09T10:33:59Z</time>
      </trkpt>
      <trkpt lat="47.16355" lon="-1.58411">
        <ele>48.1</ele>
        <time>2016-01-09T10:34:02Z</time>
      </trkpt>
      <trkpt lat="47.16369" lon="-1.58393">
        <ele>48.2</ele>
        <time>2016-01-09T10:34:05Z</time>
      </trkpt>
      <trkpt lat="47.16383" lon="-1.58376">
        <ele>48.3</ele>
        <time>2016-01-09T10:34:08Z</time>
      </trkpt>
      <trkpt lat="47.164" lon="-1.58353">
        <ele>48.4</ele>
        <time>2016-01-09T10:34:12Z</time>
      </trkpt>
      <trkpt lat="47.16415" lon="-1.58334">
        <ele>48.5</ele>
        <time>2016-01-09T10:34:15Z</time>
      </trkpt>
      <trkpt lat="47.1643" lon="-1.58313">
        <ele>48.5</ele>
        <time>2016-01-09T10:34:18Z</time>
      </trkpt>
      <trkpt lat="47.16443" lon="-1.58294">
        <ele>48.7</ele>
        <time>2016-01-09T10:34:21Z</time>
      </trkpt>
      <trkpt lat="47.16456" lon="-1.58274">
        <ele>48.7</ele>
        <time>2016-01-09T10:34:24Z</time>
      </trkpt>
      <trkpt lat="47.16471" lon="-1.58258">
        <ele>48.8</ele>
        <time>2016-01-09T10:34:27Z</time>
      </trkpt>
      <trkpt lat="47.16486" lon="-1.5824">
        <ele>48.9</ele>
        <time>2016-01-09T10:34:30Z</time>
      </trkpt>
      <trkpt lat="47.165" lon="-1.58222">
        <ele>49</ele>
        <time>2016-01-09T10:34:33Z</time>
      </trkpt>
      <trkpt lat="47.16513" lon="-1.58203">
        <ele>49.1</ele>
        <time>2016-01-09T10:34:36Z</time>
      </trkpt>
      <trkpt lat="47.1653" lon="-1.5818">
        <ele>49.4</ele>
        <time>2016-01-09T10:34:40Z</time>
      </trkpt>
      <trkpt lat="47.16548" lon="-1.58156">
        <ele>49.4</ele>
        <time>2016-01-09T10:34:44Z</time>
      </trkpt>
      <trkpt lat="47.16563" lon="-1.58138">
        <ele>49.5</ele>
        <time>2016-01-09T10:34:47Z</time>
      </trkpt>
      <trkpt lat="47.16578" lon="-1.58118">
        <ele>49.5</ele>
        <time>2016-01-09T10:34:50Z</time>
      </trkpt>
      <trkpt lat="47.16593" lon="-1.581">
        <ele>49.6</ele>
        <time>2016-01-09T10:34:53Z</time>
      </trkpt>
      <trkpt lat="47.16607" lon="-1.58082">
        <ele>49.5</ele>
        <time>2016-01-09T10:34:56Z</time>
      </trkpt>
      <trkpt lat="47.16612" lon="-1.58054">
        <ele>49.4</ele>
        <time>2016-01-09T10:35:01Z</time>
      </trkpt>
      <trkpt lat="47.16596" lon="-1.58038">
        <ele>49</ele>
        <time>2016-01-09T10:35:05Z</time>
      </trkpt>
      <trkpt lat="47.1658" lon="-1.58026">
        <ele>48.4</ele>
        <time>2016-01-09T10:35:08Z</time>
      </trkpt>
      <trkpt lat="47.16564" lon="-1.58009">
        <ele>47.7</ele>
        <time>2016-01-09T10:35:11Z</time>
      </trkpt>
      <trkpt lat="47.16544" lon="-1.57989">
        <ele>47.9</ele>
        <time>2016-01-09T10:35:15Z</time>
      </trkpt>
      <trkpt lat="47.16527" lon="-1.57969">
        <ele>48.3</ele>
        <time>2016-01-09T10:35:19Z</time>
      </trkpt>
      <trkpt lat="47.16512" lon="-1.57953">
        <ele>48.3</ele>
        <time>2016-01-09T10:35:22Z</time>
      </trkpt>
      <trkpt lat="47.16497" lon="-1.57937">
        <ele>48.6</ele>
        <time>2016-01-09T10:35:25Z</time>
      </trkpt>
      <trkpt lat="47.16476" lon="-1.57917">
        <ele>49.5</ele>
        <time>2016-01-09T10:35:29Z</time>
      </trkpt>
      <trkpt lat="47.16456" lon="-1.57903">
        <ele>49.4</ele>
        <time>2016-01-09T10:35:33Z</time>
      </trkpt>
      <trkpt lat="47.16437" lon="-1.57888">
        <ele>49.3</ele>
        <time>2016-01-09T10:35:37Z</time>
      </trkpt>
      <trkpt lat="47.16418" lon="-1.57874">
        <ele>49.2</ele>
        <time>2016-01-09T10:35:41Z</time>
      </trkpt>
      <trkpt lat="47.16398" lon="-1.57859">
        <ele>49.2</ele>
        <time>2016-01-09T10:35:45Z</time>
      </trkpt>
      <trkpt lat="47.16382" lon="-1.57846">
        <ele>49.1</ele>
        <time>2016-01-09T10:35:48Z</time>
      </trkpt>
      <trkpt lat="47.16361" lon="-1.5783">
        <ele>49.3</ele>
        <time>2016-01-09T10:35:52Z</time>
      </trkpt>
      <trkpt lat="47.16342" lon="-1.57811">
        <ele>49.6</ele>
        <time>2016-01-09T10:35:56Z</time>
      </trkpt>
      <trkpt lat="47.16325" lon="-1.57787">
        <ele>50.2</ele>
        <time>2016-01-09T10:36:00Z</time>
      </trkpt>
      <trkpt lat="47.16311" lon="-1.5777">
        <ele>50.1</ele>
        <time>2016-01-09T10:36:03Z</time>
      </trkpt>
      <trkpt lat="47.16296" lon="-1.57745">
        <ele>49.9</ele>
        <time>2016-01-09T10:36:07Z</time>
      </trkpt>
      <trkpt lat="47.1628" lon="-1.57723">
        <ele>49.8</ele>
        <time>2016-01-09T10:36:11Z</time>
      </trkpt>
      <trkpt lat="47.16266" lon="-1.57699">
        <ele>50</ele>
        <time>2016-01-09T10:36:15Z</time>
      </trkpt>
      <trkpt lat="47.16249" lon="-1.5768">
        <ele>50.1</ele>
        <time>2016-01-09T10:36:19Z</time>
      </trkpt>
      <trkpt lat="47.16231" lon="-1.57661">
        <ele>50.5</ele>
        <time>2016-01-09T10:36:23Z</time>
      </trkpt>
      <trkpt lat="47.16214" lon="-1.57639">
        <ele>50.8</ele>
        <time>2016-01-09T10:36:27Z</time>
      </trkpt>
      <trkpt lat="47.16198" lon="-1.57616">
        <ele>50.8</ele>
        <time>2016-01-09T10:36:31Z</time>
      </trkpt>
      <trkpt lat="47.16184" lon="-1.57589">
        <ele>51</ele>
        <time>2016-01-09T10:36:35Z</time>
      </trkpt>
      <trkpt lat="47.16173" lon="-1.57567">
        <ele>51</ele>
        <time>2016-01-09T10:36:38Z</time>
      </trkpt>
      <trkpt lat="47.16165" lon="-1.57539">
        <ele>50.9</ele>
        <time>2016-01-09T10:36:42Z</time>
      </trkpt>
      <trkpt lat="47.16162" lon="-1.57512">
        <ele>51.1</ele>
        <time>2016-01-09T10:36:45Z</time>
      </trkpt>
      <trkpt lat="47.16165" lon="-1.57478">
        <ele>51.7</ele>
        <time>2016-01-09T10:36:49Z</time>
      </trkpt>
      <trkpt lat="47.16166" lon="-1.5745">
        <ele>52.2</ele>
        <time>2016-01-09T10:36:52Z</time>
      </trkpt>
      <trkpt lat="47.16165" lon="-1.57423">
        <ele>52.4</ele>
        <time>2016-01-09T10:36:55Z</time>
      </trkpt>
      <trkpt lat="47.16161" lon="-1.57396">
        <ele>52.7</ele>
        <time>2016-01-09T10:36:58Z</time>
      </trkpt>
      <trkpt lat="47.16161" lon="-1.57366">
        <ele>53.3</ele>
        <time>2016-01-09T10:37:03Z</time>
      </trkpt>
      <trkpt lat="47.16165" lon="-1.5734">
        <ele>53.5</ele>
        <time>2016-01-09T10:37:07Z</time>
      </trkpt>
      <trkpt lat="47.16163" lon="-1.57311">
        <ele>53.5</ele>
        <time>2016-01-09T10:37:10Z</time>
      </trkpt>
      <trkpt lat="47.16162" lon="-1.57279">
        <ele>53.4</ele>
        <time>2016-01-09T10:37:13Z</time>
      </trkpt>
      <trkpt lat="47.16161" lon="-1.57249">
        <ele>53.4</ele>
        <time>2016-01-09T10:37:16Z</time>
      </trkpt>
      <trkpt lat="47.16161" lon="-1.57219">
        <ele>53.3</ele>
        <time>2016-01-09T10:37:19Z</time>
      </trkpt>
      <trkpt lat="47.16162" lon="-1.5719">
        <ele>53.2</ele>
        <time>2016-01-09T10:37:22Z</time>
      </trkpt>
      <trkpt lat="47.16163" lon="-1.57161">
        <ele>53.2</ele>
        <time>2016-01-09T10:37:25Z</time>
      </trkpt>
      <trkpt lat="47.16167" lon="-1.57132">
        <ele>53.2</ele>
        <time>2016-01-09T10:37:28Z</time>
      </trkpt>
      <trkpt lat="47.16172" lon="-1.57103">
        <ele>53.5</ele>
        <time>2016-01-09T10:37:31Z</time>
      </trkpt>
      <trkpt lat="47.16176" lon="-1.57075">
        <ele>53.8</ele>
        <time>2016-01-09T10:37:34Z</time>
      </trkpt>
      <trkpt lat="47.16181" lon="-1.57048">
        <ele>54.1</ele>
        <time>2016-01-09T10:37:37Z</time>
      </trkpt>
      <trkpt lat="47.16186" lon="-1.57019">
        <ele>54.2</ele>
        <time>2016-01-09T10:37:40Z</time>
      </trkpt>
      <trkpt lat="47.1619" lon="-1.56989">
        <ele>54.5</ele>
        <time>2016-01-09T10:37:43Z</time>
      </trkpt>
      <trkpt lat="47.16194" lon="-1.56961">
        <ele>54.7</ele>
        <time>2016-01-09T10:37:46Z</time>
      </trkpt>
      <trkpt lat="47.16199" lon="-1.56934">
        <ele>54.8</ele>
        <time>2016-01-09T10:37:49Z</time>
      </trkpt>
      <trkpt lat="47.16203" lon="-1.56906">
        <ele>54.8</ele>
        <time>2016-01-09T10:37:52Z</time>
      </trkpt>
      <trkpt lat="47.16209" lon="-1.56871">
        <ele>54.8</ele>
        <time>2016-01-09T10:37:56Z</time>
      </trkpt>
      <trkpt lat="47.16216" lon="-1.56845">
        <ele>54.6</ele>
        <time>2016-01-09T10:37:59Z</time>
      </trkpt>
      <trkpt lat="47.16222" lon="-1.56818">
        <ele>54.8</ele>
        <time>2016-01-09T10:38:02Z</time>
      </trkpt>
      <trkpt lat="47.16226" lon="-1.56791">
        <ele>54.8</ele>
        <time>2016-01-09T10:38:05Z</time>
      </trkpt>
      <trkpt lat="47.16232" lon="-1.56758">
        <ele>55.1</ele>
        <time>2016-01-09T10:38:09Z</time>
      </trkpt>
      <trkpt lat="47.16226" lon="-1.56732">
        <ele>54.7</ele>
        <time>2016-01-09T10:38:13Z</time>
      </trkpt>
      <trkpt lat="47.16207" lon="-1.56725">
        <ele>54.4</ele>
        <time>2016-01-09T10:38:17Z</time>
      </trkpt>
      <trkpt lat="47.16188" lon="-1.56723">
        <ele>54.3</ele>
        <time>2016-01-09T10:38:20Z</time>
      </trkpt>
      <trkpt lat="47.16169" lon="-1.56719">
        <ele>54.2</ele>
        <time>2016-01-09T10:38:23Z</time>
      </trkpt>
      <trkpt lat="47.1615" lon="-1.56716">
        <ele>54.1</ele>
        <time>2016-01-09T10:38:26Z</time>
      </trkpt>
      <trkpt lat="47.16127" lon="-1.56712">
        <ele>53.9</ele>
        <time>2016-01-09T10:38:30Z</time>
      </trkpt>
      <trkpt lat="47.16106" lon="-1.56713">
        <ele>54.1</ele>
        <time>2016-01-09T10:38:34Z</time>
      </trkpt>
      <trkpt lat="47.16085" lon="-1.56713">
        <ele>54.3</ele>
        <time>2016-01-09T10:38:37Z</time>
      </trkpt>
      <trkpt lat="47.16064" lon="-1.56715">
        <ele>54.9</ele>
        <time>2016-01-09T10:38:40Z</time>
      </trkpt>
      <trkpt lat="47.16044" lon="-1.56714">
        <ele>55.4</ele>
        <time>2016-01-09T10:38:43Z</time>
      </trkpt>
      <trkpt lat="47.16025" lon="-1.56712">
        <ele>55.9</ele>
        <time>2016-01-09T10:38:46Z</time>
      </trkpt>
      <trkpt lat="47.16007" lon="-1.56707">
        <ele>56.1</ele>
        <time>2016-01-09T10:38:49Z</time>
      </trkpt>
      <trkpt lat="47.15987" lon="-1.56694">
        <ele>55.6</ele>
        <time>2016-01-09T10:38:53Z</time>
      </trkpt>
      <trkpt lat="47.1598" lon="-1.56662">
        <ele>55</ele>
        <time>2016-01-09T10:38:57Z</time>
      </trkpt>
      <trkpt lat="47.15977" lon="-1.56636">
        <ele>54.8</ele>
        <time>2016-01-09T10:39:00Z</time>
      </trkpt>
      <trkpt lat="47.15973" lon="-1.56609">
        <ele>54.6</ele>
        <time>2016-01-09T10:39:03Z</time>
      </trkpt>
      <trkpt lat="47.15972" lon="-1.56575">
        <ele>54.5</ele>
        <time>2016-01-09T10:39:07Z</time>
      </trkpt>
      <trkpt lat="47.1597" lon="-1.56547">
        <ele>54.3</ele>
        <time>2016-01-09T10:39:10Z</time>
      </trkpt>
      <trkpt lat="47.15967" lon="-1.56518">
        <ele>54.4</ele>
        <time>2016-01-09T10:39:13Z</time>
      </trkpt>
      <trkpt lat="47.15963" lon="-1.56484">
        <ele>54.1</ele>
        <time>2016-01-09T10:39:17Z</time>
      </trkpt>
      <trkpt lat="47.15963" lon="-1.5645">
        <ele>54.2</ele>
        <time>2016-01-09T10:39:21Z</time>
      </trkpt>
      <trkpt lat="47.15966" lon="-1.56416">
        <ele>54.3</ele>
        <time>2016-01-09T10:39:25Z</time>
      </trkpt>
      <trkpt lat="47.15974" lon="-1.56383">
        <ele>54.3</ele>
        <time>2016-01-09T10:39:29Z</time>
      </trkpt>
      <trkpt lat="47.15981" lon="-1.56359">
        <ele>54.2</ele>
        <time>2016-01-09T10:39:32Z</time>
      </trkpt>
      <trkpt lat="47.1599" lon="-1.56328">
        <ele>54.4</ele>
        <time>2016-01-09T10:39:36Z</time>
      </trkpt>
      <trkpt lat="47.15999" lon="-1.56298">
        <ele>54.3</ele>
        <time>2016-01-09T10:39:40Z</time>
      </trkpt>
      <trkpt lat="47.16006" lon="-1.56268">
        <ele>54.5</ele>
        <time>2016-01-09T10:39:44Z</time>
      </trkpt>
      <trkpt lat="47.16003" lon="-1.56236">
        <ele>53.4</ele>
        <time>2016-01-09T10:39:48Z</time>
      </trkpt>
      <trkpt lat="47.1599" lon="-1.56218">
        <ele>53</ele>
        <time>2016-01-09T10:39:53Z</time>
      </trkpt>
      <trkpt lat="47.15968" lon="-1.56211">
        <ele>53</ele>
        <time>2016-01-09T10:39:57Z</time>
      </trkpt>
      <trkpt lat="47.15947" lon="-1.56208">
        <ele>53</ele>
        <time>2016-01-09T10:40:00Z</time>
      </trkpt>
      <trkpt lat="47.15925" lon="-1.56202">
        <ele>53</ele>
        <time>2016-01-09T10:40:04Z</time>
      </trkpt>
      <trkpt lat="47.15904" lon="-1.56193">
        <ele>52.7</ele>
        <time>2016-01-09T10:40:08Z</time>
      </trkpt>
      <trkpt lat="47.15881" lon="-1.56185">
        <ele>52.8</ele>
        <time>2016-01-09T10:40:12Z</time>
      </trkpt>
      <trkpt lat="47.15859" lon="-1.56176">
        <ele>52.9</ele>
        <time>2016-01-09T10:40:16Z</time>
      </trkpt>
      <trkpt lat="47.15834" lon="-1.56166">
        <ele>52.8</ele>
        <time>2016-01-09T10:40:20Z</time>
      </trkpt>
      <trkpt lat="47.15813" lon="-1.56157">
        <ele>52.9</ele>
        <time>2016-01-09T10:40:24Z</time>
      </trkpt>
      <trkpt lat="47.1579" lon="-1.56148">
        <ele>53.2</ele>
        <time>2016-01-09T10:40:28Z</time>
      </trkpt>
      <trkpt lat="47.15768" lon="-1.56138">
        <ele>53.3</ele>
        <time>2016-01-09T10:40:32Z</time>
      </trkpt>
      <trkpt lat="47.15744" lon="-1.56128">
        <ele>53.6</ele>
        <time>2016-01-09T10:40:36Z</time>
      </trkpt>
      <trkpt lat="47.15725" lon="-1.56121">
        <ele>53.9</ele>
        <time>2016-01-09T10:40:40Z</time>
      </trkpt>
      <trkpt lat="47.15706" lon="-1.56112">
        <ele>54.4</ele>
        <time>2016-01-09T10:40:44Z</time>
      </trkpt>
      <trkpt lat="47.15686" lon="-1.56102">
        <ele>54.7</ele>
        <time>2016-01-09T10:40:48Z</time>
      </trkpt>
      <trkpt lat="47.15666" lon="-1.56096">
        <ele>54.8</ele>
        <time>2016-01-09T10:40:52Z</time>
      </trkpt>
      <trkpt lat="47.15646" lon="-1.56087">
        <ele>55.2</ele>
        <time>2016-01-09T10:40:57Z</time>
      </trkpt>
      <trkpt lat="47.15625" lon="-1.56078">
        <ele>55.5</ele>
        <time>2016-01-09T10:41:02Z</time>
      </trkpt>
      <trkpt lat="47.15608" lon="-1.56065">
        <ele>55.7</ele>
        <time>2016-01-09T10:41:05Z</time>
      </trkpt>
      <trkpt lat="47.15586" lon="-1.56049">
        <ele>55.8</ele>
        <time>2016-01-09T10:41:08Z</time>
      </trkpt>
      <trkpt lat="47.15566" lon="-1.56034">
        <ele>56.1</ele>
        <time>2016-01-09T10:41:11Z</time>
      </trkpt>
      <trkpt lat="47.15549" lon="-1.56022">
        <ele>56.5</ele>
        <time>2016-01-09T10:41:14Z</time>
      </trkpt>
      <trkpt lat="47.15529" lon="-1.56004">
        <ele>56.5</ele>
        <time>2016-01-09T10:41:18Z</time>
      </trkpt>
      <trkpt lat="47.15511" lon="-1.55987">
        <ele>56.8</ele>
        <time>2016-01-09T10:41:22Z</time>
      </trkpt>
      <trkpt lat="47.15494" lon="-1.55974">
        <ele>57.2</ele>
        <time>2016-01-09T10:41:25Z</time>
      </trkpt>
      <trkpt lat="47.15478" lon="-1.5596">
        <ele>57.5</ele>
        <time>2016-01-09T10:41:28Z</time>
      </trkpt>
      <trkpt lat="47.15461" lon="-1.55947">
        <ele>57.8</ele>
        <time>2016-01-09T10:41:31Z</time>
      </trkpt>
      <trkpt lat="47.15441" lon="-1.55933">
        <ele>57.7</ele>
        <time>2016-01-09T10:41:35Z</time>
      </trkpt>
      <trkpt lat="47.15421" lon="-1.55922">
        <ele>57.7</ele>
        <time>2016-01-09T10:41:39Z</time>
      </trkpt>
      <trkpt lat="47.15404" lon="-1.55911">
        <ele>57.6</ele>
        <time>2016-01-09T10:41:42Z</time>
      </trkpt>
      <trkpt lat="47.15389" lon="-1.55891">
        <ele>57.4</ele>
        <time>2016-01-09T10:41:56Z</time>
      </trkpt>
      <trkpt lat="47.15383" lon="-1.55864">
        <ele>57</ele>
        <time>2016-01-09T10:42:03Z</time>
      </trkpt>
      <trkpt lat="47.15373" lon="-1.55841">
        <ele>56.6</ele>
        <time>2016-01-09T10:42:06Z</time>
      </trkpt>
      <trkpt lat="47.15359" lon="-1.55817">
        <ele>56.3</ele>
        <time>2016-01-09T10:42:09Z</time>
      </trkpt>
      <trkpt lat="47.15346" lon="-1.55791">
        <ele>56.2</ele>
        <time>2016-01-09T10:42:12Z</time>
      </trkpt>
      <trkpt lat="47.15331" lon="-1.55766">
        <ele>56.2</ele>
        <time>2016-01-09T10:42:15Z</time>
      </trkpt>
      <trkpt lat="47.15317" lon="-1.55742">
        <ele>55.8</ele>
        <time>2016-01-09T10:42:18Z</time>
      </trkpt>
      <trkpt lat="47.15304" lon="-1.55716">
        <ele>55.6</ele>
        <time>2016-01-09T10:42:21Z</time>
      </trkpt>
      <trkpt lat="47.1529" lon="-1.55692">
        <ele>55.5</ele>
        <time>2016-01-09T10:42:24Z</time>
      </trkpt>
      <trkpt lat="47.15277" lon="-1.55668">
        <ele>55.3</ele>
        <time>2016-01-09T10:42:27Z</time>
      </trkpt>
      <trkpt lat="47.15265" lon="-1.55644">
        <ele>54.9</ele>
        <time>2016-01-09T10:42:30Z</time>
      </trkpt>
      <trkpt lat="47.15254" lon="-1.5562">
        <ele>54.7</ele>
        <time>2016-01-09T10:42:33Z</time>
      </trkpt>
      <trkpt lat="47.15245" lon="-1.55596">
        <ele>54.6</ele>
        <time>2016-01-09T10:42:36Z</time>
      </trkpt>
      <trkpt lat="47.15236" lon="-1.55571">
        <ele>54.5</ele>
        <time>2016-01-09T10:42:39Z</time>
      </trkpt>
      <trkpt lat="47.15228" lon="-1.55547">
        <ele>54.5</ele>
        <time>2016-01-09T10:42:42Z</time>
      </trkpt>
      <trkpt lat="47.15219" lon="-1.55522">
        <ele>54.5</ele>
        <time>2016-01-09T10:42:45Z</time>
      </trkpt>
      <trkpt lat="47.15209" lon="-1.55492">
        <ele>54.8</ele>
        <time>2016-01-09T10:42:49Z</time>
      </trkpt>
      <trkpt lat="47.15186" lon="-1.55478">
        <ele>54.6</ele>
        <time>2016-01-09T10:42:53Z</time>
      </trkpt>
      <trkpt lat="47.15167" lon="-1.55474">
        <ele>53.7</ele>
        <time>2016-01-09T10:42:56Z</time>
      </trkpt>
      <trkpt lat="47.15149" lon="-1.55476">
        <ele>53.1</ele>
        <time>2016-01-09T10:42:59Z</time>
      </trkpt>
      <trkpt lat="47.15126" lon="-1.55481">
        <ele>52.3</ele>
        <time>2016-01-09T10:43:03Z</time>
      </trkpt>
      <trkpt lat="47.15103" lon="-1.55487">
        <ele>51.3</ele>
        <time>2016-01-09T10:43:07Z</time>
      </trkpt>
      <trkpt lat="47.15081" lon="-1.55494">
        <ele>50.7</ele>
        <time>2016-01-09T10:43:11Z</time>
      </trkpt>
      <trkpt lat="47.15057" lon="-1.55499">
        <ele>49.9</ele>
        <time>2016-01-09T10:43:15Z</time>
      </trkpt>
      <trkpt lat="47.15039" lon="-1.55503">
        <ele>49</ele>
        <time>2016-01-09T10:43:18Z</time>
      </trkpt>
      <trkpt lat="47.15016" lon="-1.55509">
        <ele>47.9</ele>
        <time>2016-01-09T10:43:22Z</time>
      </trkpt>
      <trkpt lat="47.14992" lon="-1.55516">
        <ele>47</ele>
        <time>2016-01-09T10:43:26Z</time>
      </trkpt>
      <trkpt lat="47.14969" lon="-1.55522">
        <ele>46.3</ele>
        <time>2016-01-09T10:43:30Z</time>
      </trkpt>
      <trkpt lat="47.14952" lon="-1.55525">
        <ele>46</ele>
        <time>2016-01-09T10:43:33Z</time>
      </trkpt>
      <trkpt lat="47.14929" lon="-1.55532">
        <ele>45.4</ele>
        <time>2016-01-09T10:43:37Z</time>
      </trkpt>
      <trkpt lat="47.14911" lon="-1.55537">
        <ele>45.1</ele>
        <time>2016-01-09T10:43:40Z</time>
      </trkpt>
      <trkpt lat="47.14888" lon="-1.55541">
        <ele>44.9</ele>
        <time>2016-01-09T10:43:44Z</time>
      </trkpt>
      <trkpt lat="47.14865" lon="-1.55531">
        <ele>44.9</ele>
        <time>2016-01-09T10:43:48Z</time>
      </trkpt>
      <trkpt lat="47.14847" lon="-1.55514">
        <ele>44</ele>
        <time>2016-01-09T10:43:52Z</time>
      </trkpt>
      <trkpt lat="47.14833" lon="-1.55498">
        <ele>43.6</ele>
        <time>2016-01-09T10:43:55Z</time>
      </trkpt>
      <trkpt lat="47.14818" lon="-1.55481">
        <ele>43.1</ele>
        <time>2016-01-09T10:43:58Z</time>
      </trkpt>
      <trkpt lat="47.14803" lon="-1.55463">
        <ele>42.8</ele>
        <time>2016-01-09T10:44:02Z</time>
      </trkpt>
      <trkpt lat="47.14784" lon="-1.55445">
        <ele>42.5</ele>
        <time>2016-01-09T10:44:06Z</time>
      </trkpt>
      <trkpt lat="47.14765" lon="-1.55428">
        <ele>42.2</ele>
        <time>2016-01-09T10:44:10Z</time>
      </trkpt>
      <trkpt lat="47.14748" lon="-1.55413">
        <ele>41.7</ele>
        <time>2016-01-09T10:44:13Z</time>
      </trkpt>
      <trkpt lat="47.1473" lon="-1.55398">
        <ele>41.6</ele>
        <time>2016-01-09T10:44:16Z</time>
      </trkpt>
      <trkpt lat="47.14713" lon="-1.5538">
        <ele>41.1</ele>
        <time>2016-01-09T10:44:19Z</time>
      </trkpt>
      <trkpt lat="47.14694" lon="-1.55361">
        <ele>40.6</ele>
        <time>2016-01-09T10:44:22Z</time>
      </trkpt>
      <trkpt lat="47.1468" lon="-1.55344">
        <ele>40</ele>
        <time>2016-01-09T10:44:25Z</time>
      </trkpt>
      <trkpt lat="47.14661" lon="-1.55323">
        <ele>39.5</ele>
        <time>2016-01-09T10:44:29Z</time>
      </trkpt>
      <trkpt lat="47.14646" lon="-1.55304">
        <ele>39.3</ele>
        <time>2016-01-09T10:44:32Z</time>
      </trkpt>
      <trkpt lat="47.14631" lon="-1.55284">
        <ele>39.1</ele>
        <time>2016-01-09T10:44:35Z</time>
      </trkpt>
      <trkpt lat="47.14615" lon="-1.55259">
        <ele>38.9</ele>
        <time>2016-01-09T10:44:39Z</time>
      </trkpt>
      <trkpt lat="47.14602" lon="-1.55238">
        <ele>38.5</ele>
        <time>2016-01-09T10:44:42Z</time>
      </trkpt>
      <trkpt lat="47.14591" lon="-1.55217">
        <ele>38.4</ele>
        <time>2016-01-09T10:44:45Z</time>
      </trkpt>
      <trkpt lat="47.14582" lon="-1.55194">
        <ele>38.4</ele>
        <time>2016-01-09T10:44:48Z</time>
      </trkpt>
      <trkpt lat="47.14569" lon="-1.55172">
        <ele>38.2</ele>
        <time>2016-01-09T10:44:51Z</time>
      </trkpt>
      <trkpt lat="47.14556" lon="-1.5515">
        <ele>38.1</ele>
        <time>2016-01-09T10:44:54Z</time>
      </trkpt>
      <trkpt lat="47.14545" lon="-1.55128">
        <ele>37.6</ele>
        <time>2016-01-09T10:44:57Z</time>
      </trkpt>
      <trkpt lat="47.14532" lon="-1.55105">
        <ele>37</ele>
        <time>2016-01-09T10:45:00Z</time>
      </trkpt>
      <trkpt lat="47.14519" lon="-1.55083">
        <ele>36.3</ele>
        <time>2016-01-09T10:45:03Z</time>
      </trkpt>
      <trkpt lat="47.14508" lon="-1.55057">
        <ele>36.1</ele>
        <time>2016-01-09T10:45:06Z</time>
      </trkpt>
      <trkpt lat="47.14499" lon="-1.55034">
        <ele>35.9</ele>
        <time>2016-01-09T10:45:09Z</time>
      </trkpt>
      <trkpt lat="47.14487" lon="-1.55005">
        <ele>35.3</ele>
        <time>2016-01-09T10:45:13Z</time>
      </trkpt>
      <trkpt lat="47.14473" lon="-1.54983">
        <ele>35.1</ele>
        <time>2016-01-09T10:45:17Z</time>
      </trkpt>
      <trkpt lat="47.14456" lon="-1.54964">
        <ele>35</ele>
        <time>2016-01-09T10:45:21Z</time>
      </trkpt>
      <trkpt lat="47.14436" lon="-1.54945">
        <ele>34.2</ele>
        <time>2016-01-09T10:45:25Z</time>
      </trkpt>
      <trkpt lat="47.14418" lon="-1.54927">
        <ele>33.3</ele>
        <time>2016-01-09T10:45:29Z</time>
      </trkpt>
      <trkpt lat="47.14398" lon="-1.54906">
        <ele>32.2</ele>
        <time>2016-01-09T10:45:33Z</time>
      </trkpt>
      <trkpt lat="47.14383" lon="-1.5489">
        <ele>31.9</ele>
        <time>2016-01-09T10:45:36Z</time>
      </trkpt>
      <trkpt lat="47.14364" lon="-1.54869">
        <ele>31.5</ele>
        <time>2016-01-09T10:45:40Z</time>
      </trkpt>
      <trkpt lat="47.14349" lon="-1.54852">
        <ele>31.1</ele>
        <time>2016-01-09T10:45:44Z</time>
      </trkpt>
      <trkpt lat="47.14328" lon="-1.54834">
        <ele>31</ele>
        <time>2016-01-09T10:45:48Z</time>
      </trkpt>
      <trkpt lat="47.14307" lon="-1.5482">
        <ele>31.2</ele>
        <time>2016-01-09T10:45:52Z</time>
      </trkpt>
      <trkpt lat="47.14289" lon="-1.5481">
        <ele>31.1</ele>
        <time>2016-01-09T10:45:56Z</time>
      </trkpt>
      <trkpt lat="47.14272" lon="-1.54797">
        <ele>30.9</ele>
        <time>2016-01-09T10:45:59Z</time>
      </trkpt>
      <trkpt lat="47.14255" lon="-1.54785">
        <ele>30.3</ele>
        <time>2016-01-09T10:46:02Z</time>
      </trkpt>
      <trkpt lat="47.14234" lon="-1.54769">
        <ele>29.8</ele>
        <time>2016-01-09T10:46:06Z</time>
      </trkpt>
      <trkpt lat="47.14214" lon="-1.54754">
        <ele>29.4</ele>
        <time>2016-01-09T10:46:10Z</time>
      </trkpt>
      <trkpt lat="47.14196" lon="-1.54741">
        <ele>28.9</ele>
        <time>2016-01-09T10:46:14Z</time>
      </trkpt>
      <trkpt lat="47.14184" lon="-1.54717">
        <ele>28.3</ele>
        <time>2016-01-09T10:46:19Z</time>
      </trkpt>
      <trkpt lat="47.14189" lon="-1.54685">
        <ele>28</ele>
        <time>2016-01-09T10:46:23Z</time>
      </trkpt>
      <trkpt lat="47.14182" lon="-1.54655">
        <ele>27.7</ele>
        <time>2016-01-09T10:46:27Z</time>
      </trkpt>
      <trkpt lat="47.14164" lon="-1.54632">
        <ele>27.1</ele>
        <time>2016-01-09T10:46:31Z</time>
      </trkpt>
      <trkpt lat="47.14149" lon="-1.54613">
        <ele>26.6</ele>
        <time>2016-01-09T10:46:34Z</time>
      </trkpt>
      <trkpt lat="47.14131" lon="-1.5459">
        <ele>25.9</ele>
        <time>2016-01-09T10:46:38Z</time>
      </trkpt>
      <trkpt lat="47.14113" lon="-1.54569">
        <ele>25.3</ele>
        <time>2016-01-09T10:46:42Z</time>
      </trkpt>
      <trkpt lat="47.14096" lon="-1.54549">
        <ele>25.2</ele>
        <time>2016-01-09T10:46:46Z</time>
      </trkpt>
      <trkpt lat="47.14081" lon="-1.5453">
        <ele>25</ele>
        <time>2016-01-09T10:46:50Z</time>
      </trkpt>
      <trkpt lat="47.14065" lon="-1.54511">
        <ele>24.9</ele>
        <time>2016-01-09T10:46:54Z</time>
      </trkpt>
      <trkpt lat="47.14046" lon="-1.54493">
        <ele>25</ele>
        <time>2016-01-09T10:46:58Z</time>
      </trkpt>
      <trkpt lat="47.14027" lon="-1.54477">
        <ele>24.8</ele>
        <time>2016-01-09T10:47:02Z</time>
      </trkpt>
      <trkpt lat="47.14011" lon="-1.54464">
        <ele>24.6</ele>
        <time>2016-01-09T10:47:05Z</time>
      </trkpt>
      <trkpt lat="47.13991" lon="-1.54448">
        <ele>24.5</ele>
        <time>2016-01-09T10:47:09Z</time>
      </trkpt>
      <trkpt lat="47.13976" lon="-1.54432">
        <ele>24.3</ele>
        <time>2016-01-09T10:47:12Z</time>
      </trkpt>
      <trkpt lat="47.13958" lon="-1.54412">
        <ele>24.1</ele>
        <time>2016-01-09T10:47:16Z</time>
      </trkpt>
      <trkpt lat="47.13937" lon="-1.54396">
        <ele>24.1</ele>
        <time>2016-01-09T10:47:20Z</time>
      </trkpt>
      <trkpt lat="47.13917" lon="-1.5438">
        <ele>24.3</ele>
        <time>2016-01-09T10:47:24Z</time>
      </trkpt>
      <trkpt lat="47.13899" lon="-1.54369">
        <ele>23.9</ele>
        <time>2016-01-09T10:47:28Z</time>
      </trkpt>
      <trkpt lat="47.13879" lon="-1.54351">
        <ele>24.4</ele>
        <time>2016-01-09T10:47:32Z</time>
      </trkpt>
      <trkpt lat="47.13858" lon="-1.54336">
        <ele>24.7</ele>
        <time>2016-01-09T10:47:36Z</time>
      </trkpt>
      <trkpt lat="47.13836" lon="-1.54324">
        <ele>25.5</ele>
        <time>2016-01-09T10:47:40Z</time>
      </trkpt>
      <trkpt lat="47.13815" lon="-1.54313">
        <ele>26.2</ele>
        <time>2016-01-09T10:47:44Z</time>
      </trkpt>
      <trkpt lat="47.13795" lon="-1.54303">
        <ele>27.3</ele>
        <time>2016-01-09T10:47:48Z</time>
      </trkpt>
      <trkpt lat="47.13778" lon="-1.54295">
        <ele>28</ele>
        <time>2016-01-09T10:47:52Z</time>
      </trkpt>
      <trkpt lat="47.1376" lon="-1.54285">
        <ele>28.6</ele>
        <time>2016-01-09T10:47:56Z</time>
      </trkpt>
      <trkpt lat="47.1374" lon="-1.54273">
        <ele>28.8</ele>
        <time>2016-01-09T10:48:00Z</time>
      </trkpt>
      <trkpt lat="47.13723" lon="-1.5426">
        <ele>28.9</ele>
        <time>2016-01-09T10:48:04Z</time>
      </trkpt>
      <trkpt lat="47.13701" lon="-1.54248">
        <ele>29.2</ele>
        <time>2016-01-09T10:48:08Z</time>
      </trkpt>
      <trkpt lat="47.13681" lon="-1.54239">
        <ele>29.2</ele>
        <time>2016-01-09T10:48:11Z</time>
      </trkpt>
      <trkpt lat="47.13662" lon="-1.5423">
        <ele>29.3</ele>
        <time>2016-01-09T10:48:14Z</time>
      </trkpt>
      <trkpt lat="47.13641" lon="-1.54219">
        <ele>29.9</ele>
        <time>2016-01-09T10:48:18Z</time>
      </trkpt>
      <trkpt lat="47.13619" lon="-1.54206">
        <ele>30.3</ele>
        <time>2016-01-09T10:48:22Z</time>
      </trkpt>
      <trkpt lat="47.13597" lon="-1.5419">
        <ele>31.1</ele>
        <time>2016-01-09T10:48:26Z</time>
      </trkpt>
      <trkpt lat="47.1358" lon="-1.54178">
        <ele>31.5</ele>
        <time>2016-01-09T10:48:29Z</time>
      </trkpt>
      <trkpt lat="47.13565" lon="-1.54162">
        <ele>31.5</ele>
        <time>2016-01-09T10:48:32Z</time>
      </trkpt>
      <trkpt lat="47.1355" lon="-1.5414">
        <ele>31.8</ele>
        <time>2016-01-09T10:48:36Z</time>
      </trkpt>
      <trkpt lat="47.13536" lon="-1.54117">
        <ele>32.3</ele>
        <time>2016-01-09T10:48:40Z</time>
      </trkpt>
      <trkpt lat="47.1352" lon="-1.54094">
        <ele>33.1</ele>
        <time>2016-01-09T10:48:44Z</time>
      </trkpt>
      <trkpt lat="47.13506" lon="-1.54072">
        <ele>33.6</ele>
        <time>2016-01-09T10:48:47Z</time>
      </trkpt>
      <trkpt lat="47.13493" lon="-1.54053">
        <ele>34.1</ele>
        <time>2016-01-09T10:48:50Z</time>
      </trkpt>
      <trkpt lat="47.13481" lon="-1.54032">
        <ele>34.5</ele>
        <time>2016-01-09T10:48:53Z</time>
      </trkpt>
      <trkpt lat="47.13466" lon="-1.54007">
        <ele>34.8</ele>
        <time>2016-01-09T10:48:57Z</time>
      </trkpt>
      <trkpt lat="47.13454" lon="-1.53987">
        <ele>35.2</ele>
        <time>2016-01-09T10:49:00Z</time>
      </trkpt>
      <trkpt lat="47.13441" lon="-1.53963">
        <ele>35.8</ele>
        <time>2016-01-09T10:49:04Z</time>
      </trkpt>
      <trkpt lat="47.13428" lon="-1.5394">
        <ele>36.4</ele>
        <time>2016-01-09T10:49:08Z</time>
      </trkpt>
      <trkpt lat="47.13415" lon="-1.53917">
        <ele>36.8</ele>
        <time>2016-01-09T10:49:11Z</time>
      </trkpt>
      <trkpt lat="47.13404" lon="-1.53893">
        <ele>37.4</ele>
        <time>2016-01-09T10:49:15Z</time>
      </trkpt>
      <trkpt lat="47.13391" lon="-1.53869">
        <ele>37.6</ele>
        <time>2016-01-09T10:49:19Z</time>
      </trkpt>
      <trkpt lat="47.13378" lon="-1.53848">
        <ele>37.8</ele>
        <time>2016-01-09T10:49:22Z</time>
      </trkpt>
      <trkpt lat="47.13364" lon="-1.53823">
        <ele>37.9</ele>
        <time>2016-01-09T10:49:26Z</time>
      </trkpt>
      <trkpt lat="47.13353" lon="-1.53802">
        <ele>38.2</ele>
        <time>2016-01-09T10:49:29Z</time>
      </trkpt>
      <trkpt lat="47.13339" lon="-1.53773">
        <ele>38.5</ele>
        <time>2016-01-09T10:49:33Z</time>
      </trkpt>
      <trkpt lat="47.13328" lon="-1.53746">
        <ele>39.5</ele>
        <time>2016-01-09T10:49:37Z</time>
      </trkpt>
      <trkpt lat="47.13316" lon="-1.53722">
        <ele>40.2</ele>
        <time>2016-01-09T10:49:41Z</time>
      </trkpt>
      <trkpt lat="47.13305" lon="-1.53696">
        <ele>40.6</ele>
        <time>2016-01-09T10:49:45Z</time>
      </trkpt>
      <trkpt lat="47.13296" lon="-1.53671">
        <ele>41.1</ele>
        <time>2016-01-09T10:49:49Z</time>
      </trkpt>
      <trkpt lat="47.13286" lon="-1.53645">
        <ele>41.5</ele>
        <time>2016-01-09T10:49:53Z</time>
      </trkpt>
      <trkpt lat="47.13276" lon="-1.53617">
        <ele>41.7</ele>
        <time>2016-01-09T10:49:57Z</time>
      </trkpt>
      <trkpt lat="47.13266" lon="-1.53589">
        <ele>42.3</ele>
        <time>2016-01-09T10:50:01Z</time>
      </trkpt>
      <trkpt lat="47.13258" lon="-1.53562">
        <ele>43.1</ele>
        <time>2016-01-09T10:50:05Z</time>
      </trkpt>
      <trkpt lat="47.13248" lon="-1.53533">
        <ele>43.1</ele>
        <time>2016-01-09T10:50:09Z</time>
      </trkpt>
      <trkpt lat="47.13239" lon="-1.53501">
        <ele>43.7</ele>
        <time>2016-01-09T10:50:14Z</time>
      </trkpt>
      <trkpt lat="47.13229" lon="-1.53476">
        <ele>43.2</ele>
        <time>2016-01-09T10:50:18Z</time>
      </trkpt>
      <trkpt lat="47.13222" lon="-1.53449">
        <ele>43</ele>
        <time>2016-01-09T10:50:22Z</time>
      </trkpt>
      <trkpt lat="47.13216" lon="-1.53423">
        <ele>42.5</ele>
        <time>2016-01-09T10:50:26Z</time>
      </trkpt>
      <trkpt lat="47.13208" lon="-1.53397">
        <ele>42.6</ele>
        <time>2016-01-09T10:50:30Z</time>
      </trkpt>
      <trkpt lat="47.13199" lon="-1.53369">
        <ele>42.2</ele>
        <time>2016-01-09T10:50:34Z</time>
      </trkpt>
      <trkpt lat="47.13192" lon="-1.53344">
        <ele>42.4</ele>
        <time>2016-01-09T10:50:38Z</time>
      </trkpt>
      <trkpt lat="47.13185" lon="-1.53318">
        <ele>41.6</ele>
        <time>2016-01-09T10:50:42Z</time>
      </trkpt>
      <trkpt lat="47.13177" lon="-1.5329">
        <ele>41.6</ele>
        <time>2016-01-09T10:50:47Z</time>
      </trkpt>
      <trkpt lat="47.1317" lon="-1.5326">
        <ele>40.8</ele>
        <time>2016-01-09T10:50:52Z</time>
      </trkpt>
      <trkpt lat="47.13162" lon="-1.53235">
        <ele>40.4</ele>
        <time>2016-01-09T10:50:59Z</time>
      </trkpt>
      <trkpt lat="47.1318" lon="-1.53219">
        <ele>40.5</ele>
        <time>2016-01-09T10:51:05Z</time>
      </trkpt>
      <trkpt lat="47.13199" lon="-1.53207">
        <ele>40.3</ele>
        <time>2016-01-09T10:51:09Z</time>
      </trkpt>
      <trkpt lat="47.13219" lon="-1.53196">
        <ele>40</ele>
        <time>2016-01-09T10:51:13Z</time>
      </trkpt>
      <trkpt lat="47.1324" lon="-1.53185">
        <ele>39.7</ele>
        <time>2016-01-09T10:51:17Z</time>
      </trkpt>
      <trkpt lat="47.13261" lon="-1.53176">
        <ele>39.6</ele>
        <time>2016-01-09T10:51:21Z</time>
      </trkpt>
      <trkpt lat="47.13283" lon="-1.53167">
        <ele>39.5</ele>
        <time>2016-01-09T10:51:25Z</time>
      </trkpt>
      <trkpt lat="47.13305" lon="-1.53158">
        <ele>38.8</ele>
        <time>2016-01-09T10:51:29Z</time>
      </trkpt>
      <trkpt lat="47.13323" lon="-1.53154">
        <ele>37.2</ele>
        <time>2016-01-09T10:51:32Z</time>
      </trkpt>
      <trkpt lat="47.13346" lon="-1.5315">
        <ele>36.3</ele>
        <time>2016-01-09T10:51:36Z</time>
      </trkpt>
      <trkpt lat="47.13368" lon="-1.53145">
        <ele>34.9</ele>
        <time>2016-01-09T10:51:40Z</time>
      </trkpt>
      <trkpt lat="47.13386" lon="-1.53144">
        <ele>34.1</ele>
        <time>2016-01-09T10:51:43Z</time>
      </trkpt>
      <trkpt lat="47.13409" lon="-1.53145">
        <ele>32.6</ele>
        <time>2016-01-09T10:51:47Z</time>
      </trkpt>
      <trkpt lat="47.1343" lon="-1.53136">
        <ele>35.2</ele>
        <time>2016-01-09T10:51:51Z</time>
      </trkpt>
      <trkpt lat="47.13443" lon="-1.53108">
        <ele>37.5</ele>
        <time>2016-01-09T10:51:55Z</time>
      </trkpt>
      <trkpt lat="47.13453" lon="-1.53079">
        <ele>38.3</ele>
        <time>2016-01-09T10:51:59Z</time>
      </trkpt>
      <trkpt lat="47.13464" lon="-1.53052">
        <ele>37.9</ele>
        <time>2016-01-09T10:52:03Z</time>
      </trkpt>
      <trkpt lat="47.13476" lon="-1.53025">
        <ele>37.4</ele>
        <time>2016-01-09T10:52:07Z</time>
      </trkpt>
      <trkpt lat="47.13487" lon="-1.52999">
        <ele>36.7</ele>
        <time>2016-01-09T10:52:11Z</time>
      </trkpt>
      <trkpt lat="47.13499" lon="-1.52973">
        <ele>35.8</ele>
        <time>2016-01-09T10:52:15Z</time>
      </trkpt>
      <trkpt lat="47.1351" lon="-1.52946">
        <ele>35.7</ele>
        <time>2016-01-09T10:52:19Z</time>
      </trkpt>
      <trkpt lat="47.13522" lon="-1.52916">
        <ele>36.2</ele>
        <time>2016-01-09T10:52:23Z</time>
      </trkpt>
      <trkpt lat="47.13533" lon="-1.52888">
        <ele>36.5</ele>
        <time>2016-01-09T10:52:27Z</time>
      </trkpt>
      <trkpt lat="47.13545" lon="-1.5286">
        <ele>36.7</ele>
        <time>2016-01-09T10:52:31Z</time>
      </trkpt>
      <trkpt lat="47.13557" lon="-1.52832">
        <ele>36.4</ele>
        <time>2016-01-09T10:52:35Z</time>
      </trkpt>
      <trkpt lat="47.1357" lon="-1.52804">
        <ele>36.4</ele>
        <time>2016-01-09T10:52:39Z</time>
      </trkpt>
      <trkpt lat="47.13579" lon="-1.52781">
        <ele>36.1</ele>
        <time>2016-01-09T10:52:42Z</time>
      </trkpt>
      <trkpt lat="47.13592" lon="-1.52754">
        <ele>35.7</ele>
        <time>2016-01-09T10:52:46Z</time>
      </trkpt>
      <trkpt lat="47.13605" lon="-1.52729">
        <ele>35.5</ele>
        <time>2016-01-09T10:52:50Z</time>
      </trkpt>
      <trkpt lat="47.13618" lon="-1.52705">
        <ele>35.5</ele>
        <time>2016-01-09T10:52:54Z</time>
      </trkpt>
      <trkpt lat="47.13634" lon="-1.52683">
        <ele>35.4</ele>
        <time>2016-01-09T10:52:58Z</time>
      </trkpt>
      <trkpt lat="47.13648" lon="-1.52658">
        <ele>35.6</ele>
        <time>2016-01-09T10:53:02Z</time>
      </trkpt>
      <trkpt lat="47.13663" lon="-1.52634">
        <ele>35.7</ele>
        <time>2016-01-09T10:53:06Z</time>
      </trkpt>
      <trkpt lat="47.13677" lon="-1.5261">
        <ele>35.8</ele>
        <time>2016-01-09T10:53:10Z</time>
      </trkpt>
      <trkpt lat="47.13691" lon="-1.52586">
        <ele>35.9</ele>
        <time>2016-01-09T10:53:14Z</time>
      </trkpt>
      <trkpt lat="47.13706" lon="-1.52562">
        <ele>35.9</ele>
        <time>2016-01-09T10:53:18Z</time>
      </trkpt>
      <trkpt lat="47.13721" lon="-1.5254">
        <ele>35.6</ele>
        <time>2016-01-09T10:53:22Z</time>
      </trkpt>
      <trkpt lat="47.13736" lon="-1.52517">
        <ele>35.6</ele>
        <time>2016-01-09T10:53:26Z</time>
      </trkpt>
      <trkpt lat="47.1375" lon="-1.52494">
        <ele>35.7</ele>
        <time>2016-01-09T10:53:30Z</time>
      </trkpt>
      <trkpt lat="47.13766" lon="-1.5247">
        <ele>35.7</ele>
        <time>2016-01-09T10:53:34Z</time>
      </trkpt>
      <trkpt lat="47.13781" lon="-1.52447">
        <ele>35.4</ele>
        <time>2016-01-09T10:53:38Z</time>
      </trkpt>
      <trkpt lat="47.13795" lon="-1.52423">
        <ele>35.1</ele>
        <time>2016-01-09T10:53:42Z</time>
      </trkpt>
      <trkpt lat="47.13809" lon="-1.52404">
        <ele>34.7</ele>
        <time>2016-01-09T10:53:45Z</time>
      </trkpt>
      <trkpt lat="47.13824" lon="-1.52383">
        <ele>35.1</ele>
        <time>2016-01-09T10:53:49Z</time>
      </trkpt>
      <trkpt lat="47.13839" lon="-1.5236">
        <ele>34.9</ele>
        <time>2016-01-09T10:53:53Z</time>
      </trkpt>
      <trkpt lat="47.1385" lon="-1.52329">
        <ele>35.3</ele>
        <time>2016-01-09T10:53:57Z</time>
      </trkpt>
      <trkpt lat="47.13865" lon="-1.52304">
        <ele>35.6</ele>
        <time>2016-01-09T10:54:01Z</time>
      </trkpt>
      <trkpt lat="47.13881" lon="-1.5229">
        <ele>35.7</ele>
        <time>2016-01-09T10:54:04Z</time>
      </trkpt>
      <trkpt lat="47.13898" lon="-1.52267">
        <ele>36.3</ele>
        <time>2016-01-09T10:54:08Z</time>
      </trkpt>
      <trkpt lat="47.13914" lon="-1.52251">
        <ele>36.9</ele>
        <time>2016-01-09T10:54:11Z</time>
      </trkpt>
      <trkpt lat="47.1393" lon="-1.52235">
        <ele>37.4</ele>
        <time>2016-01-09T10:54:14Z</time>
      </trkpt>
      <trkpt lat="47.13944" lon="-1.52218">
        <ele>37.4</ele>
        <time>2016-01-09T10:54:17Z</time>
      </trkpt>
      <trkpt lat="47.1396" lon="-1.52195">
        <ele>37.3</ele>
        <time>2016-01-09T10:54:21Z</time>
      </trkpt>
      <trkpt lat="47.13975" lon="-1.52171">
        <ele>37.4</ele>
        <time>2016-01-09T10:54:25Z</time>
      </trkpt>
      <trkpt lat="47.13993" lon="-1.52154">
        <ele>37.5</ele>
        <time>2016-01-09T10:54:29Z</time>
      </trkpt>
      <trkpt lat="47.14012" lon="-1.52136">
        <ele>37.5</ele>
        <time>2016-01-09T10:54:33Z</time>
      </trkpt>
      <trkpt lat="47.14024" lon="-1.52111">
        <ele>38.7</ele>
        <time>2016-01-09T10:54:38Z</time>
      </trkpt>
      <trkpt lat="47.14043" lon="-1.52092">
        <ele>38.9</ele>
        <time>2016-01-09T10:54:43Z</time>
      </trkpt>
      <trkpt lat="47.1406" lon="-1.52078">
        <ele>38.7</ele>
        <time>2016-01-09T10:54:46Z</time>
      </trkpt>
      <trkpt lat="47.14074" lon="-1.52059">
        <ele>38.9</ele>
        <time>2016-01-09T10:54:49Z</time>
      </trkpt>
      <trkpt lat="47.1409" lon="-1.52043">
        <ele>38.8</ele>
        <time>2016-01-09T10:54:52Z</time>
      </trkpt>
      <trkpt lat="47.14105" lon="-1.52027">
        <ele>38.8</ele>
        <time>2016-01-09T10:54:55Z</time>
      </trkpt>
      <trkpt lat="47.14121" lon="-1.5201">
        <ele>38.9</ele>
        <time>2016-01-09T10:54:58Z</time>
      </trkpt>
      <trkpt lat="47.14137" lon="-1.51993">
        <ele>38.7</ele>
        <time>2016-01-09T10:55:01Z</time>
      </trkpt>
      <trkpt lat="47.14153" lon="-1.51978">
        <ele>38.3</ele>
        <time>2016-01-09T10:55:04Z</time>
      </trkpt>
      <trkpt lat="47.1417" lon="-1.51962">
        <ele>38</ele>
        <time>2016-01-09T10:55:07Z</time>
      </trkpt>
      <trkpt lat="47.14186" lon="-1.51946">
        <ele>37.7</ele>
        <time>2016-01-09T10:55:10Z</time>
      </trkpt>
      <trkpt lat="47.14203" lon="-1.51931">
        <ele>37.3</ele>
        <time>2016-01-09T10:55:13Z</time>
      </trkpt>
      <trkpt lat="47.1422" lon="-1.51916">
        <ele>37</ele>
        <time>2016-01-09T10:55:16Z</time>
      </trkpt>
      <trkpt lat="47.14237" lon="-1.519">
        <ele>36.9</ele>
        <time>2016-01-09T10:55:19Z</time>
      </trkpt>
      <trkpt lat="47.14254" lon="-1.51885">
        <ele>36.7</ele>
        <time>2016-01-09T10:55:22Z</time>
      </trkpt>
      <trkpt lat="47.14269" lon="-1.51868">
        <ele>36.5</ele>
        <time>2016-01-09T10:55:25Z</time>
      </trkpt>
      <trkpt lat="47.14285" lon="-1.51851">
        <ele>36.5</ele>
        <time>2016-01-09T10:55:28Z</time>
      </trkpt>
      <trkpt lat="47.14302" lon="-1.51834">
        <ele>36.3</ele>
        <time>2016-01-09T10:55:31Z</time>
      </trkpt>
      <trkpt lat="47.14321" lon="-1.51814">
        <ele>36.1</ele>
        <time>2016-01-09T10:55:35Z</time>
      </trkpt>
      <trkpt lat="47.14339" lon="-1.51792">
        <ele>36.1</ele>
        <time>2016-01-09T10:55:39Z</time>
      </trkpt>
      <trkpt lat="47.14355" lon="-1.51778">
        <ele>36.2</ele>
        <time>2016-01-09T10:55:42Z</time>
      </trkpt>
      <trkpt lat="47.1437" lon="-1.51761">
        <ele>36</ele>
        <time>2016-01-09T10:55:45Z</time>
      </trkpt>
      <trkpt lat="47.14385" lon="-1.51745">
        <ele>36</ele>
        <time>2016-01-09T10:55:48Z</time>
      </trkpt>
      <trkpt lat="47.14401" lon="-1.5173">
        <ele>36.1</ele>
        <time>2016-01-09T10:55:51Z</time>
      </trkpt>
      <trkpt lat="47.14418" lon="-1.51715">
        <ele>36</ele>
        <time>2016-01-09T10:55:54Z</time>
      </trkpt>
      <trkpt lat="47.14434" lon="-1.51697">
        <ele>35.4</ele>
        <time>2016-01-09T10:55:57Z</time>
      </trkpt>
      <trkpt lat="47.1445" lon="-1.5168">
        <ele>34.7</ele>
        <time>2016-01-09T10:56:00Z</time>
      </trkpt>
      <trkpt lat="47.14467" lon="-1.51661">
        <ele>34.4</ele>
        <time>2016-01-09T10:56:03Z</time>
      </trkpt>
      <trkpt lat="47.14484" lon="-1.51643">
        <ele>33.9</ele>
        <time>2016-01-09T10:56:06Z</time>
      </trkpt>
      <trkpt lat="47.14501" lon="-1.51626">
        <ele>33.7</ele>
        <time>2016-01-09T10:56:09Z</time>
      </trkpt>
      <trkpt lat="47.14518" lon="-1.51607">
        <ele>33.6</ele>
        <time>2016-01-09T10:56:12Z</time>
      </trkpt>
      <trkpt lat="47.14533" lon="-1.51588">
        <ele>33.7</ele>
        <time>2016-01-09T10:56:15Z</time>
      </trkpt>
      <trkpt lat="47.14549" lon="-1.51569">
        <ele>33.8</ele>
        <time>2016-01-09T10:56:18Z</time>
      </trkpt>
      <trkpt lat="47.14563" lon="-1.51548">
        <ele>33.7</ele>
        <time>2016-01-09T10:56:21Z</time>
      </trkpt>
      <trkpt lat="47.14575" lon="-1.51525">
        <ele>33.5</ele>
        <time>2016-01-09T10:56:24Z</time>
      </trkpt>
      <trkpt lat="47.14587" lon="-1.51504">
        <ele>33.6</ele>
        <time>2016-01-09T10:56:27Z</time>
      </trkpt>
      <trkpt lat="47.14598" lon="-1.51483">
        <ele>33.8</ele>
        <time>2016-01-09T10:56:30Z</time>
      </trkpt>
      <trkpt lat="47.14611" lon="-1.51455">
        <ele>34.2</ele>
        <time>2016-01-09T10:56:34Z</time>
      </trkpt>
      <trkpt lat="47.14624" lon="-1.51427">
        <ele>34.5</ele>
        <time>2016-01-09T10:56:38Z</time>
      </trkpt>
      <trkpt lat="47.14636" lon="-1.51404">
        <ele>35.1</ele>
        <time>2016-01-09T10:56:41Z</time>
      </trkpt>
      <trkpt lat="47.1465" lon="-1.5138">
        <ele>35.4</ele>
        <time>2016-01-09T10:56:44Z</time>
      </trkpt>
      <trkpt lat="47.14662" lon="-1.51355">
        <ele>35.5</ele>
        <time>2016-01-09T10:56:47Z</time>
      </trkpt>
      <trkpt lat="47.14674" lon="-1.51329">
        <ele>35.4</ele>
        <time>2016-01-09T10:56:50Z</time>
      </trkpt>
      <trkpt lat="47.14678" lon="-1.51302">
        <ele>35.8</ele>
        <time>2016-01-09T10:56:54Z</time>
      </trkpt>
      <trkpt lat="47.14657" lon="-1.513">
        <ele>34.4</ele>
        <time>2016-01-09T10:56:59Z</time>
      </trkpt>
      <trkpt lat="47.14634" lon="-1.51306">
        <ele>34.5</ele>
        <time>2016-01-09T10:57:03Z</time>
      </trkpt>
      <trkpt lat="47.14616" lon="-1.5131">
        <ele>34.6</ele>
        <time>2016-01-09T10:57:06Z</time>
      </trkpt>
      <trkpt lat="47.14594" lon="-1.51314">
        <ele>35</ele>
        <time>2016-01-09T10:57:10Z</time>
      </trkpt>
      <trkpt lat="47.1457" lon="-1.51315">
        <ele>34.7</ele>
        <time>2016-01-09T10:57:14Z</time>
      </trkpt>
      <trkpt lat="47.14551" lon="-1.51313">
        <ele>34.7</ele>
        <time>2016-01-09T10:57:17Z</time>
      </trkpt>
      <trkpt lat="47.14531" lon="-1.51311">
        <ele>34.5</ele>
        <time>2016-01-09T10:57:21Z</time>
      </trkpt>
      <trkpt lat="47.14509" lon="-1.5131">
        <ele>34.6</ele>
        <time>2016-01-09T10:57:25Z</time>
      </trkpt>
      <trkpt lat="47.14485" lon="-1.51308">
        <ele>34.2</ele>
        <time>2016-01-09T10:57:29Z</time>
      </trkpt>
      <trkpt lat="47.14461" lon="-1.51304">
        <ele>35.3</ele>
        <time>2016-01-09T10:57:33Z</time>
      </trkpt>
      <trkpt lat="47.14442" lon="-1.51295">
        <ele>35.8</ele>
        <time>2016-01-09T10:57:36Z</time>
      </trkpt>
      <trkpt lat="47.14422" lon="-1.51275">
        <ele>36.2</ele>
        <time>2016-01-09T10:57:40Z</time>
      </trkpt>
      <trkpt lat="47.1441" lon="-1.51256">
        <ele>36.7</ele>
        <time>2016-01-09T10:57:43Z</time>
      </trkpt>
      <trkpt lat="47.14397" lon="-1.51227">
        <ele>37.3</ele>
        <time>2016-01-09T10:57:47Z</time>
      </trkpt>
      <trkpt lat="47.14387" lon="-1.51204">
        <ele>37.9</ele>
        <time>2016-01-09T10:57:50Z</time>
      </trkpt>
      <trkpt lat="47.14376" lon="-1.51182">
        <ele>38.2</ele>
        <time>2016-01-09T10:57:53Z</time>
      </trkpt>
      <trkpt lat="47.14365" lon="-1.51151">
        <ele>38.5</ele>
        <time>2016-01-09T10:57:57Z</time>
      </trkpt>
      <trkpt lat="47.14355" lon="-1.51127">
        <ele>38.5</ele>
        <time>2016-01-09T10:58:00Z</time>
      </trkpt>
      <trkpt lat="47.14344" lon="-1.51103">
        <ele>38.8</ele>
        <time>2016-01-09T10:58:03Z</time>
      </trkpt>
      <trkpt lat="47.14333" lon="-1.51078">
        <ele>39.2</ele>
        <time>2016-01-09T10:58:06Z</time>
      </trkpt>
      <trkpt lat="47.14323" lon="-1.51054">
        <ele>39.8</ele>
        <time>2016-01-09T10:58:09Z</time>
      </trkpt>
      <trkpt lat="47.14314" lon="-1.5103">
        <ele>40.1</ele>
        <time>2016-01-09T10:58:12Z</time>
      </trkpt>
      <trkpt lat="47.14305" lon="-1.51">
        <ele>40.2</ele>
        <time>2016-01-09T10:58:16Z</time>
      </trkpt>
      <trkpt lat="47.14297" lon="-1.50968">
        <ele>40.7</ele>
        <time>2016-01-09T10:58:20Z</time>
      </trkpt>
      <trkpt lat="47.14289" lon="-1.50937">
        <ele>41.2</ele>
        <time>2016-01-09T10:58:24Z</time>
      </trkpt>
      <trkpt lat="47.14282" lon="-1.50906">
        <ele>41.6</ele>
        <time>2016-01-09T10:58:28Z</time>
      </trkpt>
      <trkpt lat="47.14273" lon="-1.50875">
        <ele>41.6</ele>
        <time>2016-01-09T10:58:32Z</time>
      </trkpt>
      <trkpt lat="47.14267" lon="-1.5085">
        <ele>41.6</ele>
        <time>2016-01-09T10:58:35Z</time>
      </trkpt>
      <trkpt lat="47.1426" lon="-1.50825">
        <ele>42.1</ele>
        <time>2016-01-09T10:58:38Z</time>
      </trkpt>
      <trkpt lat="47.1425" lon="-1.50793">
        <ele>42.5</ele>
        <time>2016-01-09T10:58:42Z</time>
      </trkpt>
      <trkpt lat="47.14242" lon="-1.50763">
        <ele>42.7</ele>
        <time>2016-01-09T10:58:46Z</time>
      </trkpt>
      <trkpt lat="47.14235" lon="-1.50733">
        <ele>42.7</ele>
        <time>2016-01-09T10:58:50Z</time>
      </trkpt>
      <trkpt lat="47.14227" lon="-1.50701">
        <ele>43</ele>
        <time>2016-01-09T10:58:54Z</time>
      </trkpt>
      <trkpt lat="47.14221" lon="-1.50667">
        <ele>43.4</ele>
        <time>2016-01-09T10:58:58Z</time>
      </trkpt>
      <trkpt lat="47.14216" lon="-1.50637">
        <ele>43.8</ele>
        <time>2016-01-09T10:59:02Z</time>
      </trkpt>
      <trkpt lat="47.1421" lon="-1.50606">
        <ele>44.2</ele>
        <time>2016-01-09T10:59:06Z</time>
      </trkpt>
      <trkpt lat="47.14203" lon="-1.5058">
        <ele>44.3</ele>
        <time>2016-01-09T10:59:09Z</time>
      </trkpt>
      <trkpt lat="47.14198" lon="-1.50548">
        <ele>44.5</ele>
        <time>2016-01-09T10:59:13Z</time>
      </trkpt>
      <trkpt lat="47.14191" lon="-1.50516">
        <ele>44.9</ele>
        <time>2016-01-09T10:59:17Z</time>
      </trkpt>
      <trkpt lat="47.14186" lon="-1.50484">
        <ele>45.1</ele>
        <time>2016-01-09T10:59:21Z</time>
      </trkpt>
      <trkpt lat="47.14181" lon="-1.50453">
        <ele>45.6</ele>
        <time>2016-01-09T10:59:25Z</time>
      </trkpt>
      <trkpt lat="47.14177" lon="-1.50418">
        <ele>46.4</ele>
        <time>2016-01-09T10:59:29Z</time>
      </trkpt>
      <trkpt lat="47.14171" lon="-1.50386">
        <ele>46.9</ele>
        <time>2016-01-09T10:59:33Z</time>
      </trkpt>
      <trkpt lat="47.14165" lon="-1.50354">
        <ele>47.1</ele>
        <time>2016-01-09T10:59:37Z</time>
      </trkpt>
      <trkpt lat="47.1416" lon="-1.50328">
        <ele>47.2</ele>
        <time>2016-01-09T10:59:40Z</time>
      </trkpt>
      <trkpt lat="47.14157" lon="-1.50294">
        <ele>47.6</ele>
        <time>2016-01-09T10:59:44Z</time>
      </trkpt>
      <trkpt lat="47.14157" lon="-1.5026">
        <ele>48</ele>
        <time>2016-01-09T10:59:48Z</time>
      </trkpt>
      <trkpt lat="47.14156" lon="-1.50225">
        <ele>48.5</ele>
        <time>2016-01-09T10:59:52Z</time>
      </trkpt>
      <trkpt lat="47.14152" lon="-1.50198">
        <ele>48.6</ele>
        <time>2016-01-09T10:59:55Z</time>
      </trkpt>
      <trkpt lat="47.14147" lon="-1.50165">
        <ele>48.6</ele>
        <time>2016-01-09T10:59:59Z</time>
      </trkpt>
      <trkpt lat="47.1414" lon="-1.50132">
        <ele>48.9</ele>
        <time>2016-01-09T11:00:03Z</time>
      </trkpt>
      <trkpt lat="47.14134" lon="-1.50099">
        <ele>48.9</ele>
        <time>2016-01-09T11:00:07Z</time>
      </trkpt>
      <trkpt lat="47.14128" lon="-1.50067">
        <ele>48.6</ele>
        <time>2016-01-09T11:00:11Z</time>
      </trkpt>
      <trkpt lat="47.14122" lon="-1.50042">
        <ele>48.6</ele>
        <time>2016-01-09T11:00:14Z</time>
      </trkpt>
      <trkpt lat="47.14119" lon="-1.50011">
        <ele>48.8</ele>
        <time>2016-01-09T11:00:18Z</time>
      </trkpt>
      <trkpt lat="47.14114" lon="-1.49979">
        <ele>49</ele>
        <time>2016-01-09T11:00:22Z</time>
      </trkpt>
      <trkpt lat="47.14108" lon="-1.49952">
        <ele>49.4</ele>
        <time>2016-01-09T11:00:25Z</time>
      </trkpt>
      <trkpt lat="47.14103" lon="-1.49926">
        <ele>49.6</ele>
        <time>2016-01-09T11:00:28Z</time>
      </trkpt>
      <trkpt lat="47.14099" lon="-1.49892">
        <ele>50</ele>
        <time>2016-01-09T11:00:32Z</time>
      </trkpt>
      <trkpt lat="47.14095" lon="-1.49857">
        <ele>50.1</ele>
        <time>2016-01-09T11:00:36Z</time>
      </trkpt>
      <trkpt lat="47.14094" lon="-1.49823">
        <ele>50</ele>
        <time>2016-01-09T11:00:40Z</time>
      </trkpt>
      <trkpt lat="47.14093" lon="-1.49796">
        <ele>50.1</ele>
        <time>2016-01-09T11:00:43Z</time>
      </trkpt>
      <trkpt lat="47.14093" lon="-1.49768">
        <ele>50.3</ele>
        <time>2016-01-09T11:00:46Z</time>
      </trkpt>
      <trkpt lat="47.14095" lon="-1.49742">
        <ele>50.3</ele>
        <time>2016-01-09T11:00:49Z</time>
      </trkpt>
      <trkpt lat="47.14096" lon="-1.49706">
        <ele>50.4</ele>
        <time>2016-01-09T11:00:53Z</time>
      </trkpt>
      <trkpt lat="47.14098" lon="-1.49673">
        <ele>50.3</ele>
        <time>2016-01-09T11:00:57Z</time>
      </trkpt>
      <trkpt lat="47.14105" lon="-1.49643">
        <ele>50.5</ele>
        <time>2016-01-09T11:01:01Z</time>
      </trkpt>
      <trkpt lat="47.14108" lon="-1.49609">
        <ele>50.6</ele>
        <time>2016-01-09T11:01:05Z</time>
      </trkpt>
      <trkpt lat="47.14111" lon="-1.49578">
        <ele>50.5</ele>
        <time>2016-01-09T11:01:09Z</time>
      </trkpt>
      <trkpt lat="47.1411" lon="-1.49544">
        <ele>50.5</ele>
        <time>2016-01-09T11:01:13Z</time>
      </trkpt>
      <trkpt lat="47.1411" lon="-1.4951">
        <ele>50.4</ele>
        <time>2016-01-09T11:01:17Z</time>
      </trkpt>
      <trkpt lat="47.14108" lon="-1.49477">
        <ele>50.4</ele>
        <time>2016-01-09T11:01:21Z</time>
      </trkpt>
      <trkpt lat="47.14106" lon="-1.4945">
        <ele>50.4</ele>
        <time>2016-01-09T11:01:24Z</time>
      </trkpt>
      <trkpt lat="47.14104" lon="-1.49421">
        <ele>50.4</ele>
        <time>2016-01-09T11:01:27Z</time>
      </trkpt>
      <trkpt lat="47.14102" lon="-1.49393">
        <ele>50.4</ele>
        <time>2016-01-09T11:01:30Z</time>
      </trkpt>
      <trkpt lat="47.14102" lon="-1.49366">
        <ele>50.3</ele>
        <time>2016-01-09T11:01:33Z</time>
      </trkpt>
      <trkpt lat="47.14102" lon="-1.49338">
        <ele>49.9</ele>
        <time>2016-01-09T11:01:36Z</time>
      </trkpt>
      <trkpt lat="47.14097" lon="-1.49308">
        <ele>50</ele>
        <time>2016-01-09T11:01:39Z</time>
      </trkpt>
      <trkpt lat="47.14095" lon="-1.49281">
        <ele>49.7</ele>
        <time>2016-01-09T11:01:42Z</time>
      </trkpt>
      <trkpt lat="47.14097" lon="-1.49247">
        <ele>49.4</ele>
        <time>2016-01-09T11:01:46Z</time>
      </trkpt>
      <trkpt lat="47.14101" lon="-1.49215">
        <ele>48.9</ele>
        <time>2016-01-09T11:01:50Z</time>
      </trkpt>
      <trkpt lat="47.141" lon="-1.49188">
        <ele>49.1</ele>
        <time>2016-01-09T11:01:53Z</time>
      </trkpt>
      <trkpt lat="47.14102" lon="-1.4916">
        <ele>49.3</ele>
        <time>2016-01-09T11:01:56Z</time>
      </trkpt>
      <trkpt lat="47.14101" lon="-1.49133">
        <ele>49.1</ele>
        <time>2016-01-09T11:01:59Z</time>
      </trkpt>
      <trkpt lat="47.14101" lon="-1.49098">
        <ele>49.5</ele>
        <time>2016-01-09T11:02:03Z</time>
      </trkpt>
      <trkpt lat="47.14104" lon="-1.49067">
        <ele>49.6</ele>
        <time>2016-01-09T11:02:07Z</time>
      </trkpt>
      <trkpt lat="47.14101" lon="-1.49039">
        <ele>49.7</ele>
        <time>2016-01-09T11:02:10Z</time>
      </trkpt>
      <trkpt lat="47.14094" lon="-1.49013">
        <ele>50</ele>
        <time>2016-01-09T11:02:13Z</time>
      </trkpt>
      <trkpt lat="47.14084" lon="-1.48983">
        <ele>50.3</ele>
        <time>2016-01-09T11:02:16Z</time>
      </trkpt>
      <trkpt lat="47.14075" lon="-1.48955">
        <ele>51</ele>
        <time>2016-01-09T11:02:19Z</time>
      </trkpt>
      <trkpt lat="47.14069" lon="-1.48929">
        <ele>51.4</ele>
        <time>2016-01-09T11:02:22Z</time>
      </trkpt>
      <trkpt lat="47.14061" lon="-1.48896">
        <ele>51.6</ele>
        <time>2016-01-09T11:02:26Z</time>
      </trkpt>
      <trkpt lat="47.14055" lon="-1.48863">
        <ele>51.6</ele>
        <time>2016-01-09T11:02:30Z</time>
      </trkpt>
      <trkpt lat="47.14047" lon="-1.48839">
        <ele>51.6</ele>
        <time>2016-01-09T11:02:33Z</time>
      </trkpt>
      <trkpt lat="47.1404" lon="-1.48806">
        <ele>51.6</ele>
        <time>2016-01-09T11:02:37Z</time>
      </trkpt>
      <trkpt lat="47.14034" lon="-1.48773">
        <ele>51.8</ele>
        <time>2016-01-09T11:02:41Z</time>
      </trkpt>
      <trkpt lat="47.14028" lon="-1.48742">
        <ele>51.9</ele>
        <time>2016-01-09T11:02:45Z</time>
      </trkpt>
      <trkpt lat="47.1402" lon="-1.4871">
        <ele>52.2</ele>
        <time>2016-01-09T11:02:49Z</time>
      </trkpt>
      <trkpt lat="47.14014" lon="-1.48678">
        <ele>52.3</ele>
        <time>2016-01-09T11:02:53Z</time>
      </trkpt>
      <trkpt lat="47.1401" lon="-1.48647">
        <ele>52.3</ele>
        <time>2016-01-09T11:02:57Z</time>
      </trkpt>
      <trkpt lat="47.14011" lon="-1.48621">
        <ele>52.4</ele>
        <time>2016-01-09T11:03:00Z</time>
      </trkpt>
      <trkpt lat="47.14007" lon="-1.48594">
        <ele>52.3</ele>
        <time>2016-01-09T11:03:03Z</time>
      </trkpt>
      <trkpt lat="47.14003" lon="-1.48561">
        <ele>51.9</ele>
        <time>2016-01-09T11:03:07Z</time>
      </trkpt>
      <trkpt lat="47.13999" lon="-1.48528">
        <ele>51.7</ele>
        <time>2016-01-09T11:03:11Z</time>
      </trkpt>
      <trkpt lat="47.13994" lon="-1.48494">
        <ele>51.6</ele>
        <time>2016-01-09T11:03:15Z</time>
      </trkpt>
      <trkpt lat="47.13993" lon="-1.48468">
        <ele>51.1</ele>
        <time>2016-01-09T11:03:18Z</time>
      </trkpt>
      <trkpt lat="47.13989" lon="-1.48439">
        <ele>50.5</ele>
        <time>2016-01-09T11:03:21Z</time>
      </trkpt>
      <trkpt lat="47.13987" lon="-1.48413">
        <ele>50.1</ele>
        <time>2016-01-09T11:03:24Z</time>
      </trkpt>
      <trkpt lat="47.13988" lon="-1.4838">
        <ele>49.9</ele>
        <time>2016-01-09T11:03:28Z</time>
      </trkpt>
      <trkpt lat="47.13989" lon="-1.48348">
        <ele>49.6</ele>
        <time>2016-01-09T11:03:32Z</time>
      </trkpt>
      <trkpt lat="47.13988" lon="-1.48316">
        <ele>49.6</ele>
        <time>2016-01-09T11:03:36Z</time>
      </trkpt>
      <trkpt lat="47.13988" lon="-1.48283">
        <ele>49.5</ele>
        <time>2016-01-09T11:03:40Z</time>
      </trkpt>
      <trkpt lat="47.13988" lon="-1.4825">
        <ele>49.5</ele>
        <time>2016-01-09T11:03:44Z</time>
      </trkpt>
      <trkpt lat="47.13989" lon="-1.48216">
        <ele>49.8</ele>
        <time>2016-01-09T11:03:48Z</time>
      </trkpt>
      <trkpt lat="47.13992" lon="-1.48183">
        <ele>50</ele>
        <time>2016-01-09T11:03:52Z</time>
      </trkpt>
      <trkpt lat="47.13994" lon="-1.4815">
        <ele>50</ele>
        <time>2016-01-09T11:03:56Z</time>
      </trkpt>
      <trkpt lat="47.13991" lon="-1.48123">
        <ele>49.7</ele>
        <time>2016-01-09T11:03:59Z</time>
      </trkpt>
      <trkpt lat="47.13992" lon="-1.48089">
        <ele>49.5</ele>
        <time>2016-01-09T11:04:03Z</time>
      </trkpt>
      <trkpt lat="47.13992" lon="-1.48057">
        <ele>50.2</ele>
        <time>2016-01-09T11:04:07Z</time>
      </trkpt>
      <trkpt lat="47.1399" lon="-1.48023">
        <ele>50.3</ele>
        <time>2016-01-09T11:04:11Z</time>
      </trkpt>
      <trkpt lat="47.13985" lon="-1.47994">
        <ele>50.6</ele>
        <time>2016-01-09T11:04:14Z</time>
      </trkpt>
      <trkpt lat="47.13979" lon="-1.47966">
        <ele>50.8</ele>
        <time>2016-01-09T11:04:17Z</time>
      </trkpt>
      <trkpt lat="47.13972" lon="-1.47938">
        <ele>51.2</ele>
        <time>2016-01-09T11:04:20Z</time>
      </trkpt>
      <trkpt lat="47.13964" lon="-1.47911">
        <ele>51.5</ele>
        <time>2016-01-09T11:04:23Z</time>
      </trkpt>
      <trkpt lat="47.13955" lon="-1.47887">
        <ele>51.6</ele>
        <time>2016-01-09T11:04:26Z</time>
      </trkpt>
      <trkpt lat="47.13947" lon="-1.47855">
        <ele>51.4</ele>
        <time>2016-01-09T11:04:30Z</time>
      </trkpt>
      <trkpt lat="47.13937" lon="-1.47824">
        <ele>51.4</ele>
        <time>2016-01-09T11:04:34Z</time>
      </trkpt>
      <trkpt lat="47.13929" lon="-1.47794">
        <ele>51.2</ele>
        <time>2016-01-09T11:04:38Z</time>
      </trkpt>
      <trkpt lat="47.1392" lon="-1.47764">
        <ele>50.9</ele>
        <time>2016-01-09T11:04:42Z</time>
      </trkpt>
      <trkpt lat="47.13912" lon="-1.47733">
        <ele>50.7</ele>
        <time>2016-01-09T11:04:46Z</time>
      </trkpt>
      <trkpt lat="47.13906" lon="-1.47703">
        <ele>50</ele>
        <time>2016-01-09T11:04:50Z</time>
      </trkpt>
      <trkpt lat="47.13898" lon="-1.47675">
        <ele>50.1</ele>
        <time>2016-01-09T11:04:54Z</time>
      </trkpt>
      <trkpt lat="47.13891" lon="-1.47647">
        <ele>50.3</ele>
        <time>2016-01-09T11:04:58Z</time>
      </trkpt>
      <trkpt lat="47.13884" lon="-1.47619">
        <ele>50.6</ele>
        <time>2016-01-09T11:05:02Z</time>
      </trkpt>
      <trkpt lat="47.13876" lon="-1.47589">
        <ele>51.3</ele>
        <time>2016-01-09T11:05:06Z</time>
      </trkpt>
      <trkpt lat="47.13866" lon="-1.47557">
        <ele>51.5</ele>
        <time>2016-01-09T11:05:10Z</time>
      </trkpt>
      <trkpt lat="47.13857" lon="-1.47526">
        <ele>51.8</ele>
        <time>2016-01-09T11:05:14Z</time>
      </trkpt>
      <trkpt lat="47.13849" lon="-1.47496">
        <ele>52.3</ele>
        <time>2016-01-09T11:05:18Z</time>
      </trkpt>
      <trkpt lat="47.1384" lon="-1.47464">
        <ele>52.4</ele>
        <time>2016-01-09T11:05:22Z</time>
      </trkpt>
      <trkpt lat="47.13832" lon="-1.47432">
        <ele>52.2</ele>
        <time>2016-01-09T11:05:26Z</time>
      </trkpt>
      <trkpt lat="47.13824" lon="-1.47406">
        <ele>52.2</ele>
        <time>2016-01-09T11:05:29Z</time>
      </trkpt>
      <trkpt lat="47.13814" lon="-1.47376">
        <ele>52.1</ele>
        <time>2016-01-09T11:05:33Z</time>
      </trkpt>
      <trkpt lat="47.13806" lon="-1.47351">
        <ele>52.5</ele>
        <time>2016-01-09T11:05:36Z</time>
      </trkpt>
      <trkpt lat="47.13798" lon="-1.47324">
        <ele>52.7</ele>
        <time>2016-01-09T11:05:39Z</time>
      </trkpt>
      <trkpt lat="47.1379" lon="-1.47301">
        <ele>53.1</ele>
        <time>2016-01-09T11:05:42Z</time>
      </trkpt>
      <trkpt lat="47.13784" lon="-1.47276">
        <ele>53.5</ele>
        <time>2016-01-09T11:05:45Z</time>
      </trkpt>
      <trkpt lat="47.13778" lon="-1.47243">
        <ele>54.3</ele>
        <time>2016-01-09T11:05:49Z</time>
      </trkpt>
      <trkpt lat="47.13772" lon="-1.47209">
        <ele>54.6</ele>
        <time>2016-01-09T11:05:53Z</time>
      </trkpt>
      <trkpt lat="47.1377" lon="-1.47174">
        <ele>55</ele>
        <time>2016-01-09T11:05:57Z</time>
      </trkpt>
      <trkpt lat="47.13771" lon="-1.4714">
        <ele>55.7</ele>
        <time>2016-01-09T11:06:01Z</time>
      </trkpt>
      <trkpt lat="47.13773" lon="-1.47113">
        <ele>56</ele>
        <time>2016-01-09T11:06:04Z</time>
      </trkpt>
      <trkpt lat="47.13775" lon="-1.47086">
        <ele>56.3</ele>
        <time>2016-01-09T11:06:07Z</time>
      </trkpt>
      <trkpt lat="47.13775" lon="-1.47059">
        <ele>56.7</ele>
        <time>2016-01-09T11:06:10Z</time>
      </trkpt>
      <trkpt lat="47.13776" lon="-1.47032">
        <ele>57.1</ele>
        <time>2016-01-09T11:06:13Z</time>
      </trkpt>
      <trkpt lat="47.13772" lon="-1.47003">
        <ele>57.5</ele>
        <time>2016-01-09T11:06:16Z</time>
      </trkpt>
      <trkpt lat="47.13771" lon="-1.46976">
        <ele>57.9</ele>
        <time>2016-01-09T11:06:19Z</time>
      </trkpt>
      <trkpt lat="47.13766" lon="-1.46941">
        <ele>58</ele>
        <time>2016-01-09T11:06:23Z</time>
      </trkpt>
      <trkpt lat="47.1376" lon="-1.46908">
        <ele>58</ele>
        <time>2016-01-09T11:06:27Z</time>
      </trkpt>
      <trkpt lat="47.13758" lon="-1.46875">
        <ele>58.3</ele>
        <time>2016-01-09T11:06:31Z</time>
      </trkpt>
      <trkpt lat="47.13754" lon="-1.46845">
        <ele>58.9</ele>
        <time>2016-01-09T11:06:35Z</time>
      </trkpt>
      <trkpt lat="47.13748" lon="-1.46815">
        <ele>59.8</ele>
        <time>2016-01-09T11:06:39Z</time>
      </trkpt>
      <trkpt lat="47.13744" lon="-1.46785">
        <ele>61</ele>
        <time>2016-01-09T11:06:44Z</time>
      </trkpt>
      <trkpt lat="47.13748" lon="-1.46759">
        <ele>61.8</ele>
        <time>2016-01-09T11:06:57Z</time>
      </trkpt>
      <trkpt lat="47.1377" lon="-1.46752">
        <ele>61.8</ele>
        <time>2016-01-09T11:07:01Z</time>
      </trkpt>
      <trkpt lat="47.13789" lon="-1.46749">
        <ele>61.6</ele>
        <time>2016-01-09T11:07:04Z</time>
      </trkpt>
      <trkpt lat="47.13809" lon="-1.46747">
        <ele>62.1</ele>
        <time>2016-01-09T11:07:07Z</time>
      </trkpt>
      <trkpt lat="47.13829" lon="-1.46745">
        <ele>62.5</ele>
        <time>2016-01-09T11:07:10Z</time>
      </trkpt>
      <trkpt lat="47.13849" lon="-1.4674">
        <ele>62.6</ele>
        <time>2016-01-09T11:07:13Z</time>
      </trkpt>
      <trkpt lat="47.1387" lon="-1.46737">
        <ele>62.4</ele>
        <time>2016-01-09T11:07:16Z</time>
      </trkpt>
      <trkpt lat="47.13891" lon="-1.46732">
        <ele>61.4</ele>
        <time>2016-01-09T11:07:19Z</time>
      </trkpt>
      <trkpt lat="47.13913" lon="-1.4673">
        <ele>60.3</ele>
        <time>2016-01-09T11:07:22Z</time>
      </trkpt>
      <trkpt lat="47.13936" lon="-1.46728">
        <ele>59.3</ele>
        <time>2016-01-09T11:07:25Z</time>
      </trkpt>
      <trkpt lat="47.13958" lon="-1.46726">
        <ele>59.1</ele>
        <time>2016-01-09T11:07:28Z</time>
      </trkpt>
      <trkpt lat="47.13981" lon="-1.46728">
        <ele>58</ele>
        <time>2016-01-09T11:07:31Z</time>
      </trkpt>
      <trkpt lat="47.14004" lon="-1.46729">
        <ele>56.5</ele>
        <time>2016-01-09T11:07:34Z</time>
      </trkpt>
      <trkpt lat="47.14028" lon="-1.46733">
        <ele>54.7</ele>
        <time>2016-01-09T11:07:37Z</time>
      </trkpt>
      <trkpt lat="47.14052" lon="-1.46736">
        <ele>53</ele>
        <time>2016-01-09T11:07:40Z</time>
      </trkpt>
      <trkpt lat="47.14078" lon="-1.46741">
        <ele>50</ele>
        <time>2016-01-09T11:07:43Z</time>
      </trkpt>
      <trkpt lat="47.14103" lon="-1.46744">
        <ele>48.1</ele>
        <time>2016-01-09T11:07:46Z</time>
      </trkpt>
      <trkpt lat="47.14129" lon="-1.46747">
        <ele>44.3</ele>
        <time>2016-01-09T11:07:49Z</time>
      </trkpt>
      <trkpt lat="47.14155" lon="-1.4675">
        <ele>40.5</ele>
        <time>2016-01-09T11:07:52Z</time>
      </trkpt>
      <trkpt lat="47.14174" lon="-1.46754">
        <ele>38.4</ele>
        <time>2016-01-09T11:07:54Z</time>
      </trkpt>
      <trkpt lat="47.14192" lon="-1.46757">
        <ele>36.8</ele>
        <time>2016-01-09T11:07:56Z</time>
      </trkpt>
      <trkpt lat="47.14219" lon="-1.46763">
        <ele>34</ele>
        <time>2016-01-09T11:07:59Z</time>
      </trkpt>
      <trkpt lat="47.14238" lon="-1.46765">
        <ele>32</ele>
        <time>2016-01-09T11:08:01Z</time>
      </trkpt>
      <trkpt lat="47.14256" lon="-1.46766">
        <ele>29.6</ele>
        <time>2016-01-09T11:08:03Z</time>
      </trkpt>
      <trkpt lat="47.14275" lon="-1.4677">
        <ele>28</ele>
        <time>2016-01-09T11:08:05Z</time>
      </trkpt>
      <trkpt lat="47.14293" lon="-1.46774">
        <ele>26.7</ele>
        <time>2016-01-09T11:08:07Z</time>
      </trkpt>
      <trkpt lat="47.1432" lon="-1.46779">
        <ele>24.9</ele>
        <time>2016-01-09T11:08:10Z</time>
      </trkpt>
      <trkpt lat="47.14345" lon="-1.46781">
        <ele>23.3</ele>
        <time>2016-01-09T11:08:13Z</time>
      </trkpt>
      <trkpt lat="47.1437" lon="-1.46787">
        <ele>22.5</ele>
        <time>2016-01-09T11:08:16Z</time>
      </trkpt>
      <trkpt lat="47.14394" lon="-1.46792">
        <ele>22.5</ele>
        <time>2016-01-09T11:08:19Z</time>
      </trkpt>
      <trkpt lat="47.14418" lon="-1.46804">
        <ele>25.2</ele>
        <time>2016-01-09T11:08:22Z</time>
      </trkpt>
      <trkpt lat="47.14435" lon="-1.46813">
        <ele>26.2</ele>
        <time>2016-01-09T11:08:24Z</time>
      </trkpt>
      <trkpt lat="47.14453" lon="-1.46823">
        <ele>26.9</ele>
        <time>2016-01-09T11:08:26Z</time>
      </trkpt>
      <trkpt lat="47.14477" lon="-1.46835">
        <ele>26</ele>
        <time>2016-01-09T11:08:29Z</time>
      </trkpt>
      <trkpt lat="47.145" lon="-1.46847">
        <ele>24.7</ele>
        <time>2016-01-09T11:08:32Z</time>
      </trkpt>
      <trkpt lat="47.14517" lon="-1.46858">
        <ele>23.5</ele>
        <time>2016-01-09T11:08:34Z</time>
      </trkpt>
      <trkpt lat="47.14541" lon="-1.46868">
        <ele>21.9</ele>
        <time>2016-01-09T11:08:37Z</time>
      </trkpt>
      <trkpt lat="47.1456" lon="-1.46875">
        <ele>21.2</ele>
        <time>2016-01-09T11:08:39Z</time>
      </trkpt>
      <trkpt lat="47.14579" lon="-1.46881">
        <ele>20.3</ele>
        <time>2016-01-09T11:08:41Z</time>
      </trkpt>
      <trkpt lat="47.14599" lon="-1.46877">
        <ele>19.9</ele>
        <time>2016-01-09T11:08:43Z</time>
      </trkpt>
      <trkpt lat="47.14616" lon="-1.46872">
        <ele>19</ele>
        <time>2016-01-09T11:08:45Z</time>
      </trkpt>
      <trkpt lat="47.14634" lon="-1.46868">
        <ele>18.2</ele>
        <time>2016-01-09T11:08:47Z</time>
      </trkpt>
      <trkpt lat="47.14653" lon="-1.46865">
        <ele>17.1</ele>
        <time>2016-01-09T11:08:49Z</time>
      </trkpt>
      <trkpt lat="47.14672" lon="-1.46864">
        <ele>16</ele>
        <time>2016-01-09T11:08:51Z</time>
      </trkpt>
      <trkpt lat="47.14697" lon="-1.46863">
        <ele>15.3</ele>
        <time>2016-01-09T11:08:54Z</time>
      </trkpt>
      <trkpt lat="47.14716" lon="-1.46863">
        <ele>14.8</ele>
        <time>2016-01-09T11:08:56Z</time>
      </trkpt>
      <trkpt lat="47.14735" lon="-1.46863">
        <ele>14.5</ele>
        <time>2016-01-09T11:08:58Z</time>
      </trkpt>
      <trkpt lat="47.14754" lon="-1.46863">
        <ele>14.6</ele>
        <time>2016-01-09T11:09:00Z</time>
      </trkpt>
      <trkpt lat="47.1478" lon="-1.46866">
        <ele>14.8</ele>
        <time>2016-01-09T11:09:03Z</time>
      </trkpt>
      <trkpt lat="47.14798" lon="-1.46866">
        <ele>15.1</ele>
        <time>2016-01-09T11:09:05Z</time>
      </trkpt>
      <trkpt lat="47.14817" lon="-1.46866">
        <ele>15.3</ele>
        <time>2016-01-09T11:09:07Z</time>
      </trkpt>
      <trkpt lat="47.14843" lon="-1.46867">
        <ele>13.9</ele>
        <time>2016-01-09T11:09:10Z</time>
      </trkpt>
      <trkpt lat="47.14868" lon="-1.46865">
        <ele>12.7</ele>
        <time>2016-01-09T11:09:13Z</time>
      </trkpt>
      <trkpt lat="47.14891" lon="-1.46867">
        <ele>11.5</ele>
        <time>2016-01-09T11:09:16Z</time>
      </trkpt>
      <trkpt lat="47.1491" lon="-1.46861">
        <ele>8.7</ele>
        <time>2016-01-09T11:09:23Z</time>
      </trkpt>
      <trkpt lat="47.14934" lon="-1.4686">
        <ele>7.7</ele>
        <time>2016-01-09T11:09:28Z</time>
      </trkpt>
      <trkpt lat="47.14953" lon="-1.46858">
        <ele>7.9</ele>
        <time>2016-01-09T11:09:31Z</time>
      </trkpt>
      <trkpt lat="47.14976" lon="-1.46855">
        <ele>8.1</ele>
        <time>2016-01-09T11:09:34Z</time>
      </trkpt>
      <trkpt lat="47.14998" lon="-1.46854">
        <ele>8.4</ele>
        <time>2016-01-09T11:09:37Z</time>
      </trkpt>
      <trkpt lat="47.15018" lon="-1.46852">
        <ele>10</ele>
        <time>2016-01-09T11:09:40Z</time>
      </trkpt>
      <trkpt lat="47.15037" lon="-1.46853">
        <ele>11</ele>
        <time>2016-01-09T11:09:43Z</time>
      </trkpt>
      <trkpt lat="47.15057" lon="-1.46853">
        <ele>9.4</ele>
        <time>2016-01-09T11:09:46Z</time>
      </trkpt>
      <trkpt lat="47.15078" lon="-1.46852">
        <ele>8.1</ele>
        <time>2016-01-09T11:09:49Z</time>
      </trkpt>
      <trkpt lat="47.15097" lon="-1.4685">
        <ele>8.3</ele>
        <time>2016-01-09T11:09:52Z</time>
      </trkpt>
      <trkpt lat="47.15116" lon="-1.46849">
        <ele>9.3</ele>
        <time>2016-01-09T11:09:55Z</time>
      </trkpt>
      <trkpt lat="47.15137" lon="-1.46847">
        <ele>10</ele>
        <time>2016-01-09T11:09:58Z</time>
      </trkpt>
      <trkpt lat="47.15157" lon="-1.46847">
        <ele>9.7</ele>
        <time>2016-01-09T11:10:01Z</time>
      </trkpt>
      <trkpt lat="47.15177" lon="-1.46845">
        <ele>9.4</ele>
        <time>2016-01-09T11:10:04Z</time>
      </trkpt>
      <trkpt lat="47.15198" lon="-1.46846">
        <ele>10</ele>
        <time>2016-01-09T11:10:07Z</time>
      </trkpt>
      <trkpt lat="47.1522" lon="-1.46845">
        <ele>9.3</ele>
        <time>2016-01-09T11:10:10Z</time>
      </trkpt>
      <trkpt lat="47.1524" lon="-1.4684">
        <ele>10</ele>
        <time>2016-01-09T11:10:13Z</time>
      </trkpt>
      <trkpt lat="47.15259" lon="-1.46835">
        <ele>10.8</ele>
        <time>2016-01-09T11:10:16Z</time>
      </trkpt>
      <trkpt lat="47.15278" lon="-1.46826">
        <ele>12.7</ele>
        <time>2016-01-09T11:10:19Z</time>
      </trkpt>
      <trkpt lat="47.15297" lon="-1.46818">
        <ele>12.1</ele>
        <time>2016-01-09T11:10:22Z</time>
      </trkpt>
      <trkpt lat="47.15315" lon="-1.46809">
        <ele>12.6</ele>
        <time>2016-01-09T11:10:25Z</time>
      </trkpt>
      <trkpt lat="47.15334" lon="-1.468">
        <ele>12.6</ele>
        <time>2016-01-09T11:10:28Z</time>
      </trkpt>
      <trkpt lat="47.15352" lon="-1.46792">
        <ele>12.7</ele>
        <time>2016-01-09T11:10:31Z</time>
      </trkpt>
      <trkpt lat="47.1537" lon="-1.4678">
        <ele>12.8</ele>
        <time>2016-01-09T11:10:34Z</time>
      </trkpt>
      <trkpt lat="47.15388" lon="-1.46769">
        <ele>13.8</ele>
        <time>2016-01-09T11:10:37Z</time>
      </trkpt>
      <trkpt lat="47.15409" lon="-1.46755">
        <ele>14.8</ele>
        <time>2016-01-09T11:10:41Z</time>
      </trkpt>
      <trkpt lat="47.15428" lon="-1.4674">
        <ele>15.1</ele>
        <time>2016-01-09T11:10:45Z</time>
      </trkpt>
      <trkpt lat="47.15448" lon="-1.46725">
        <ele>16</ele>
        <time>2016-01-09T11:10:49Z</time>
      </trkpt>
      <trkpt lat="47.15466" lon="-1.46711">
        <ele>16.2</ele>
        <time>2016-01-09T11:10:53Z</time>
      </trkpt>
      <trkpt lat="47.15484" lon="-1.46698">
        <ele>17.1</ele>
        <time>2016-01-09T11:10:57Z</time>
      </trkpt>
      <trkpt lat="47.15501" lon="-1.46685">
        <ele>17.6</ele>
        <time>2016-01-09T11:11:01Z</time>
      </trkpt>
      <trkpt lat="47.15518" lon="-1.46672">
        <ele>18.7</ele>
        <time>2016-01-09T11:11:05Z</time>
      </trkpt>
      <trkpt lat="47.15535" lon="-1.46662">
        <ele>19.3</ele>
        <time>2016-01-09T11:11:09Z</time>
      </trkpt>
      <trkpt lat="47.15554" lon="-1.46652">
        <ele>19.7</ele>
        <time>2016-01-09T11:11:13Z</time>
      </trkpt>
      <trkpt lat="47.15572" lon="-1.46644">
        <ele>20.3</ele>
        <time>2016-01-09T11:11:17Z</time>
      </trkpt>
      <trkpt lat="47.15593" lon="-1.46638">
        <ele>22.3</ele>
        <time>2016-01-09T11:11:22Z</time>
      </trkpt>
      <trkpt lat="47.15615" lon="-1.46632">
        <ele>23.9</ele>
        <time>2016-01-09T11:11:27Z</time>
      </trkpt>
      <trkpt lat="47.15635" lon="-1.4663">
        <ele>24.4</ele>
        <time>2016-01-09T11:11:31Z</time>
      </trkpt>
      <trkpt lat="47.15655" lon="-1.46629">
        <ele>23.7</ele>
        <time>2016-01-09T11:11:35Z</time>
      </trkpt>
      <trkpt lat="47.15675" lon="-1.46628">
        <ele>23.2</ele>
        <time>2016-01-09T11:11:39Z</time>
      </trkpt>
      <trkpt lat="47.15698" lon="-1.46628">
        <ele>23.2</ele>
        <time>2016-01-09T11:11:44Z</time>
      </trkpt>
      <trkpt lat="47.1572" lon="-1.46625">
        <ele>22.9</ele>
        <time>2016-01-09T11:11:49Z</time>
      </trkpt>
      <trkpt lat="47.15739" lon="-1.46623">
        <ele>22.8</ele>
        <time>2016-01-09T11:11:53Z</time>
      </trkpt>
      <trkpt lat="47.15757" lon="-1.46622">
        <ele>25.8</ele>
        <time>2016-01-09T11:11:57Z</time>
      </trkpt>
      <trkpt lat="47.15775" lon="-1.46619">
        <ele>26.8</ele>
        <time>2016-01-09T11:12:01Z</time>
      </trkpt>
      <trkpt lat="47.15796" lon="-1.46618">
        <ele>26.1</ele>
        <time>2016-01-09T11:12:05Z</time>
      </trkpt>
      <trkpt lat="47.15816" lon="-1.46617">
        <ele>27.2</ele>
        <time>2016-01-09T11:12:09Z</time>
      </trkpt>
      <trkpt lat="47.15837" lon="-1.46616">
        <ele>26.9</ele>
        <time>2016-01-09T11:12:13Z</time>
      </trkpt>
      <trkpt lat="47.15858" lon="-1.46616">
        <ele>26</ele>
        <time>2016-01-09T11:12:17Z</time>
      </trkpt>
      <trkpt lat="47.15879" lon="-1.46614">
        <ele>25.6</ele>
        <time>2016-01-09T11:12:21Z</time>
      </trkpt>
      <trkpt lat="47.159" lon="-1.46616">
        <ele>25.8</ele>
        <time>2016-01-09T11:12:25Z</time>
      </trkpt>
      <trkpt lat="47.15922" lon="-1.46619">
        <ele>25.9</ele>
        <time>2016-01-09T11:12:29Z</time>
      </trkpt>
      <trkpt lat="47.15944" lon="-1.46623">
        <ele>26.8</ele>
        <time>2016-01-09T11:12:33Z</time>
      </trkpt>
      <trkpt lat="47.15966" lon="-1.46628">
        <ele>28.4</ele>
        <time>2016-01-09T11:12:37Z</time>
      </trkpt>
      <trkpt lat="47.15985" lon="-1.46634">
        <ele>29.9</ele>
        <time>2016-01-09T11:12:41Z</time>
      </trkpt>
      <trkpt lat="47.16007" lon="-1.46644">
        <ele>29.3</ele>
        <time>2016-01-09T11:12:45Z</time>
      </trkpt>
      <trkpt lat="47.16026" lon="-1.46654">
        <ele>30.3</ele>
        <time>2016-01-09T11:12:49Z</time>
      </trkpt>
      <trkpt lat="47.16046" lon="-1.46665">
        <ele>31.2</ele>
        <time>2016-01-09T11:12:53Z</time>
      </trkpt>
      <trkpt lat="47.16066" lon="-1.46677">
        <ele>31.8</ele>
        <time>2016-01-09T11:12:57Z</time>
      </trkpt>
      <trkpt lat="47.16086" lon="-1.46691">
        <ele>31.7</ele>
        <time>2016-01-09T11:13:01Z</time>
      </trkpt>
      <trkpt lat="47.16102" lon="-1.46703">
        <ele>32</ele>
        <time>2016-01-09T11:13:04Z</time>
      </trkpt>
      <trkpt lat="47.1612" lon="-1.46717">
        <ele>31.8</ele>
        <time>2016-01-09T11:13:07Z</time>
      </trkpt>
      <trkpt lat="47.16139" lon="-1.46732">
        <ele>31.9</ele>
        <time>2016-01-09T11:13:10Z</time>
      </trkpt>
      <trkpt lat="47.16159" lon="-1.46746">
        <ele>32.4</ele>
        <time>2016-01-09T11:13:13Z</time>
      </trkpt>
      <trkpt lat="47.1618" lon="-1.4676">
        <ele>32.6</ele>
        <time>2016-01-09T11:13:16Z</time>
      </trkpt>
      <trkpt lat="47.16202" lon="-1.46778">
        <ele>32.2</ele>
        <time>2016-01-09T11:13:19Z</time>
      </trkpt>
      <trkpt lat="47.16225" lon="-1.46794">
        <ele>31.7</ele>
        <time>2016-01-09T11:13:22Z</time>
      </trkpt>
      <trkpt lat="47.16248" lon="-1.46798">
        <ele>32.3</ele>
        <time>2016-01-09T11:13:25Z</time>
      </trkpt>
      <trkpt lat="47.16268" lon="-1.46798">
        <ele>32.2</ele>
        <time>2016-01-09T11:13:28Z</time>
      </trkpt>
      <trkpt lat="47.16284" lon="-1.46818">
        <ele>30.4</ele>
        <time>2016-01-09T11:13:31Z</time>
      </trkpt>
      <trkpt lat="47.16303" lon="-1.46835">
        <ele>29.9</ele>
        <time>2016-01-09T11:13:34Z</time>
      </trkpt>
      <trkpt lat="47.16323" lon="-1.46853">
        <ele>29.4</ele>
        <time>2016-01-09T11:13:37Z</time>
      </trkpt>
      <trkpt lat="47.16344" lon="-1.46873">
        <ele>28.5</ele>
        <time>2016-01-09T11:13:40Z</time>
      </trkpt>
      <trkpt lat="47.16367" lon="-1.46892">
        <ele>26.7</ele>
        <time>2016-01-09T11:13:43Z</time>
      </trkpt>
      <trkpt lat="47.16387" lon="-1.46913">
        <ele>24.6</ele>
        <time>2016-01-09T11:13:46Z</time>
      </trkpt>
      <trkpt lat="47.16402" lon="-1.46941">
        <ele>23.1</ele>
        <time>2016-01-09T11:13:49Z</time>
      </trkpt>
      <trkpt lat="47.16414" lon="-1.46971">
        <ele>21.5</ele>
        <time>2016-01-09T11:13:52Z</time>
      </trkpt>
      <trkpt lat="47.16427" lon="-1.46998">
        <ele>20</ele>
        <time>2016-01-09T11:13:55Z</time>
      </trkpt>
      <trkpt lat="47.16441" lon="-1.47017">
        <ele>19.4</ele>
        <time>2016-01-09T11:13:58Z</time>
      </trkpt>
      <trkpt lat="47.16456" lon="-1.47031">
        <ele>19.3</ele>
        <time>2016-01-09T11:14:01Z</time>
      </trkpt>
      <trkpt lat="47.16474" lon="-1.47046">
        <ele>19.1</ele>
        <time>2016-01-09T11:14:04Z</time>
      </trkpt>
      <trkpt lat="47.16495" lon="-1.4705">
        <ele>19.1</ele>
        <time>2016-01-09T11:14:08Z</time>
      </trkpt>
      <trkpt lat="47.16512" lon="-1.47029">
        <ele>19.4</ele>
        <time>2016-01-09T11:14:12Z</time>
      </trkpt>
      <trkpt lat="47.16524" lon="-1.47007">
        <ele>19.4</ele>
        <time>2016-01-09T11:14:15Z</time>
      </trkpt>
      <trkpt lat="47.16527" lon="-1.46977">
        <ele>19.7</ele>
        <time>2016-01-09T11:14:18Z</time>
      </trkpt>
      <trkpt lat="47.16537" lon="-1.46946">
        <ele>20.1</ele>
        <time>2016-01-09T11:14:22Z</time>
      </trkpt>
      <trkpt lat="47.16546" lon="-1.46916">
        <ele>20.6</ele>
        <time>2016-01-09T11:14:26Z</time>
      </trkpt>
      <trkpt lat="47.1655" lon="-1.46883">
        <ele>21.2</ele>
        <time>2016-01-09T11:14:30Z</time>
      </trkpt>
      <trkpt lat="47.16558" lon="-1.46854">
        <ele>21.5</ele>
        <time>2016-01-09T11:14:34Z</time>
      </trkpt>
      <trkpt lat="47.16566" lon="-1.4683">
        <ele>22.2</ele>
        <time>2016-01-09T11:14:38Z</time>
      </trkpt>
      <trkpt lat="47.16576" lon="-1.46804">
        <ele>22.4</ele>
        <time>2016-01-09T11:14:42Z</time>
      </trkpt>
      <trkpt lat="47.16588" lon="-1.46778">
        <ele>22.6</ele>
        <time>2016-01-09T11:14:46Z</time>
      </trkpt>
      <trkpt lat="47.16602" lon="-1.46754">
        <ele>23.1</ele>
        <time>2016-01-09T11:14:50Z</time>
      </trkpt>
      <trkpt lat="47.16616" lon="-1.46734">
        <ele>23.4</ele>
        <time>2016-01-09T11:14:54Z</time>
      </trkpt>
      <trkpt lat="47.16633" lon="-1.46715">
        <ele>23.5</ele>
        <time>2016-01-09T11:14:58Z</time>
      </trkpt>
      <trkpt lat="47.16654" lon="-1.46714">
        <ele>23.4</ele>
        <time>2016-01-09T11:15:03Z</time>
      </trkpt>
      <trkpt lat="47.16665" lon="-1.46743">
        <ele>22.7</ele>
        <time>2016-01-09T11:15:07Z</time>
      </trkpt>
      <trkpt lat="47.16674" lon="-1.46775">
        <ele>22.3</ele>
        <time>2016-01-09T11:15:11Z</time>
      </trkpt>
      <trkpt lat="47.16683" lon="-1.46798">
        <ele>22.3</ele>
        <time>2016-01-09T11:15:14Z</time>
      </trkpt>
      <trkpt lat="47.16691" lon="-1.46823">
        <ele>22.3</ele>
        <time>2016-01-09T11:15:17Z</time>
      </trkpt>
      <trkpt lat="47.16702" lon="-1.46847">
        <ele>22</ele>
        <time>2016-01-09T11:15:20Z</time>
      </trkpt>
      <trkpt lat="47.16712" lon="-1.4687">
        <ele>21.7</ele>
        <time>2016-01-09T11:15:23Z</time>
      </trkpt>
      <trkpt lat="47.16722" lon="-1.46894">
        <ele>21.2</ele>
        <time>2016-01-09T11:15:26Z</time>
      </trkpt>
      <trkpt lat="47.16732" lon="-1.46916">
        <ele>21.1</ele>
        <time>2016-01-09T11:15:29Z</time>
      </trkpt>
      <trkpt lat="47.16744" lon="-1.46945">
        <ele>21.1</ele>
        <time>2016-01-09T11:15:33Z</time>
      </trkpt>
      <trkpt lat="47.16755" lon="-1.46969">
        <ele>21.2</ele>
        <time>2016-01-09T11:15:36Z</time>
      </trkpt>
      <trkpt lat="47.16765" lon="-1.46992">
        <ele>21.2</ele>
        <time>2016-01-09T11:15:39Z</time>
      </trkpt>
      <trkpt lat="47.16778" lon="-1.47011">
        <ele>21</ele>
        <time>2016-01-09T11:15:42Z</time>
      </trkpt>
      <trkpt lat="47.16794" lon="-1.47028">
        <ele>21</ele>
        <time>2016-01-09T11:15:45Z</time>
      </trkpt>
      <trkpt lat="47.1681" lon="-1.47042">
        <ele>21.3</ele>
        <time>2016-01-09T11:15:48Z</time>
      </trkpt>
      <trkpt lat="47.16831" lon="-1.47055">
        <ele>22.6</ele>
        <time>2016-01-09T11:15:52Z</time>
      </trkpt>
      <trkpt lat="47.16851" lon="-1.47068">
        <ele>22.6</ele>
        <time>2016-01-09T11:15:56Z</time>
      </trkpt>
      <trkpt lat="47.16867" lon="-1.4708">
        <ele>22.8</ele>
        <time>2016-01-09T11:16:00Z</time>
      </trkpt>
      <trkpt lat="47.16885" lon="-1.4706">
        <ele>23.2</ele>
        <time>2016-01-09T11:16:05Z</time>
      </trkpt>
      <trkpt lat="47.16891" lon="-1.47027">
        <ele>24</ele>
        <time>2016-01-09T11:16:09Z</time>
      </trkpt>
      <trkpt lat="47.16897" lon="-1.47">
        <ele>24.4</ele>
        <time>2016-01-09T11:16:12Z</time>
      </trkpt>
      <trkpt lat="47.16899" lon="-1.46973">
        <ele>24.6</ele>
        <time>2016-01-09T11:16:15Z</time>
      </trkpt>
      <trkpt lat="47.16907" lon="-1.46946">
        <ele>25.4</ele>
        <time>2016-01-09T11:16:18Z</time>
      </trkpt>
      <trkpt lat="47.16913" lon="-1.46919">
        <ele>26.1</ele>
        <time>2016-01-09T11:16:21Z</time>
      </trkpt>
      <trkpt lat="47.16921" lon="-1.46886">
        <ele>26.8</ele>
        <time>2016-01-09T11:16:25Z</time>
      </trkpt>
      <trkpt lat="47.16925" lon="-1.46859">
        <ele>27.1</ele>
        <time>2016-01-09T11:16:28Z</time>
      </trkpt>
      <trkpt lat="47.16929" lon="-1.46832">
        <ele>27.3</ele>
        <time>2016-01-09T11:16:31Z</time>
      </trkpt>
      <trkpt lat="47.16935" lon="-1.46806">
        <ele>27.5</ele>
        <time>2016-01-09T11:16:34Z</time>
      </trkpt>
      <trkpt lat="47.16939" lon="-1.46778">
        <ele>27.6</ele>
        <time>2016-01-09T11:16:37Z</time>
      </trkpt>
      <trkpt lat="47.16945" lon="-1.46751">
        <ele>28.2</ele>
        <time>2016-01-09T11:16:40Z</time>
      </trkpt>
      <trkpt lat="47.16952" lon="-1.46718">
        <ele>28.8</ele>
        <time>2016-01-09T11:16:44Z</time>
      </trkpt>
      <trkpt lat="47.16957" lon="-1.46688">
        <ele>29.3</ele>
        <time>2016-01-09T11:16:48Z</time>
      </trkpt>
      <trkpt lat="47.16971" lon="-1.46671">
        <ele>29.6</ele>
        <time>2016-01-09T11:16:52Z</time>
      </trkpt>
      <trkpt lat="47.16989" lon="-1.46693">
        <ele>29.5</ele>
        <time>2016-01-09T11:16:56Z</time>
      </trkpt>
      <trkpt lat="47.17006" lon="-1.46707">
        <ele>29.4</ele>
        <time>2016-01-09T11:16:59Z</time>
      </trkpt>
      <trkpt lat="47.17022" lon="-1.4672">
        <ele>28.6</ele>
        <time>2016-01-09T11:17:02Z</time>
      </trkpt>
      <trkpt lat="47.17042" lon="-1.46736">
        <ele>28.2</ele>
        <time>2016-01-09T11:17:05Z</time>
      </trkpt>
      <trkpt lat="47.17061" lon="-1.46755">
        <ele>27.5</ele>
        <time>2016-01-09T11:17:08Z</time>
      </trkpt>
      <trkpt lat="47.17082" lon="-1.46777">
        <ele>26.7</ele>
        <time>2016-01-09T11:17:11Z</time>
      </trkpt>
      <trkpt lat="47.17102" lon="-1.468">
        <ele>25.7</ele>
        <time>2016-01-09T11:17:14Z</time>
      </trkpt>
      <trkpt lat="47.17125" lon="-1.46817">
        <ele>25.2</ele>
        <time>2016-01-09T11:17:17Z</time>
      </trkpt>
      <trkpt lat="47.17142" lon="-1.46844">
        <ele>25</ele>
        <time>2016-01-09T11:17:20Z</time>
      </trkpt>
      <trkpt lat="47.17157" lon="-1.46867">
        <ele>24.4</ele>
        <time>2016-01-09T11:17:23Z</time>
      </trkpt>
      <trkpt lat="47.1717" lon="-1.4689">
        <ele>24.4</ele>
        <time>2016-01-09T11:17:26Z</time>
      </trkpt>
      <trkpt lat="47.17184" lon="-1.46916">
        <ele>23.7</ele>
        <time>2016-01-09T11:17:29Z</time>
      </trkpt>
      <trkpt lat="47.17197" lon="-1.46944">
        <ele>22.4</ele>
        <time>2016-01-09T11:17:32Z</time>
      </trkpt>
      <trkpt lat="47.17209" lon="-1.46972">
        <ele>21.5</ele>
        <time>2016-01-09T11:17:35Z</time>
      </trkpt>
      <trkpt lat="47.1722" lon="-1.47002">
        <ele>20</ele>
        <time>2016-01-09T11:17:38Z</time>
      </trkpt>
      <trkpt lat="47.1723" lon="-1.47032">
        <ele>19.1</ele>
        <time>2016-01-09T11:17:41Z</time>
      </trkpt>
      <trkpt lat="47.17239" lon="-1.47062">
        <ele>18.4</ele>
        <time>2016-01-09T11:17:44Z</time>
      </trkpt>
      <trkpt lat="47.17246" lon="-1.4709">
        <ele>18.3</ele>
        <time>2016-01-09T11:17:47Z</time>
      </trkpt>
      <trkpt lat="47.17254" lon="-1.47118">
        <ele>18.1</ele>
        <time>2016-01-09T11:17:50Z</time>
      </trkpt>
      <trkpt lat="47.1726" lon="-1.47146">
        <ele>17.5</ele>
        <time>2016-01-09T11:17:53Z</time>
      </trkpt>
      <trkpt lat="47.17267" lon="-1.47172">
        <ele>17.1</ele>
        <time>2016-01-09T11:17:56Z</time>
      </trkpt>
      <trkpt lat="47.17273" lon="-1.47202">
        <ele>16.3</ele>
        <time>2016-01-09T11:17:59Z</time>
      </trkpt>
      <trkpt lat="47.17278" lon="-1.4723">
        <ele>15.2</ele>
        <time>2016-01-09T11:18:02Z</time>
      </trkpt>
      <trkpt lat="47.17285" lon="-1.4726">
        <ele>14.4</ele>
        <time>2016-01-09T11:18:05Z</time>
      </trkpt>
      <trkpt lat="47.1729" lon="-1.47287">
        <ele>13.5</ele>
        <time>2016-01-09T11:18:08Z</time>
      </trkpt>
      <trkpt lat="47.17296" lon="-1.47315">
        <ele>11.8</ele>
        <time>2016-01-09T11:18:11Z</time>
      </trkpt>
      <trkpt lat="47.17301" lon="-1.47344">
        <ele>10.6</ele>
        <time>2016-01-09T11:18:14Z</time>
      </trkpt>
      <trkpt lat="47.1731" lon="-1.47373">
        <ele>9.5</ele>
        <time>2016-01-09T11:18:17Z</time>
      </trkpt>
      <trkpt lat="47.17308" lon="-1.47405">
        <ele>8.6</ele>
        <time>2016-01-09T11:18:20Z</time>
      </trkpt>
      <trkpt lat="47.1731" lon="-1.47437">
        <ele>8</ele>
        <time>2016-01-09T11:18:23Z</time>
      </trkpt>
      <trkpt lat="47.17312" lon="-1.47468">
        <ele>6.8</ele>
        <time>2016-01-09T11:18:26Z</time>
      </trkpt>
      <trkpt lat="47.17313" lon="-1.47498">
        <ele>5.9</ele>
        <time>2016-01-09T11:18:29Z</time>
      </trkpt>
      <trkpt lat="47.17314" lon="-1.47529">
        <ele>5.4</ele>
        <time>2016-01-09T11:18:32Z</time>
      </trkpt>
      <trkpt lat="47.17314" lon="-1.47557">
        <ele>5.2</ele>
        <time>2016-01-09T11:18:35Z</time>
      </trkpt>
      <trkpt lat="47.17313" lon="-1.47588">
        <ele>4.7</ele>
        <time>2016-01-09T11:18:38Z</time>
      </trkpt>
      <trkpt lat="47.17311" lon="-1.47619">
        <ele>4.5</ele>
        <time>2016-01-09T11:18:41Z</time>
      </trkpt>
      <trkpt lat="47.17309" lon="-1.47649">
        <ele>4.4</ele>
        <time>2016-01-09T11:18:44Z</time>
      </trkpt>
      <trkpt lat="47.17307" lon="-1.47677">
        <ele>4.6</ele>
        <time>2016-01-09T11:18:47Z</time>
      </trkpt>
      <trkpt lat="47.17303" lon="-1.47704">
        <ele>4.7</ele>
        <time>2016-01-09T11:18:50Z</time>
      </trkpt>
      <trkpt lat="47.17297" lon="-1.47731">
        <ele>4.5</ele>
        <time>2016-01-09T11:18:53Z</time>
      </trkpt>
      <trkpt lat="47.17293" lon="-1.47759">
        <ele>4.2</ele>
        <time>2016-01-09T11:18:56Z</time>
      </trkpt>
      <trkpt lat="47.17287" lon="-1.47786">
        <ele>3.8</ele>
        <time>2016-01-09T11:18:59Z</time>
      </trkpt>
      <trkpt lat="47.17282" lon="-1.47813">
        <ele>3.3</ele>
        <time>2016-01-09T11:19:02Z</time>
      </trkpt>
      <trkpt lat="47.17277" lon="-1.47842">
        <ele>3.1</ele>
        <time>2016-01-09T11:19:05Z</time>
      </trkpt>
      <trkpt lat="47.17273" lon="-1.4787">
        <ele>2.8</ele>
        <time>2016-01-09T11:19:08Z</time>
      </trkpt>
      <trkpt lat="47.17268" lon="-1.47898">
        <ele>2.3</ele>
        <time>2016-01-09T11:19:11Z</time>
      </trkpt>
      <trkpt lat="47.17264" lon="-1.47928">
        <ele>2.3</ele>
        <time>2016-01-09T11:19:14Z</time>
      </trkpt>
      <trkpt lat="47.17258" lon="-1.47957">
        <ele>1.2</ele>
        <time>2016-01-09T11:19:17Z</time>
      </trkpt>
      <trkpt lat="47.17257" lon="-1.47985">
        <ele>0.5</ele>
        <time>2016-01-09T11:19:20Z</time>
      </trkpt>
      <trkpt lat="47.17256" lon="-1.4802">
        <ele>0.1</ele>
        <time>2016-01-09T11:19:24Z</time>
      </trkpt>
      <trkpt lat="47.17255" lon="-1.48048">
        <ele>0.1</ele>
        <time>2016-01-09T11:19:27Z</time>
      </trkpt>
      <trkpt lat="47.17255" lon="-1.48083">
        <ele>6.4</ele>
        <time>2016-01-09T11:19:31Z</time>
      </trkpt>
      <trkpt lat="47.17256" lon="-1.48116">
        <ele>0.2</ele>
        <time>2016-01-09T11:19:35Z</time>
      </trkpt>
      <trkpt lat="47.17258" lon="-1.48147">
        <ele>0.4</ele>
        <time>2016-01-09T11:19:39Z</time>
      </trkpt>
      <trkpt lat="47.17261" lon="-1.48176">
        <ele>0.7</ele>
        <time>2016-01-09T11:19:43Z</time>
      </trkpt>
      <trkpt lat="47.17263" lon="-1.48204">
        <ele>0.9</ele>
        <time>2016-01-09T11:19:47Z</time>
      </trkpt>
      <trkpt lat="47.17268" lon="-1.4823">
        <ele>1.3</ele>
        <time>2016-01-09T11:19:51Z</time>
      </trkpt>
      <trkpt lat="47.17273" lon="-1.48259">
        <ele>1.7</ele>
        <time>2016-01-09T11:19:56Z</time>
      </trkpt>
      <trkpt lat="47.17278" lon="-1.48285">
        <ele>2</ele>
        <time>2016-01-09T11:20:00Z</time>
      </trkpt>
      <trkpt lat="47.17281" lon="-1.48316">
        <ele>2.2</ele>
        <time>2016-01-09T11:20:04Z</time>
      </trkpt>
      <trkpt lat="47.17284" lon="-1.48343">
        <ele>2.7</ele>
        <time>2016-01-09T11:20:08Z</time>
      </trkpt>
      <trkpt lat="47.1729" lon="-1.48371">
        <ele>2.8</ele>
        <time>2016-01-09T11:20:12Z</time>
      </trkpt>
      <trkpt lat="47.17294" lon="-1.48398">
        <ele>3</ele>
        <time>2016-01-09T11:20:16Z</time>
      </trkpt>
      <trkpt lat="47.17305" lon="-1.48422">
        <ele>3.5</ele>
        <time>2016-01-09T11:20:20Z</time>
      </trkpt>
      <trkpt lat="47.1731" lon="-1.48451">
        <ele>4.4</ele>
        <time>2016-01-09T11:20:25Z</time>
      </trkpt>
      <trkpt lat="47.17316" lon="-1.48478">
        <ele>5.3</ele>
        <time>2016-01-09T11:20:29Z</time>
      </trkpt>
      <trkpt lat="47.17324" lon="-1.48502">
        <ele>6.1</ele>
        <time>2016-01-09T11:20:33Z</time>
      </trkpt>
      <trkpt lat="47.17333" lon="-1.4853">
        <ele>6.8</ele>
        <time>2016-01-09T11:20:38Z</time>
      </trkpt>
      <trkpt lat="47.1734" lon="-1.48555">
        <ele>7.8</ele>
        <time>2016-01-09T11:20:42Z</time>
      </trkpt>
      <trkpt lat="47.17348" lon="-1.48581">
        <ele>8.9</ele>
        <time>2016-01-09T11:20:46Z</time>
      </trkpt>
      <trkpt lat="47.17357" lon="-1.48605">
        <ele>9.8</ele>
        <time>2016-01-09T11:20:50Z</time>
      </trkpt>
      <trkpt lat="47.17366" lon="-1.4863">
        <ele>11.1</ele>
        <time>2016-01-09T11:20:54Z</time>
      </trkpt>
      <trkpt lat="47.17377" lon="-1.48658">
        <ele>12.1</ele>
        <time>2016-01-09T11:20:59Z</time>
      </trkpt>
      <trkpt lat="47.17386" lon="-1.48685">
        <ele>13.2</ele>
        <time>2016-01-09T11:21:03Z</time>
      </trkpt>
      <trkpt lat="47.17394" lon="-1.48709">
        <ele>14.4</ele>
        <time>2016-01-09T11:21:07Z</time>
      </trkpt>
      <trkpt lat="47.17403" lon="-1.48733">
        <ele>15.3</ele>
        <time>2016-01-09T11:21:11Z</time>
      </trkpt>
      <trkpt lat="47.17412" lon="-1.48764">
        <ele>15.7</ele>
        <time>2016-01-09T11:21:16Z</time>
      </trkpt>
      <trkpt lat="47.17422" lon="-1.48795">
        <ele>15.8</ele>
        <time>2016-01-09T11:21:20Z</time>
      </trkpt>
      <trkpt lat="47.17431" lon="-1.48825">
        <ele>16</ele>
        <time>2016-01-09T11:21:24Z</time>
      </trkpt>
      <trkpt lat="47.17439" lon="-1.48851">
        <ele>16.6</ele>
        <time>2016-01-09T11:21:27Z</time>
      </trkpt>
      <trkpt lat="47.17448" lon="-1.48881">
        <ele>16.3</ele>
        <time>2016-01-09T11:21:31Z</time>
      </trkpt>
      <trkpt lat="47.17457" lon="-1.48911">
        <ele>16.7</ele>
        <time>2016-01-09T11:21:35Z</time>
      </trkpt>
      <trkpt lat="47.17464" lon="-1.48943">
        <ele>16.7</ele>
        <time>2016-01-09T11:21:39Z</time>
      </trkpt>
      <trkpt lat="47.17475" lon="-1.48971">
        <ele>17.1</ele>
        <time>2016-01-09T11:21:43Z</time>
      </trkpt>
      <trkpt lat="47.17484" lon="-1.48995">
        <ele>17.6</ele>
        <time>2016-01-09T11:21:46Z</time>
      </trkpt>
      <trkpt lat="47.17486" lon="-1.4903">
        <ele>17.7</ele>
        <time>2016-01-09T11:21:50Z</time>
      </trkpt>
      <trkpt lat="47.1749" lon="-1.49057">
        <ele>17.4</ele>
        <time>2016-01-09T11:21:53Z</time>
      </trkpt>
      <trkpt lat="47.17494" lon="-1.49089">
        <ele>17</ele>
        <time>2016-01-09T11:21:57Z</time>
      </trkpt>
      <trkpt lat="47.17498" lon="-1.49121">
        <ele>16.1</ele>
        <time>2016-01-09T11:22:01Z</time>
      </trkpt>
      <trkpt lat="47.175" lon="-1.49155">
        <ele>15</ele>
        <time>2016-01-09T11:22:05Z</time>
      </trkpt>
      <trkpt lat="47.17503" lon="-1.4919">
        <ele>14.4</ele>
        <time>2016-01-09T11:22:09Z</time>
      </trkpt>
      <trkpt lat="47.17506" lon="-1.49221">
        <ele>14.9</ele>
        <time>2016-01-09T11:22:13Z</time>
      </trkpt>
      <trkpt lat="47.17509" lon="-1.49252">
        <ele>15.8</ele>
        <time>2016-01-09T11:22:17Z</time>
      </trkpt>
      <trkpt lat="47.17513" lon="-1.49281">
        <ele>16.1</ele>
        <time>2016-01-09T11:22:21Z</time>
      </trkpt>
      <trkpt lat="47.17515" lon="-1.49312">
        <ele>16.5</ele>
        <time>2016-01-09T11:22:25Z</time>
      </trkpt>
      <trkpt lat="47.1752" lon="-1.49343">
        <ele>16.7</ele>
        <time>2016-01-09T11:22:29Z</time>
      </trkpt>
      <trkpt lat="47.17524" lon="-1.49372">
        <ele>16.7</ele>
        <time>2016-01-09T11:22:33Z</time>
      </trkpt>
      <trkpt lat="47.17528" lon="-1.49403">
        <ele>16.5</ele>
        <time>2016-01-09T11:22:37Z</time>
      </trkpt>
      <trkpt lat="47.17529" lon="-1.49435">
        <ele>16.9</ele>
        <time>2016-01-09T11:22:41Z</time>
      </trkpt>
      <trkpt lat="47.17533" lon="-1.49469">
        <ele>17</ele>
        <time>2016-01-09T11:22:45Z</time>
      </trkpt>
      <trkpt lat="47.17538" lon="-1.49501">
        <ele>17.6</ele>
        <time>2016-01-09T11:22:49Z</time>
      </trkpt>
      <trkpt lat="47.17541" lon="-1.49534">
        <ele>18.3</ele>
        <time>2016-01-09T11:22:53Z</time>
      </trkpt>
      <trkpt lat="47.17544" lon="-1.49566">
        <ele>19.2</ele>
        <time>2016-01-09T11:22:57Z</time>
      </trkpt>
      <trkpt lat="47.17548" lon="-1.49599">
        <ele>20.1</ele>
        <time>2016-01-09T11:23:01Z</time>
      </trkpt>
      <trkpt lat="47.17551" lon="-1.4963">
        <ele>21.1</ele>
        <time>2016-01-09T11:23:05Z</time>
      </trkpt>
      <trkpt lat="47.17555" lon="-1.49661">
        <ele>22.1</ele>
        <time>2016-01-09T11:23:09Z</time>
      </trkpt>
      <trkpt lat="47.17558" lon="-1.49694">
        <ele>22.3</ele>
        <time>2016-01-09T11:23:13Z</time>
      </trkpt>
      <trkpt lat="47.17563" lon="-1.49727">
        <ele>22.9</ele>
        <time>2016-01-09T11:23:17Z</time>
      </trkpt>
      <trkpt lat="47.17566" lon="-1.4976">
        <ele>23.9</ele>
        <time>2016-01-09T11:23:21Z</time>
      </trkpt>
      <trkpt lat="47.1757" lon="-1.49792">
        <ele>24.4</ele>
        <time>2016-01-09T11:23:25Z</time>
      </trkpt>
      <trkpt lat="47.17573" lon="-1.49825">
        <ele>24.5</ele>
        <time>2016-01-09T11:23:29Z</time>
      </trkpt>
      <trkpt lat="47.17578" lon="-1.4986">
        <ele>24.5</ele>
        <time>2016-01-09T11:23:33Z</time>
      </trkpt>
      <trkpt lat="47.17581" lon="-1.49892">
        <ele>24.4</ele>
        <time>2016-01-09T11:23:37Z</time>
      </trkpt>
      <trkpt lat="47.17581" lon="-1.49924">
        <ele>23.7</ele>
        <time>2016-01-09T11:23:41Z</time>
      </trkpt>
      <trkpt lat="47.17586" lon="-1.49958">
        <ele>23.7</ele>
        <time>2016-01-09T11:23:45Z</time>
      </trkpt>
      <trkpt lat="47.1759" lon="-1.49992">
        <ele>23.3</ele>
        <time>2016-01-09T11:23:49Z</time>
      </trkpt>
      <trkpt lat="47.17597" lon="-1.50023">
        <ele>22.6</ele>
        <time>2016-01-09T11:23:53Z</time>
      </trkpt>
      <trkpt lat="47.17607" lon="-1.50052">
        <ele>21.5</ele>
        <time>2016-01-09T11:23:57Z</time>
      </trkpt>
      <trkpt lat="47.17618" lon="-1.5008">
        <ele>21.8</ele>
        <time>2016-01-09T11:24:01Z</time>
      </trkpt>
      <trkpt lat="47.17629" lon="-1.50109">
        <ele>21.2</ele>
        <time>2016-01-09T11:24:05Z</time>
      </trkpt>
      <trkpt lat="47.1764" lon="-1.50139">
        <ele>20.3</ele>
        <time>2016-01-09T11:24:09Z</time>
      </trkpt>
      <trkpt lat="47.17653" lon="-1.50169">
        <ele>19.9</ele>
        <time>2016-01-09T11:24:13Z</time>
      </trkpt>
      <trkpt lat="47.17665" lon="-1.50197">
        <ele>19.7</ele>
        <time>2016-01-09T11:24:17Z</time>
      </trkpt>
      <trkpt lat="47.17678" lon="-1.50224">
        <ele>19.6</ele>
        <time>2016-01-09T11:24:21Z</time>
      </trkpt>
      <trkpt lat="47.17691" lon="-1.50252">
        <ele>19.7</ele>
        <time>2016-01-09T11:24:25Z</time>
      </trkpt>
      <trkpt lat="47.17704" lon="-1.50278">
        <ele>19.4</ele>
        <time>2016-01-09T11:24:29Z</time>
      </trkpt>
      <trkpt lat="47.17719" lon="-1.50304">
        <ele>19.1</ele>
        <time>2016-01-09T11:24:33Z</time>
      </trkpt>
      <trkpt lat="47.17737" lon="-1.50325">
        <ele>18.7</ele>
        <time>2016-01-09T11:24:37Z</time>
      </trkpt>
      <trkpt lat="47.17753" lon="-1.50349">
        <ele>18.7</ele>
        <time>2016-01-09T11:24:41Z</time>
      </trkpt>
      <trkpt lat="47.17764" lon="-1.50373">
        <ele>18.8</ele>
        <time>2016-01-09T11:24:44Z</time>
      </trkpt>
      <trkpt lat="47.17776" lon="-1.50393">
        <ele>18.6</ele>
        <time>2016-01-09T11:24:47Z</time>
      </trkpt>
      <trkpt lat="47.17788" lon="-1.50415">
        <ele>18.5</ele>
        <time>2016-01-09T11:24:50Z</time>
      </trkpt>
      <trkpt lat="47.17801" lon="-1.50438">
        <ele>17.8</ele>
        <time>2016-01-09T11:24:53Z</time>
      </trkpt>
      <trkpt lat="47.17814" lon="-1.50461">
        <ele>17.6</ele>
        <time>2016-01-09T11:24:56Z</time>
      </trkpt>
      <trkpt lat="47.17827" lon="-1.50483">
        <ele>16.8</ele>
        <time>2016-01-09T11:24:59Z</time>
      </trkpt>
      <trkpt lat="47.17839" lon="-1.50504">
        <ele>16.5</ele>
        <time>2016-01-09T11:25:02Z</time>
      </trkpt>
      <trkpt lat="47.17851" lon="-1.50527">
        <ele>16.3</ele>
        <time>2016-01-09T11:25:05Z</time>
      </trkpt>
      <trkpt lat="47.17864" lon="-1.5055">
        <ele>16.3</ele>
        <time>2016-01-09T11:25:08Z</time>
      </trkpt>
      <trkpt lat="47.17877" lon="-1.50573">
        <ele>16.1</ele>
        <time>2016-01-09T11:25:11Z</time>
      </trkpt>
      <trkpt lat="47.17889" lon="-1.50594">
        <ele>16.3</ele>
        <time>2016-01-09T11:25:14Z</time>
      </trkpt>
      <trkpt lat="47.17901" lon="-1.50616">
        <ele>15.8</ele>
        <time>2016-01-09T11:25:17Z</time>
      </trkpt>
      <trkpt lat="47.17914" lon="-1.50639">
        <ele>15.7</ele>
        <time>2016-01-09T11:25:20Z</time>
      </trkpt>
      <trkpt lat="47.17926" lon="-1.50661">
        <ele>15.3</ele>
        <time>2016-01-09T11:25:23Z</time>
      </trkpt>
      <trkpt lat="47.17938" lon="-1.50685">
        <ele>14.7</ele>
        <time>2016-01-09T11:25:26Z</time>
      </trkpt>
      <trkpt lat="47.17952" lon="-1.50708">
        <ele>14.2</ele>
        <time>2016-01-09T11:25:29Z</time>
      </trkpt>
      <trkpt lat="47.17965" lon="-1.50733">
        <ele>14.1</ele>
        <time>2016-01-09T11:25:32Z</time>
      </trkpt>
      <trkpt lat="47.17977" lon="-1.50756">
        <ele>13.4</ele>
        <time>2016-01-09T11:25:35Z</time>
      </trkpt>
      <trkpt lat="47.17989" lon="-1.50779">
        <ele>12.7</ele>
        <time>2016-01-09T11:25:38Z</time>
      </trkpt>
      <trkpt lat="47.17999" lon="-1.50803">
        <ele>12.1</ele>
        <time>2016-01-09T11:25:41Z</time>
      </trkpt>
      <trkpt lat="47.18008" lon="-1.5083">
        <ele>11.8</ele>
        <time>2016-01-09T11:25:44Z</time>
      </trkpt>
      <trkpt lat="47.18016" lon="-1.50856">
        <ele>11.8</ele>
        <time>2016-01-09T11:25:47Z</time>
      </trkpt>
      <trkpt lat="47.18021" lon="-1.50885">
        <ele>11.4</ele>
        <time>2016-01-09T11:25:50Z</time>
      </trkpt>
      <trkpt lat="47.18027" lon="-1.50914">
        <ele>11.1</ele>
        <time>2016-01-09T11:25:53Z</time>
      </trkpt>
      <trkpt lat="47.18034" lon="-1.50947">
        <ele>9.6</ele>
        <time>2016-01-09T11:25:56Z</time>
      </trkpt>
      <trkpt lat="47.18043" lon="-1.50976">
        <ele>8.6</ele>
        <time>2016-01-09T11:25:59Z</time>
      </trkpt>
      <trkpt lat="47.18055" lon="-1.51004">
        <ele>7.9</ele>
        <time>2016-01-09T11:26:02Z</time>
      </trkpt>
      <trkpt lat="47.18067" lon="-1.51039">
        <ele>7.9</ele>
        <time>2016-01-09T11:26:05Z</time>
      </trkpt>
      <trkpt lat="47.18078" lon="-1.51071">
        <ele>7.9</ele>
        <time>2016-01-09T11:26:08Z</time>
      </trkpt>
      <trkpt lat="47.18089" lon="-1.51104">
        <ele>7.6</ele>
        <time>2016-01-09T11:26:11Z</time>
      </trkpt>
      <trkpt lat="47.18097" lon="-1.51135">
        <ele>7.3</ele>
        <time>2016-01-09T11:26:14Z</time>
      </trkpt>
      <trkpt lat="47.18105" lon="-1.51161">
        <ele>7.1</ele>
        <time>2016-01-09T11:26:17Z</time>
      </trkpt>
      <trkpt lat="47.18114" lon="-1.51188">
        <ele>7.2</ele>
        <time>2016-01-09T11:26:20Z</time>
      </trkpt>
      <trkpt lat="47.18124" lon="-1.51213">
        <ele>7</ele>
        <time>2016-01-09T11:26:23Z</time>
      </trkpt>
      <trkpt lat="47.18135" lon="-1.51238">
        <ele>6.9</ele>
        <time>2016-01-09T11:26:26Z</time>
      </trkpt>
      <trkpt lat="47.18144" lon="-1.51262">
        <ele>6.9</ele>
        <time>2016-01-09T11:26:29Z</time>
      </trkpt>
      <trkpt lat="47.18155" lon="-1.51287">
        <ele>6.9</ele>
        <time>2016-01-09T11:26:32Z</time>
      </trkpt>
      <trkpt lat="47.18165" lon="-1.51311">
        <ele>6.9</ele>
        <time>2016-01-09T11:26:35Z</time>
      </trkpt>
      <trkpt lat="47.18176" lon="-1.51333">
        <ele>7</ele>
        <time>2016-01-09T11:26:38Z</time>
      </trkpt>
      <trkpt lat="47.18186" lon="-1.51357">
        <ele>7</ele>
        <time>2016-01-09T11:26:41Z</time>
      </trkpt>
      <trkpt lat="47.18198" lon="-1.51385">
        <ele>7</ele>
        <time>2016-01-09T11:26:45Z</time>
      </trkpt>
      <trkpt lat="47.18209" lon="-1.5141">
        <ele>6.2</ele>
        <time>2016-01-09T11:26:49Z</time>
      </trkpt>
      <trkpt lat="47.18219" lon="-1.51438">
        <ele>5.6</ele>
        <time>2016-01-09T11:26:53Z</time>
      </trkpt>
      <trkpt lat="47.18231" lon="-1.51469">
        <ele>5.6</ele>
        <time>2016-01-09T11:26:57Z</time>
      </trkpt>
      <trkpt lat="47.18243" lon="-1.51491">
        <ele>6</ele>
        <time>2016-01-09T11:27:00Z</time>
      </trkpt>
      <trkpt lat="47.18253" lon="-1.51514">
        <ele>6</ele>
        <time>2016-01-09T11:27:03Z</time>
      </trkpt>
      <trkpt lat="47.1826" lon="-1.51539">
        <ele>5.5</ele>
        <time>2016-01-09T11:27:06Z</time>
      </trkpt>
      <trkpt lat="47.18273" lon="-1.51568">
        <ele>5</ele>
        <time>2016-01-09T11:27:10Z</time>
      </trkpt>
      <trkpt lat="47.18283" lon="-1.51594">
        <ele>4.6</ele>
        <time>2016-01-09T11:27:13Z</time>
      </trkpt>
      <trkpt lat="47.18292" lon="-1.51619">
        <ele>4.4</ele>
        <time>2016-01-09T11:27:16Z</time>
      </trkpt>
      <trkpt lat="47.183" lon="-1.51645">
        <ele>4.1</ele>
        <time>2016-01-09T11:27:19Z</time>
      </trkpt>
      <trkpt lat="47.18309" lon="-1.51673">
        <ele>4</ele>
        <time>2016-01-09T11:27:22Z</time>
      </trkpt>
      <trkpt lat="47.18316" lon="-1.51699">
        <ele>4.9</ele>
        <time>2016-01-09T11:27:25Z</time>
      </trkpt>
      <trkpt lat="47.18323" lon="-1.51724">
        <ele>5.2</ele>
        <time>2016-01-09T11:27:28Z</time>
      </trkpt>
      <trkpt lat="47.1833" lon="-1.51756">
        <ele>5</ele>
        <time>2016-01-09T11:27:32Z</time>
      </trkpt>
      <trkpt lat="47.18336" lon="-1.51786">
        <ele>5.2</ele>
        <time>2016-01-09T11:27:36Z</time>
      </trkpt>
      <trkpt lat="47.18343" lon="-1.51813">
        <ele>5.1</ele>
        <time>2016-01-09T11:27:40Z</time>
      </trkpt>
      <trkpt lat="47.1835" lon="-1.51843">
        <ele>4.7</ele>
        <time>2016-01-09T11:27:44Z</time>
      </trkpt>
      <trkpt lat="47.18354" lon="-1.51875">
        <ele>6</ele>
        <time>2016-01-09T11:27:48Z</time>
      </trkpt>
      <trkpt lat="47.18359" lon="-1.51907">
        <ele>7.4</ele>
        <time>2016-01-09T11:27:52Z</time>
      </trkpt>
      <trkpt lat="47.18363" lon="-1.51935">
        <ele>8.8</ele>
        <time>2016-01-09T11:27:56Z</time>
      </trkpt>
      <trkpt lat="47.18367" lon="-1.51962">
        <ele>10.6</ele>
        <time>2016-01-09T11:28:00Z</time>
      </trkpt>
      <trkpt lat="47.18371" lon="-1.51992">
        <ele>10.1</ele>
        <time>2016-01-09T11:28:04Z</time>
      </trkpt>
      <trkpt lat="47.18378" lon="-1.52023">
        <ele>9.6</ele>
        <time>2016-01-09T11:28:08Z</time>
      </trkpt>
      <trkpt lat="47.18385" lon="-1.52053">
        <ele>8.5</ele>
        <time>2016-01-09T11:28:12Z</time>
      </trkpt>
      <trkpt lat="47.1839" lon="-1.52085">
        <ele>8.2</ele>
        <time>2016-01-09T11:28:16Z</time>
      </trkpt>
      <trkpt lat="47.18395" lon="-1.52117">
        <ele>8.1</ele>
        <time>2016-01-09T11:28:20Z</time>
      </trkpt>
      <trkpt lat="47.184" lon="-1.52151">
        <ele>8.1</ele>
        <time>2016-01-09T11:28:24Z</time>
      </trkpt>
      <trkpt lat="47.18408" lon="-1.52184">
        <ele>8.2</ele>
        <time>2016-01-09T11:28:28Z</time>
      </trkpt>
      <trkpt lat="47.18412" lon="-1.52219">
        <ele>7.4</ele>
        <time>2016-01-09T11:28:32Z</time>
      </trkpt>
      <trkpt lat="47.18416" lon="-1.52252">
        <ele>7.2</ele>
        <time>2016-01-09T11:28:36Z</time>
      </trkpt>
      <trkpt lat="47.18422" lon="-1.52284">
        <ele>7.1</ele>
        <time>2016-01-09T11:28:40Z</time>
      </trkpt>
      <trkpt lat="47.18427" lon="-1.52315">
        <ele>7.3</ele>
        <time>2016-01-09T11:28:44Z</time>
      </trkpt>
      <trkpt lat="47.18432" lon="-1.52344">
        <ele>7.5</ele>
        <time>2016-01-09T11:28:48Z</time>
      </trkpt>
      <trkpt lat="47.18439" lon="-1.52374">
        <ele>7.4</ele>
        <time>2016-01-09T11:28:52Z</time>
      </trkpt>
      <trkpt lat="47.18442" lon="-1.524">
        <ele>7.4</ele>
        <time>2016-01-09T11:28:55Z</time>
      </trkpt>
      <trkpt lat="47.1845" lon="-1.52432">
        <ele>7.8</ele>
        <time>2016-01-09T11:28:59Z</time>
      </trkpt>
      <trkpt lat="47.18464" lon="-1.52457">
        <ele>6.7</ele>
        <time>2016-01-09T11:29:03Z</time>
      </trkpt>
      <trkpt lat="47.18479" lon="-1.52478">
        <ele>6.6</ele>
        <time>2016-01-09T11:29:07Z</time>
      </trkpt>
      <trkpt lat="47.18487" lon="-1.52503">
        <ele>6.5</ele>
        <time>2016-01-09T11:29:10Z</time>
      </trkpt>
      <trkpt lat="47.18501" lon="-1.52525">
        <ele>6.3</ele>
        <time>2016-01-09T11:29:13Z</time>
      </trkpt>
      <trkpt lat="47.18515" lon="-1.52545">
        <ele>5.9</ele>
        <time>2016-01-09T11:29:16Z</time>
      </trkpt>
      <trkpt lat="47.18529" lon="-1.52563">
        <ele>5.2</ele>
        <time>2016-01-09T11:29:19Z</time>
      </trkpt>
      <trkpt lat="47.18546" lon="-1.52587">
        <ele>4.6</ele>
        <time>2016-01-09T11:29:23Z</time>
      </trkpt>
      <trkpt lat="47.18561" lon="-1.52612">
        <ele>4.4</ele>
        <time>2016-01-09T11:29:27Z</time>
      </trkpt>
      <trkpt lat="47.18574" lon="-1.52639">
        <ele>5.3</ele>
        <time>2016-01-09T11:29:31Z</time>
      </trkpt>
      <trkpt lat="47.18587" lon="-1.52666">
        <ele>6.6</ele>
        <time>2016-01-09T11:29:35Z</time>
      </trkpt>
      <trkpt lat="47.186" lon="-1.52691">
        <ele>7.1</ele>
        <time>2016-01-09T11:29:39Z</time>
      </trkpt>
      <trkpt lat="47.18617" lon="-1.52714">
        <ele>7.1</ele>
        <time>2016-01-09T11:29:43Z</time>
      </trkpt>
      <trkpt lat="47.18633" lon="-1.52741">
        <ele>6.9</ele>
        <time>2016-01-09T11:29:47Z</time>
      </trkpt>
      <trkpt lat="47.18647" lon="-1.52767">
        <ele>6.5</ele>
        <time>2016-01-09T11:29:51Z</time>
      </trkpt>
      <trkpt lat="47.18662" lon="-1.52794">
        <ele>6.5</ele>
        <time>2016-01-09T11:29:55Z</time>
      </trkpt>
      <trkpt lat="47.18677" lon="-1.52817">
        <ele>6.7</ele>
        <time>2016-01-09T11:29:59Z</time>
      </trkpt>
      <trkpt lat="47.18693" lon="-1.52837">
        <ele>7.6</ele>
        <time>2016-01-09T11:30:03Z</time>
      </trkpt>
      <trkpt lat="47.18705" lon="-1.52864">
        <ele>7.8</ele>
        <time>2016-01-09T11:30:07Z</time>
      </trkpt>
      <trkpt lat="47.18719" lon="-1.5289">
        <ele>8.4</ele>
        <time>2016-01-09T11:30:11Z</time>
      </trkpt>
      <trkpt lat="47.18735" lon="-1.52912">
        <ele>9.2</ele>
        <time>2016-01-09T11:30:15Z</time>
      </trkpt>
      <trkpt lat="47.1875" lon="-1.52937">
        <ele>9.9</ele>
        <time>2016-01-09T11:30:19Z</time>
      </trkpt>
      <trkpt lat="47.18764" lon="-1.52962">
        <ele>10.4</ele>
        <time>2016-01-09T11:30:23Z</time>
      </trkpt>
      <trkpt lat="47.1878" lon="-1.52988">
        <ele>10.9</ele>
        <time>2016-01-09T11:30:27Z</time>
      </trkpt>
      <trkpt lat="47.18794" lon="-1.53013">
        <ele>11.7</ele>
        <time>2016-01-09T11:30:31Z</time>
      </trkpt>
      <trkpt lat="47.18809" lon="-1.53035">
        <ele>11.7</ele>
        <time>2016-01-09T11:30:35Z</time>
      </trkpt>
      <trkpt lat="47.1882" lon="-1.53057">
        <ele>9.9</ele>
        <time>2016-01-09T11:30:41Z</time>
      </trkpt>
      <trkpt lat="47.18834" lon="-1.5308">
        <ele>9</ele>
        <time>2016-01-09T11:30:48Z</time>
      </trkpt>
      <trkpt lat="47.18852" lon="-1.53099">
        <ele>8.7</ele>
        <time>2016-01-09T11:30:52Z</time>
      </trkpt>
      <trkpt lat="47.18867" lon="-1.53117">
        <ele>8.8</ele>
        <time>2016-01-09T11:30:55Z</time>
      </trkpt>
      <trkpt lat="47.18881" lon="-1.53135">
        <ele>8.8</ele>
        <time>2016-01-09T11:30:58Z</time>
      </trkpt>
      <trkpt lat="47.18896" lon="-1.53152">
        <ele>9.4</ele>
        <time>2016-01-09T11:31:01Z</time>
      </trkpt>
      <trkpt lat="47.1891" lon="-1.53168">
        <ele>9.7</ele>
        <time>2016-01-09T11:31:04Z</time>
      </trkpt>
      <trkpt lat="47.18923" lon="-1.53188">
        <ele>10.3</ele>
        <time>2016-01-09T11:31:07Z</time>
      </trkpt>
      <trkpt lat="47.18937" lon="-1.53206">
        <ele>10.9</ele>
        <time>2016-01-09T11:31:10Z</time>
      </trkpt>
      <trkpt lat="47.18952" lon="-1.53224">
        <ele>11.2</ele>
        <time>2016-01-09T11:31:13Z</time>
      </trkpt>
      <trkpt lat="47.18967" lon="-1.53243">
        <ele>11.3</ele>
        <time>2016-01-09T11:31:16Z</time>
      </trkpt>
      <trkpt lat="47.18982" lon="-1.53261">
        <ele>11.4</ele>
        <time>2016-01-09T11:31:19Z</time>
      </trkpt>
      <trkpt lat="47.18998" lon="-1.5328">
        <ele>11.4</ele>
        <time>2016-01-09T11:31:22Z</time>
      </trkpt>
      <trkpt lat="47.19014" lon="-1.53299">
        <ele>11.2</ele>
        <time>2016-01-09T11:31:25Z</time>
      </trkpt>
      <trkpt lat="47.19031" lon="-1.53317">
        <ele>10.7</ele>
        <time>2016-01-09T11:31:28Z</time>
      </trkpt>
      <trkpt lat="47.19045" lon="-1.53337">
        <ele>9.4</ele>
        <time>2016-01-09T11:31:31Z</time>
      </trkpt>
      <trkpt lat="47.19059" lon="-1.53354">
        <ele>8.9</ele>
        <time>2016-01-09T11:31:34Z</time>
      </trkpt>
      <trkpt lat="47.19076" lon="-1.53369">
        <ele>9.2</ele>
        <time>2016-01-09T11:31:37Z</time>
      </trkpt>
      <trkpt lat="47.19093" lon="-1.53385">
        <ele>8.7</ele>
        <time>2016-01-09T11:31:40Z</time>
      </trkpt>
      <trkpt lat="47.1911" lon="-1.53401">
        <ele>8.4</ele>
        <time>2016-01-09T11:31:43Z</time>
      </trkpt>
      <trkpt lat="47.19124" lon="-1.53423">
        <ele>7.7</ele>
        <time>2016-01-09T11:31:46Z</time>
      </trkpt>
      <trkpt lat="47.19141" lon="-1.53443">
        <ele>6.5</ele>
        <time>2016-01-09T11:31:49Z</time>
      </trkpt>
      <trkpt lat="47.19156" lon="-1.53461">
        <ele>5.8</ele>
        <time>2016-01-09T11:31:52Z</time>
      </trkpt>
      <trkpt lat="47.19175" lon="-1.53472">
        <ele>5.6</ele>
        <time>2016-01-09T11:31:55Z</time>
      </trkpt>
      <trkpt lat="47.19192" lon="-1.53486">
        <ele>5.1</ele>
        <time>2016-01-09T11:31:58Z</time>
      </trkpt>
      <trkpt lat="47.19212" lon="-1.53497">
        <ele>4.5</ele>
        <time>2016-01-09T11:32:01Z</time>
      </trkpt>
      <trkpt lat="47.19232" lon="-1.53508">
        <ele>4.3</ele>
        <time>2016-01-09T11:32:04Z</time>
      </trkpt>
      <trkpt lat="47.19252" lon="-1.53519">
        <ele>4.9</ele>
        <time>2016-01-09T11:32:07Z</time>
      </trkpt>
      <trkpt lat="47.19273" lon="-1.53529">
        <ele>5.4</ele>
        <time>2016-01-09T11:32:10Z</time>
      </trkpt>
      <trkpt lat="47.19293" lon="-1.53539">
        <ele>5.7</ele>
        <time>2016-01-09T11:32:13Z</time>
      </trkpt>
      <trkpt lat="47.19313" lon="-1.53549">
        <ele>6.3</ele>
        <time>2016-01-09T11:32:16Z</time>
      </trkpt>
      <trkpt lat="47.19332" lon="-1.53551">
        <ele>6.6</ele>
        <time>2016-01-09T11:32:19Z</time>
      </trkpt>
      <trkpt lat="47.19351" lon="-1.53557">
        <ele>7.1</ele>
        <time>2016-01-09T11:32:22Z</time>
      </trkpt>
      <trkpt lat="47.1937" lon="-1.53563">
        <ele>7.5</ele>
        <time>2016-01-09T11:32:25Z</time>
      </trkpt>
      <trkpt lat="47.19387" lon="-1.5357">
        <ele>7.9</ele>
        <time>2016-01-09T11:32:28Z</time>
      </trkpt>
      <trkpt lat="47.19405" lon="-1.53578">
        <ele>8.2</ele>
        <time>2016-01-09T11:32:31Z</time>
      </trkpt>
      <trkpt lat="47.19423" lon="-1.53583">
        <ele>8.6</ele>
        <time>2016-01-09T11:32:34Z</time>
      </trkpt>
      <trkpt lat="47.19447" lon="-1.53592">
        <ele>9.2</ele>
        <time>2016-01-09T11:32:38Z</time>
      </trkpt>
      <trkpt lat="47.19469" lon="-1.53599">
        <ele>9.9</ele>
        <time>2016-01-09T11:32:42Z</time>
      </trkpt>
      <trkpt lat="47.19491" lon="-1.53603">
        <ele>10.3</ele>
        <time>2016-01-09T11:32:46Z</time>
      </trkpt>
      <trkpt lat="47.19511" lon="-1.53612">
        <ele>10.3</ele>
        <time>2016-01-09T11:32:50Z</time>
      </trkpt>
      <trkpt lat="47.19531" lon="-1.53617">
        <ele>11.1</ele>
        <time>2016-01-09T11:32:54Z</time>
      </trkpt>
      <trkpt lat="47.19551" lon="-1.53624">
        <ele>12.9</ele>
        <time>2016-01-09T11:33:00Z</time>
      </trkpt>
      <trkpt lat="47.19572" lon="-1.53641">
        <ele>14.1</ele>
        <time>2016-01-09T11:33:04Z</time>
      </trkpt>
      <trkpt lat="47.19587" lon="-1.53664">
        <ele>13.1</ele>
        <time>2016-01-09T11:33:07Z</time>
      </trkpt>
      <trkpt lat="47.19596" lon="-1.53689">
        <ele>12.8</ele>
        <time>2016-01-09T11:33:10Z</time>
      </trkpt>
      <trkpt lat="47.19606" lon="-1.53721">
        <ele>13.8</ele>
        <time>2016-01-09T11:33:14Z</time>
      </trkpt>
      <trkpt lat="47.19616" lon="-1.53749">
        <ele>14.6</ele>
        <time>2016-01-09T11:33:18Z</time>
      </trkpt>
      <trkpt lat="47.19626" lon="-1.53782">
        <ele>15.2</ele>
        <time>2016-01-09T11:33:22Z</time>
      </trkpt>
      <trkpt lat="47.19635" lon="-1.53812">
        <ele>15.7</ele>
        <time>2016-01-09T11:33:26Z</time>
      </trkpt>
      <trkpt lat="47.19641" lon="-1.53845">
        <ele>14.1</ele>
        <time>2016-01-09T11:33:30Z</time>
      </trkpt>
      <trkpt lat="47.19654" lon="-1.5387">
        <ele>14.1</ele>
        <time>2016-01-09T11:33:34Z</time>
      </trkpt>
      <trkpt lat="47.19666" lon="-1.53899">
        <ele>14.6</ele>
        <time>2016-01-09T11:33:38Z</time>
      </trkpt>
      <trkpt lat="47.1968" lon="-1.53925">
        <ele>15.3</ele>
        <time>2016-01-09T11:33:42Z</time>
      </trkpt>
      <trkpt lat="47.19693" lon="-1.53948">
        <ele>16.2</ele>
        <time>2016-01-09T11:33:46Z</time>
      </trkpt>
      <trkpt lat="47.19704" lon="-1.53974">
        <ele>17.1</ele>
        <time>2016-01-09T11:33:50Z</time>
      </trkpt>
      <trkpt lat="47.19716" lon="-1.54001">
        <ele>17.7</ele>
        <time>2016-01-09T11:33:54Z</time>
      </trkpt>
      <trkpt lat="47.19723" lon="-1.54032">
        <ele>16.1</ele>
        <time>2016-01-09T11:33:57Z</time>
      </trkpt>
      <trkpt lat="47.19736" lon="-1.54058">
        <ele>15.5</ele>
        <time>2016-01-09T11:34:00Z</time>
      </trkpt>
      <trkpt lat="47.19749" lon="-1.54083">
        <ele>14.8</ele>
        <time>2016-01-09T11:34:03Z</time>
      </trkpt>
      <trkpt lat="47.19771" lon="-1.54098">
        <ele>13.3</ele>
        <time>2016-01-09T11:34:07Z</time>
      </trkpt>
      <trkpt lat="47.1979" lon="-1.541">
        <ele>12.5</ele>
        <time>2016-01-09T11:34:10Z</time>
      </trkpt>
      <trkpt lat="47.1981" lon="-1.54088">
        <ele>11.9</ele>
        <time>2016-01-09T11:34:13Z</time>
      </trkpt>
      <trkpt lat="47.19834" lon="-1.54071">
        <ele>7.2</ele>
        <time>2016-01-09T11:34:16Z</time>
      </trkpt>
      <trkpt lat="47.1985" lon="-1.54046">
        <ele>4.8</ele>
        <time>2016-01-09T11:34:19Z</time>
      </trkpt>
      <trkpt lat="47.19859" lon="-1.54013">
        <ele>3</ele>
        <time>2016-01-09T11:34:22Z</time>
      </trkpt>
      <trkpt lat="47.19868" lon="-1.53981">
        <ele>0.7</ele>
        <time>2016-01-09T11:34:25Z</time>
      </trkpt>
      <trkpt lat="47.19876" lon="-1.53951">
        <ele>-0.8</ele>
        <time>2016-01-09T11:34:28Z</time>
      </trkpt>
      <trkpt lat="47.19883" lon="-1.53921">
        <ele>-2.7</ele>
        <time>2016-01-09T11:34:31Z</time>
      </trkpt>
      <trkpt lat="47.19887" lon="-1.53889">
        <ele>-4.1</ele>
        <time>2016-01-09T11:34:34Z</time>
      </trkpt>
      <trkpt lat="47.1989" lon="-1.5386">
        <ele>-5.5</ele>
        <time>2016-01-09T11:34:37Z</time>
      </trkpt>
      <trkpt lat="47.19894" lon="-1.53828">
        <ele>-7</ele>
        <time>2016-01-09T11:34:40Z</time>
      </trkpt>
      <trkpt lat="47.19897" lon="-1.538">
        <ele>-8.3</ele>
        <time>2016-01-09T11:34:43Z</time>
      </trkpt>
      <trkpt lat="47.199" lon="-1.53764">
        <ele>-8.8</ele>
        <time>2016-01-09T11:34:47Z</time>
      </trkpt>
      <trkpt lat="47.19909" lon="-1.53732">
        <ele>-9.3</ele>
        <time>2016-01-09T11:34:50Z</time>
      </trkpt>
      <trkpt lat="47.19922" lon="-1.537">
        <ele>-9.6</ele>
        <time>2016-01-09T11:34:53Z</time>
      </trkpt>
      <trkpt lat="47.19933" lon="-1.53668">
        <ele>-9.4</ele>
        <time>2016-01-09T11:34:56Z</time>
      </trkpt>
      <trkpt lat="47.19944" lon="-1.53646">
        <ele>-8</ele>
        <time>2016-01-09T11:34:58Z</time>
      </trkpt>
      <trkpt lat="47.19953" lon="-1.53616">
        <ele>-8.4</ele>
        <time>2016-01-09T11:35:01Z</time>
      </trkpt>
      <trkpt lat="47.19961" lon="-1.53586">
        <ele>-9.2</ele>
        <time>2016-01-09T11:35:04Z</time>
      </trkpt>
      <trkpt lat="47.19965" lon="-1.53559">
        <ele>-9.9</ele>
        <time>2016-01-09T11:35:07Z</time>
      </trkpt>
      <trkpt lat="47.19968" lon="-1.53533">
        <ele>-10.5</ele>
        <time>2016-01-09T11:35:10Z</time>
      </trkpt>
      <trkpt lat="47.19974" lon="-1.53504">
        <ele>-11</ele>
        <time>2016-01-09T11:35:13Z</time>
      </trkpt>
      <trkpt lat="47.19985" lon="-1.53474">
        <ele>-10.7</ele>
        <time>2016-01-09T11:35:16Z</time>
      </trkpt>
      <trkpt lat="47.20007" lon="-1.53462">
        <ele>-8.7</ele>
        <time>2016-01-09T11:35:19Z</time>
      </trkpt>
      <trkpt lat="47.20026" lon="-1.5345">
        <ele>-8.3</ele>
        <time>2016-01-09T11:35:22Z</time>
      </trkpt>
      <trkpt lat="47.20037" lon="-1.53424">
        <ele>-7.8</ele>
        <time>2016-01-09T11:35:25Z</time>
      </trkpt>
      <trkpt lat="47.20047" lon="-1.53399">
        <ele>-8</ele>
        <time>2016-01-09T11:35:28Z</time>
      </trkpt>
      <trkpt lat="47.20057" lon="-1.5337">
        <ele>-8.6</ele>
        <time>2016-01-09T11:35:31Z</time>
      </trkpt>
      <trkpt lat="47.20063" lon="-1.53343">
        <ele>-8.6</ele>
        <time>2016-01-09T11:35:35Z</time>
      </trkpt>
      <trkpt lat="47.20076" lon="-1.53322">
        <ele>-8.9</ele>
        <time>2016-01-09T11:35:41Z</time>
      </trkpt>
      <trkpt lat="47.20094" lon="-1.53317">
        <ele>-7.9</ele>
        <time>2016-01-09T11:35:45Z</time>
      </trkpt>
      <trkpt lat="47.20105" lon="-1.53288">
        <ele>-7</ele>
        <time>2016-01-09T11:35:49Z</time>
      </trkpt>
      <trkpt lat="47.20112" lon="-1.53261">
        <ele>-6.8</ele>
        <time>2016-01-09T11:35:52Z</time>
      </trkpt>
      <trkpt lat="47.20119" lon="-1.53235">
        <ele>-7.1</ele>
        <time>2016-01-09T11:35:55Z</time>
      </trkpt>
      <trkpt lat="47.20126" lon="-1.53207">
        <ele>-7.4</ele>
        <time>2016-01-09T11:35:58Z</time>
      </trkpt>
      <trkpt lat="47.20134" lon="-1.53179">
        <ele>-7.8</ele>
        <time>2016-01-09T11:36:01Z</time>
      </trkpt>
      <trkpt lat="47.20143" lon="-1.53153">
        <ele>-8.2</ele>
        <time>2016-01-09T11:36:04Z</time>
      </trkpt>
      <trkpt lat="47.20153" lon="-1.53127">
        <ele>-8.2</ele>
        <time>2016-01-09T11:36:07Z</time>
      </trkpt>
      <trkpt lat="47.20164" lon="-1.53102">
        <ele>-8.3</ele>
        <time>2016-01-09T11:36:10Z</time>
      </trkpt>
      <trkpt lat="47.20176" lon="-1.53077">
        <ele>-8</ele>
        <time>2016-01-09T11:36:13Z</time>
      </trkpt>
      <trkpt lat="47.20189" lon="-1.53055">
        <ele>-7.5</ele>
        <time>2016-01-09T11:36:16Z</time>
      </trkpt>
      <trkpt lat="47.20202" lon="-1.53036">
        <ele>-6.6</ele>
        <time>2016-01-09T11:36:19Z</time>
      </trkpt>
      <trkpt lat="47.20217" lon="-1.53017">
        <ele>-5.8</ele>
        <time>2016-01-09T11:36:22Z</time>
      </trkpt>
      <trkpt lat="47.20231" lon="-1.52996">
        <ele>-5.1</ele>
        <time>2016-01-09T11:36:25Z</time>
      </trkpt>
      <trkpt lat="47.20243" lon="-1.52976">
        <ele>-4.5</ele>
        <time>2016-01-09T11:36:28Z</time>
      </trkpt>
      <trkpt lat="47.20255" lon="-1.52954">
        <ele>-3.7</ele>
        <time>2016-01-09T11:36:31Z</time>
      </trkpt>
      <trkpt lat="47.20266" lon="-1.52932">
        <ele>-2.6</ele>
        <time>2016-01-09T11:36:34Z</time>
      </trkpt>
      <trkpt lat="47.20277" lon="-1.52909">
        <ele>-2.1</ele>
        <time>2016-01-09T11:36:37Z</time>
      </trkpt>
      <trkpt lat="47.20289" lon="-1.52886">
        <ele>-2</ele>
        <time>2016-01-09T11:36:40Z</time>
      </trkpt>
      <trkpt lat="47.20299" lon="-1.5286">
        <ele>-2.4</ele>
        <time>2016-01-09T11:36:43Z</time>
      </trkpt>
      <trkpt lat="47.20309" lon="-1.52835">
        <ele>-2.8</ele>
        <time>2016-01-09T11:36:46Z</time>
      </trkpt>
      <trkpt lat="47.2032" lon="-1.52811">
        <ele>-3.3</ele>
        <time>2016-01-09T11:36:49Z</time>
      </trkpt>
      <trkpt lat="47.20332" lon="-1.52787">
        <ele>-4</ele>
        <time>2016-01-09T11:36:52Z</time>
      </trkpt>
      <trkpt lat="47.20342" lon="-1.52762">
        <ele>-4.5</ele>
        <time>2016-01-09T11:36:55Z</time>
      </trkpt>
      <trkpt lat="47.20353" lon="-1.52738">
        <ele>-4.2</ele>
        <time>2016-01-09T11:36:58Z</time>
      </trkpt>
      <trkpt lat="47.20365" lon="-1.52714">
        <ele>-3.7</ele>
        <time>2016-01-09T11:37:01Z</time>
      </trkpt>
      <trkpt lat="47.20379" lon="-1.52692">
        <ele>-2.9</ele>
        <time>2016-01-09T11:37:04Z</time>
      </trkpt>
      <trkpt lat="47.20392" lon="-1.52667">
        <ele>-3.6</ele>
        <time>2016-01-09T11:37:07Z</time>
      </trkpt>
      <trkpt lat="47.20404" lon="-1.52642">
        <ele>-4.8</ele>
        <time>2016-01-09T11:37:10Z</time>
      </trkpt>
      <trkpt lat="47.20414" lon="-1.52616">
        <ele>-5.3</ele>
        <time>2016-01-09T11:37:13Z</time>
      </trkpt>
      <trkpt lat="47.20421" lon="-1.52588">
        <ele>-5.8</ele>
        <time>2016-01-09T11:37:16Z</time>
      </trkpt>
      <trkpt lat="47.20428" lon="-1.52559">
        <ele>-6.3</ele>
        <time>2016-01-09T11:37:19Z</time>
      </trkpt>
      <trkpt lat="47.20436" lon="-1.52531">
        <ele>-6.9</ele>
        <time>2016-01-09T11:37:22Z</time>
      </trkpt>
      <trkpt lat="47.20447" lon="-1.52506">
        <ele>-6.9</ele>
        <time>2016-01-09T11:37:25Z</time>
      </trkpt>
      <trkpt lat="47.20457" lon="-1.52481">
        <ele>-6.8</ele>
        <time>2016-01-09T11:37:28Z</time>
      </trkpt>
      <trkpt lat="47.20466" lon="-1.52456">
        <ele>-6.9</ele>
        <time>2016-01-09T11:37:31Z</time>
      </trkpt>
      <trkpt lat="47.20477" lon="-1.52433">
        <ele>-7.4</ele>
        <time>2016-01-09T11:37:34Z</time>
      </trkpt>
      <trkpt lat="47.20486" lon="-1.52408">
        <ele>-8</ele>
        <time>2016-01-09T11:37:37Z</time>
      </trkpt>
      <trkpt lat="47.20496" lon="-1.52381">
        <ele>-9.1</ele>
        <time>2016-01-09T11:37:40Z</time>
      </trkpt>
      <trkpt lat="47.20503" lon="-1.52355">
        <ele>-9.7</ele>
        <time>2016-01-09T11:37:43Z</time>
      </trkpt>
      <trkpt lat="47.2051" lon="-1.52328">
        <ele>-10.1</ele>
        <time>2016-01-09T11:37:46Z</time>
      </trkpt>
      <trkpt lat="47.20521" lon="-1.52298">
        <ele>-10.6</ele>
        <time>2016-01-09T11:37:50Z</time>
      </trkpt>
      <trkpt lat="47.20529" lon="-1.52274">
        <ele>-10.2</ele>
        <time>2016-01-09T11:37:53Z</time>
      </trkpt>
      <trkpt lat="47.20541" lon="-1.52245">
        <ele>-10.4</ele>
        <time>2016-01-09T11:37:57Z</time>
      </trkpt>
      <trkpt lat="47.20554" lon="-1.52217">
        <ele>-9.5</ele>
        <time>2016-01-09T11:38:01Z</time>
      </trkpt>
      <trkpt lat="47.20568" lon="-1.52191">
        <ele>-9.5</ele>
        <time>2016-01-09T11:38:05Z</time>
      </trkpt>
      <trkpt lat="47.20584" lon="-1.52165">
        <ele>-9.3</ele>
        <time>2016-01-09T11:38:09Z</time>
      </trkpt>
      <trkpt lat="47.20599" lon="-1.52139">
        <ele>-8.6</ele>
        <time>2016-01-09T11:38:13Z</time>
      </trkpt>
      <trkpt lat="47.20611" lon="-1.52119">
        <ele>-8</ele>
        <time>2016-01-09T11:38:16Z</time>
      </trkpt>
      <trkpt lat="47.20623" lon="-1.52097">
        <ele>-7.5</ele>
        <time>2016-01-09T11:38:19Z</time>
      </trkpt>
      <trkpt lat="47.20636" lon="-1.52075">
        <ele>-7.7</ele>
        <time>2016-01-09T11:38:22Z</time>
      </trkpt>
      <trkpt lat="47.20649" lon="-1.52053">
        <ele>-7.8</ele>
        <time>2016-01-09T11:38:25Z</time>
      </trkpt>
      <trkpt lat="47.20663" lon="-1.52033">
        <ele>-7.8</ele>
        <time>2016-01-09T11:38:28Z</time>
      </trkpt>
      <trkpt lat="47.20675" lon="-1.52012">
        <ele>-6.6</ele>
        <time>2016-01-09T11:38:31Z</time>
      </trkpt>
      <trkpt lat="47.20688" lon="-1.5199">
        <ele>-5.8</ele>
        <time>2016-01-09T11:38:34Z</time>
      </trkpt>
      <trkpt lat="47.207" lon="-1.51966">
        <ele>-5</ele>
        <time>2016-01-09T11:38:37Z</time>
      </trkpt>
      <trkpt lat="47.20711" lon="-1.5194">
        <ele>-4.8</ele>
        <time>2016-01-09T11:38:40Z</time>
      </trkpt>
      <trkpt lat="47.20722" lon="-1.51916">
        <ele>-5.1</ele>
        <time>2016-01-09T11:38:43Z</time>
      </trkpt>
      <trkpt lat="47.20734" lon="-1.51891">
        <ele>-5.8</ele>
        <time>2016-01-09T11:38:46Z</time>
      </trkpt>
      <trkpt lat="47.20745" lon="-1.51867">
        <ele>-5.9</ele>
        <time>2016-01-09T11:38:49Z</time>
      </trkpt>
      <trkpt lat="47.20755" lon="-1.51844">
        <ele>-5.7</ele>
        <time>2016-01-09T11:38:52Z</time>
      </trkpt>
      <trkpt lat="47.20763" lon="-1.51818">
        <ele>-5.7</ele>
        <time>2016-01-09T11:38:55Z</time>
      </trkpt>
      <trkpt lat="47.2077" lon="-1.51792">
        <ele>-5.2</ele>
        <time>2016-01-09T11:38:58Z</time>
      </trkpt>
      <trkpt lat="47.20775" lon="-1.51766">
        <ele>-5.6</ele>
        <time>2016-01-09T11:39:01Z</time>
      </trkpt>
      <trkpt lat="47.20782" lon="-1.5174">
        <ele>-4.9</ele>
        <time>2016-01-09T11:39:04Z</time>
      </trkpt>
      <trkpt lat="47.20788" lon="-1.51706">
        <ele>-4</ele>
        <time>2016-01-09T11:39:08Z</time>
      </trkpt>
      <trkpt lat="47.20794" lon="-1.51681">
        <ele>-3.4</ele>
        <time>2016-01-09T11:39:11Z</time>
      </trkpt>
      <trkpt lat="47.208" lon="-1.51647">
        <ele>-2.5</ele>
        <time>2016-01-09T11:39:15Z</time>
      </trkpt>
      <trkpt lat="47.20805" lon="-1.51621">
        <ele>-2.4</ele>
        <time>2016-01-09T11:39:18Z</time>
      </trkpt>
      <trkpt lat="47.2081" lon="-1.51595">
        <ele>-2.3</ele>
        <time>2016-01-09T11:39:21Z</time>
      </trkpt>
      <trkpt lat="47.20814" lon="-1.51568">
        <ele>-1.5</ele>
        <time>2016-01-09T11:39:24Z</time>
      </trkpt>
      <trkpt lat="47.20817" lon="-1.51541">
        <ele>-1.6</ele>
        <time>2016-01-09T11:39:27Z</time>
      </trkpt>
      <trkpt lat="47.20821" lon="-1.51514">
        <ele>-2.2</ele>
        <time>2016-01-09T11:39:30Z</time>
      </trkpt>
      <trkpt lat="47.20826" lon="-1.51486">
        <ele>-1.1</ele>
        <time>2016-01-09T11:39:33Z</time>
      </trkpt>
      <trkpt lat="47.2083" lon="-1.51459">
        <ele>-1.2</ele>
        <time>2016-01-09T11:39:36Z</time>
      </trkpt>
      <trkpt lat="47.20833" lon="-1.51431">
        <ele>-0.9</ele>
        <time>2016-01-09T11:39:39Z</time>
      </trkpt>
      <trkpt lat="47.20838" lon="-1.51404">
        <ele>-1.2</ele>
        <time>2016-01-09T11:39:42Z</time>
      </trkpt>
      <trkpt lat="47.20845" lon="-1.51377">
        <ele>-1.5</ele>
        <time>2016-01-09T11:39:45Z</time>
      </trkpt>
      <trkpt lat="47.20851" lon="-1.5135">
        <ele>-2.3</ele>
        <time>2016-01-09T11:39:48Z</time>
      </trkpt>
      <trkpt lat="47.20858" lon="-1.51323">
        <ele>-3.2</ele>
        <time>2016-01-09T11:39:51Z</time>
      </trkpt>
      <trkpt lat="47.20868" lon="-1.51298">
        <ele>-3.8</ele>
        <time>2016-01-09T11:39:54Z</time>
      </trkpt>
      <trkpt lat="47.2088" lon="-1.51268">
        <ele>-3.8</ele>
        <time>2016-01-09T11:39:58Z</time>
      </trkpt>
      <trkpt lat="47.20891" lon="-1.51246">
        <ele>-3.8</ele>
        <time>2016-01-09T11:40:01Z</time>
      </trkpt>
      <trkpt lat="47.20904" lon="-1.51217">
        <ele>-2.7</ele>
        <time>2016-01-09T11:40:05Z</time>
      </trkpt>
      <trkpt lat="47.20916" lon="-1.51188">
        <ele>-1.9</ele>
        <time>2016-01-09T11:40:09Z</time>
      </trkpt>
      <trkpt lat="47.20926" lon="-1.51157">
        <ele>-1</ele>
        <time>2016-01-09T11:40:13Z</time>
      </trkpt>
      <trkpt lat="47.20934" lon="-1.51133">
        <ele>-0.6</ele>
        <time>2016-01-09T11:40:16Z</time>
      </trkpt>
      <trkpt lat="47.20941" lon="-1.51108">
        <ele>-1.1</ele>
        <time>2016-01-09T11:40:19Z</time>
      </trkpt>
      <trkpt lat="47.20949" lon="-1.51075">
        <ele>-1.9</ele>
        <time>2016-01-09T11:40:23Z</time>
      </trkpt>
      <trkpt lat="47.20955" lon="-1.51042">
        <ele>-2.8</ele>
        <time>2016-01-09T11:40:27Z</time>
      </trkpt>
      <trkpt lat="47.20963" lon="-1.5101">
        <ele>-3</ele>
        <time>2016-01-09T11:40:31Z</time>
      </trkpt>
      <trkpt lat="47.20969" lon="-1.50977">
        <ele>-3.4</ele>
        <time>2016-01-09T11:40:35Z</time>
      </trkpt>
      <trkpt lat="47.20974" lon="-1.50942">
        <ele>-4.5</ele>
        <time>2016-01-09T11:40:39Z</time>
      </trkpt>
      <trkpt lat="47.2098" lon="-1.50916">
        <ele>-4.8</ele>
        <time>2016-01-09T11:40:42Z</time>
      </trkpt>
      <trkpt lat="47.20984" lon="-1.50889">
        <ele>-5.5</ele>
        <time>2016-01-09T11:40:45Z</time>
      </trkpt>
      <trkpt lat="47.20987" lon="-1.50862">
        <ele>-5.9</ele>
        <time>2016-01-09T11:40:48Z</time>
      </trkpt>
      <trkpt lat="47.20989" lon="-1.50833">
        <ele>-5.4</ele>
        <time>2016-01-09T11:40:51Z</time>
      </trkpt>
      <trkpt lat="47.20992" lon="-1.50806">
        <ele>-5.8</ele>
        <time>2016-01-09T11:40:54Z</time>
      </trkpt>
      <trkpt lat="47.20996" lon="-1.5078">
        <ele>-5.1</ele>
        <time>2016-01-09T11:40:57Z</time>
      </trkpt>
      <trkpt lat="47.21" lon="-1.50747">
        <ele>-4.8</ele>
        <time>2016-01-09T11:41:01Z</time>
      </trkpt>
      <trkpt lat="47.21005" lon="-1.50721">
        <ele>-5</ele>
        <time>2016-01-09T11:41:04Z</time>
      </trkpt>
      <trkpt lat="47.21007" lon="-1.50694">
        <ele>-4.5</ele>
        <time>2016-01-09T11:41:07Z</time>
      </trkpt>
      <trkpt lat="47.21009" lon="-1.50667">
        <ele>-3.5</ele>
        <time>2016-01-09T11:41:10Z</time>
      </trkpt>
      <trkpt lat="47.21009" lon="-1.50637">
        <ele>-3</ele>
        <time>2016-01-09T11:41:13Z</time>
      </trkpt>
      <trkpt lat="47.21009" lon="-1.50609">
        <ele>-2.5</ele>
        <time>2016-01-09T11:41:16Z</time>
      </trkpt>
      <trkpt lat="47.2101" lon="-1.50579">
        <ele>-2.1</ele>
        <time>2016-01-09T11:41:19Z</time>
      </trkpt>
      <trkpt lat="47.21009" lon="-1.5055">
        <ele>-1.5</ele>
        <time>2016-01-09T11:41:22Z</time>
      </trkpt>
      <trkpt lat="47.21009" lon="-1.50523">
        <ele>-0.9</ele>
        <time>2016-01-09T11:41:25Z</time>
      </trkpt>
      <trkpt lat="47.21008" lon="-1.50489">
        <ele>-0.7</ele>
        <time>2016-01-09T11:41:29Z</time>
      </trkpt>
      <trkpt lat="47.21008" lon="-1.50454">
        <ele>-0.7</ele>
        <time>2016-01-09T11:41:33Z</time>
      </trkpt>
      <trkpt lat="47.2101" lon="-1.50419">
        <ele>-0.6</ele>
        <time>2016-01-09T11:41:37Z</time>
      </trkpt>
      <trkpt lat="47.21006" lon="-1.50385">
        <ele>-1.6</ele>
        <time>2016-01-09T11:41:41Z</time>
      </trkpt>
      <trkpt lat="47.21005" lon="-1.50357">
        <ele>-1.6</ele>
        <time>2016-01-09T11:41:44Z</time>
      </trkpt>
      <trkpt lat="47.21002" lon="-1.50325">
        <ele>-0.8</ele>
        <time>2016-01-09T11:41:48Z</time>
      </trkpt>
      <trkpt lat="47.21004" lon="-1.50292">
        <ele>-0.7</ele>
        <time>2016-01-09T11:41:52Z</time>
      </trkpt>
      <trkpt lat="47.21006" lon="-1.50261">
        <ele>-0.8</ele>
        <time>2016-01-09T11:41:56Z</time>
      </trkpt>
      <trkpt lat="47.21017" lon="-1.50232">
        <ele>-1.8</ele>
        <time>2016-01-09T11:42:00Z</time>
      </trkpt>
      <trkpt lat="47.21017" lon="-1.502">
        <ele>-1.6</ele>
        <time>2016-01-09T11:42:05Z</time>
      </trkpt>
      <trkpt lat="47.21023" lon="-1.50168">
        <ele>-1.4</ele>
        <time>2016-01-09T11:42:09Z</time>
      </trkpt>
      <trkpt lat="47.2103" lon="-1.50134">
        <ele>-0.4</ele>
        <time>2016-01-09T11:42:13Z</time>
      </trkpt>
      <trkpt lat="47.21038" lon="-1.50101">
        <ele>1.3</ele>
        <time>2016-01-09T11:42:17Z</time>
      </trkpt>
      <trkpt lat="47.21045" lon="-1.50074">
        <ele>0.9</ele>
        <time>2016-01-09T11:42:20Z</time>
      </trkpt>
      <trkpt lat="47.21051" lon="-1.50049">
        <ele>1</ele>
        <time>2016-01-09T11:42:23Z</time>
      </trkpt>
      <trkpt lat="47.21058" lon="-1.50023">
        <ele>-0.1</ele>
        <time>2016-01-09T11:42:26Z</time>
      </trkpt>
      <trkpt lat="47.21065" lon="-1.49997">
        <ele>-1.9</ele>
        <time>2016-01-09T11:42:29Z</time>
      </trkpt>
      <trkpt lat="47.21072" lon="-1.4997">
        <ele>-3.1</ele>
        <time>2016-01-09T11:42:32Z</time>
      </trkpt>
      <trkpt lat="47.21079" lon="-1.49945">
        <ele>-3.5</ele>
        <time>2016-01-09T11:42:35Z</time>
      </trkpt>
      <trkpt lat="47.21087" lon="-1.49919">
        <ele>-3.8</ele>
        <time>2016-01-09T11:42:38Z</time>
      </trkpt>
      <trkpt lat="47.21094" lon="-1.49894">
        <ele>-4.2</ele>
        <time>2016-01-09T11:42:41Z</time>
      </trkpt>
      <trkpt lat="47.21102" lon="-1.49863">
        <ele>-5.3</ele>
        <time>2016-01-09T11:42:45Z</time>
      </trkpt>
      <trkpt lat="47.21105" lon="-1.49836">
        <ele>-5</ele>
        <time>2016-01-09T11:42:48Z</time>
      </trkpt>
      <trkpt lat="47.2111" lon="-1.49808">
        <ele>-4.7</ele>
        <time>2016-01-09T11:42:51Z</time>
      </trkpt>
      <trkpt lat="47.21114" lon="-1.4978">
        <ele>-3.9</ele>
        <time>2016-01-09T11:42:54Z</time>
      </trkpt>
      <trkpt lat="47.21118" lon="-1.49753">
        <ele>-3.3</ele>
        <time>2016-01-09T11:42:57Z</time>
      </trkpt>
      <trkpt lat="47.21119" lon="-1.49726">
        <ele>-3.2</ele>
        <time>2016-01-09T11:43:00Z</time>
      </trkpt>
      <trkpt lat="47.21122" lon="-1.497">
        <ele>-2.8</ele>
        <time>2016-01-09T11:43:03Z</time>
      </trkpt>
      <trkpt lat="47.21124" lon="-1.49665">
        <ele>-2.6</ele>
        <time>2016-01-09T11:43:07Z</time>
      </trkpt>
      <trkpt lat="47.21127" lon="-1.49638">
        <ele>-2.5</ele>
        <time>2016-01-09T11:43:10Z</time>
      </trkpt>
      <trkpt lat="47.2113" lon="-1.49604">
        <ele>-1.9</ele>
        <time>2016-01-09T11:43:14Z</time>
      </trkpt>
      <trkpt lat="47.21139" lon="-1.49577">
        <ele>-2.1</ele>
        <time>2016-01-09T11:43:18Z</time>
      </trkpt>
      <trkpt lat="47.21137" lon="-1.49547">
        <ele>-1.8</ele>
        <time>2016-01-09T11:43:22Z</time>
      </trkpt>
      <trkpt lat="47.2113" lon="-1.49519">
        <ele>-1.7</ele>
        <time>2016-01-09T11:43:26Z</time>
      </trkpt>
      <trkpt lat="47.2113" lon="-1.49484">
        <ele>-2.9</ele>
        <time>2016-01-09T11:43:30Z</time>
      </trkpt>
      <trkpt lat="47.21131" lon="-1.4945">
        <ele>-4.1</ele>
        <time>2016-01-09T11:43:34Z</time>
      </trkpt>
      <trkpt lat="47.21133" lon="-1.49424">
        <ele>-3.7</ele>
        <time>2016-01-09T11:43:37Z</time>
      </trkpt>
      <trkpt lat="47.21134" lon="-1.49397">
        <ele>-3.6</ele>
        <time>2016-01-09T11:43:40Z</time>
      </trkpt>
      <trkpt lat="47.21135" lon="-1.49369">
        <ele>-4.7</ele>
        <time>2016-01-09T11:43:43Z</time>
      </trkpt>
      <trkpt lat="47.21138" lon="-1.49335">
        <ele>-4.9</ele>
        <time>2016-01-09T11:43:47Z</time>
      </trkpt>
      <trkpt lat="47.21135" lon="-1.49305">
        <ele>-4.4</ele>
        <time>2016-01-09T11:43:50Z</time>
      </trkpt>
      <trkpt lat="47.21135" lon="-1.49277">
        <ele>-3</ele>
        <time>2016-01-09T11:43:53Z</time>
      </trkpt>
      <trkpt lat="47.21138" lon="-1.49243">
        <ele>-1.9</ele>
        <time>2016-01-09T11:43:57Z</time>
      </trkpt>
      <trkpt lat="47.21143" lon="-1.49209">
        <ele>-1.1</ele>
        <time>2016-01-09T11:44:01Z</time>
      </trkpt>
      <trkpt lat="47.21147" lon="-1.49174">
        <ele>-0.9</ele>
        <time>2016-01-09T11:44:05Z</time>
      </trkpt>
      <trkpt lat="47.2115" lon="-1.49142">
        <ele>-0.7</ele>
        <time>2016-01-09T11:44:09Z</time>
      </trkpt>
      <trkpt lat="47.21156" lon="-1.4911">
        <ele>-0.7</ele>
        <time>2016-01-09T11:44:13Z</time>
      </trkpt>
      <trkpt lat="47.21165" lon="-1.49085">
        <ele>-1.9</ele>
        <time>2016-01-09T11:44:16Z</time>
      </trkpt>
      <trkpt lat="47.2116" lon="-1.49054">
        <ele>-2.5</ele>
        <time>2016-01-09T11:44:20Z</time>
      </trkpt>
      <trkpt lat="47.2116" lon="-1.4902">
        <ele>-2.1</ele>
        <time>2016-01-09T11:44:24Z</time>
      </trkpt>
      <trkpt lat="47.21165" lon="-1.48987">
        <ele>-1.5</ele>
        <time>2016-01-09T11:44:28Z</time>
      </trkpt>
      <trkpt lat="47.21171" lon="-1.48953">
        <ele>-0.8</ele>
        <time>2016-01-09T11:44:32Z</time>
      </trkpt>
      <trkpt lat="47.21177" lon="-1.48919">
        <ele>6.2</ele>
        <time>2016-01-09T11:44:36Z</time>
      </trkpt>
      <trkpt lat="47.21184" lon="-1.48886">
        <ele>0.4</ele>
        <time>2016-01-09T11:44:40Z</time>
      </trkpt>
      <trkpt lat="47.21188" lon="-1.48859">
        <ele>0.2</ele>
        <time>2016-01-09T11:44:43Z</time>
      </trkpt>
      <trkpt lat="47.21192" lon="-1.48832">
        <ele>1.2</ele>
        <time>2016-01-09T11:44:46Z</time>
      </trkpt>
      <trkpt lat="47.21198" lon="-1.48806">
        <ele>1.7</ele>
        <time>2016-01-09T11:44:49Z</time>
      </trkpt>
      <trkpt lat="47.21203" lon="-1.4878">
        <ele>2</ele>
        <time>2016-01-09T11:44:52Z</time>
      </trkpt>
      <trkpt lat="47.2121" lon="-1.48754">
        <ele>2.4</ele>
        <time>2016-01-09T11:44:55Z</time>
      </trkpt>
      <trkpt lat="47.21216" lon="-1.48727">
        <ele>1.5</ele>
        <time>2016-01-09T11:44:58Z</time>
      </trkpt>
      <trkpt lat="47.21223" lon="-1.48701">
        <ele>1</ele>
        <time>2016-01-09T11:45:01Z</time>
      </trkpt>
      <trkpt lat="47.2123" lon="-1.48673">
        <ele>1.1</ele>
        <time>2016-01-09T11:45:04Z</time>
      </trkpt>
      <trkpt lat="47.21238" lon="-1.48645">
        <ele>1.5</ele>
        <time>2016-01-09T11:45:07Z</time>
      </trkpt>
      <trkpt lat="47.21245" lon="-1.48618">
        <ele>1.3</ele>
        <time>2016-01-09T11:45:10Z</time>
      </trkpt>
      <trkpt lat="47.21252" lon="-1.48592">
        <ele>0.9</ele>
        <time>2016-01-09T11:45:13Z</time>
      </trkpt>
      <trkpt lat="47.21259" lon="-1.48566">
        <ele>0.6</ele>
        <time>2016-01-09T11:45:16Z</time>
      </trkpt>
      <trkpt lat="47.21266" lon="-1.48541">
        <ele>-0.2</ele>
        <time>2016-01-09T11:45:19Z</time>
      </trkpt>
      <trkpt lat="47.21276" lon="-1.48518">
        <ele>-0.1</ele>
        <time>2016-01-09T11:45:22Z</time>
      </trkpt>
      <trkpt lat="47.21292" lon="-1.48502">
        <ele>-0.4</ele>
        <time>2016-01-09T11:45:25Z</time>
      </trkpt>
      <trkpt lat="47.213" lon="-1.48478">
        <ele>-1</ele>
        <time>2016-01-09T11:45:28Z</time>
      </trkpt>
      <trkpt lat="47.21306" lon="-1.48449">
        <ele>-1.3</ele>
        <time>2016-01-09T11:45:31Z</time>
      </trkpt>
      <trkpt lat="47.21314" lon="-1.48423">
        <ele>-1.6</ele>
        <time>2016-01-09T11:45:34Z</time>
      </trkpt>
      <trkpt lat="47.21322" lon="-1.48397">
        <ele>-1.7</ele>
        <time>2016-01-09T11:45:37Z</time>
      </trkpt>
      <trkpt lat="47.21331" lon="-1.48371">
        <ele>-1.8</ele>
        <time>2016-01-09T11:45:40Z</time>
      </trkpt>
      <trkpt lat="47.21339" lon="-1.48344">
        <ele>-2</ele>
        <time>2016-01-09T11:45:43Z</time>
      </trkpt>
      <trkpt lat="47.21347" lon="-1.48317">
        <ele>-2.3</ele>
        <time>2016-01-09T11:45:46Z</time>
      </trkpt>
      <trkpt lat="47.21356" lon="-1.48288">
        <ele>-3.1</ele>
        <time>2016-01-09T11:45:49Z</time>
      </trkpt>
      <trkpt lat="47.21366" lon="-1.48259">
        <ele>-3.9</ele>
        <time>2016-01-09T11:45:52Z</time>
      </trkpt>
      <trkpt lat="47.21376" lon="-1.4823">
        <ele>-4.7</ele>
        <time>2016-01-09T11:45:55Z</time>
      </trkpt>
      <trkpt lat="47.21387" lon="-1.48203">
        <ele>-6</ele>
        <time>2016-01-09T11:45:58Z</time>
      </trkpt>
      <trkpt lat="47.21399" lon="-1.48178">
        <ele>-6.7</ele>
        <time>2016-01-09T11:46:01Z</time>
      </trkpt>
      <trkpt lat="47.21411" lon="-1.48153">
        <ele>-7.5</ele>
        <time>2016-01-09T11:46:04Z</time>
      </trkpt>
      <trkpt lat="47.21422" lon="-1.48129">
        <ele>-7.7</ele>
        <time>2016-01-09T11:46:07Z</time>
      </trkpt>
      <trkpt lat="47.21435" lon="-1.48107">
        <ele>-8.1</ele>
        <time>2016-01-09T11:46:10Z</time>
      </trkpt>
      <trkpt lat="47.21449" lon="-1.48084">
        <ele>-8.5</ele>
        <time>2016-01-09T11:46:13Z</time>
      </trkpt>
      <trkpt lat="47.21463" lon="-1.48062">
        <ele>-8.8</ele>
        <time>2016-01-09T11:46:16Z</time>
      </trkpt>
      <trkpt lat="47.21477" lon="-1.48042">
        <ele>-9</ele>
        <time>2016-01-09T11:46:19Z</time>
      </trkpt>
      <trkpt lat="47.21492" lon="-1.48022">
        <ele>-9.1</ele>
        <time>2016-01-09T11:46:22Z</time>
      </trkpt>
      <trkpt lat="47.21508" lon="-1.48001">
        <ele>-8.7</ele>
        <time>2016-01-09T11:46:25Z</time>
      </trkpt>
      <trkpt lat="47.21523" lon="-1.47984">
        <ele>-8.2</ele>
        <time>2016-01-09T11:46:28Z</time>
      </trkpt>
      <trkpt lat="47.21541" lon="-1.47967">
        <ele>-7.8</ele>
        <time>2016-01-09T11:46:31Z</time>
      </trkpt>
      <trkpt lat="47.21558" lon="-1.4795">
        <ele>-7.7</ele>
        <time>2016-01-09T11:46:34Z</time>
      </trkpt>
      <trkpt lat="47.21574" lon="-1.47935">
        <ele>-6.8</ele>
        <time>2016-01-09T11:46:37Z</time>
      </trkpt>
      <trkpt lat="47.2159" lon="-1.47919">
        <ele>-5.1</ele>
        <time>2016-01-09T11:46:40Z</time>
      </trkpt>
      <trkpt lat="47.21607" lon="-1.47903">
        <ele>-4</ele>
        <time>2016-01-09T11:46:43Z</time>
      </trkpt>
      <trkpt lat="47.21624" lon="-1.47888">
        <ele>-3.5</ele>
        <time>2016-01-09T11:46:46Z</time>
      </trkpt>
      <trkpt lat="47.21641" lon="-1.47873">
        <ele>-2.7</ele>
        <time>2016-01-09T11:46:49Z</time>
      </trkpt>
      <trkpt lat="47.21659" lon="-1.47856">
        <ele>-2.7</ele>
        <time>2016-01-09T11:46:52Z</time>
      </trkpt>
      <trkpt lat="47.21676" lon="-1.47841">
        <ele>-2</ele>
        <time>2016-01-09T11:46:55Z</time>
      </trkpt>
      <trkpt lat="47.21695" lon="-1.47826">
        <ele>-1.9</ele>
        <time>2016-01-09T11:46:58Z</time>
      </trkpt>
      <trkpt lat="47.21713" lon="-1.4781">
        <ele>-2.2</ele>
        <time>2016-01-09T11:47:01Z</time>
      </trkpt>
      <trkpt lat="47.21731" lon="-1.47793">
        <ele>-2.7</ele>
        <time>2016-01-09T11:47:04Z</time>
      </trkpt>
      <trkpt lat="47.21748" lon="-1.47777">
        <ele>-2.1</ele>
        <time>2016-01-09T11:47:07Z</time>
      </trkpt>
      <trkpt lat="47.21766" lon="-1.47762">
        <ele>-1.6</ele>
        <time>2016-01-09T11:47:10Z</time>
      </trkpt>
      <trkpt lat="47.21785" lon="-1.47746">
        <ele>-1.4</ele>
        <time>2016-01-09T11:47:13Z</time>
      </trkpt>
      <trkpt lat="47.21803" lon="-1.47731">
        <ele>-2.3</ele>
        <time>2016-01-09T11:47:16Z</time>
      </trkpt>
      <trkpt lat="47.21822" lon="-1.47718">
        <ele>-3.5</ele>
        <time>2016-01-09T11:47:19Z</time>
      </trkpt>
      <trkpt lat="47.2184" lon="-1.47704">
        <ele>-5.2</ele>
        <time>2016-01-09T11:47:22Z</time>
      </trkpt>
      <trkpt lat="47.2186" lon="-1.47689">
        <ele>-7.6</ele>
        <time>2016-01-09T11:47:25Z</time>
      </trkpt>
      <trkpt lat="47.21877" lon="-1.47671">
        <ele>-9.1</ele>
        <time>2016-01-09T11:47:28Z</time>
      </trkpt>
      <trkpt lat="47.21895" lon="-1.47653">
        <ele>-9.8</ele>
        <time>2016-01-09T11:47:31Z</time>
      </trkpt>
      <trkpt lat="47.21913" lon="-1.47635">
        <ele>-10.7</ele>
        <time>2016-01-09T11:47:34Z</time>
      </trkpt>
      <trkpt lat="47.21932" lon="-1.4762">
        <ele>-11.4</ele>
        <time>2016-01-09T11:47:37Z</time>
      </trkpt>
      <trkpt lat="47.21949" lon="-1.47604">
        <ele>-11.3</ele>
        <time>2016-01-09T11:47:40Z</time>
      </trkpt>
      <trkpt lat="47.21966" lon="-1.47587">
        <ele>-11.6</ele>
        <time>2016-01-09T11:47:43Z</time>
      </trkpt>
      <trkpt lat="47.21983" lon="-1.47569">
        <ele>-10.9</ele>
        <time>2016-01-09T11:47:46Z</time>
      </trkpt>
      <trkpt lat="47.22" lon="-1.47553">
        <ele>-9.8</ele>
        <time>2016-01-09T11:47:49Z</time>
      </trkpt>
      <trkpt lat="47.22018" lon="-1.47537">
        <ele>-9.6</ele>
        <time>2016-01-09T11:47:52Z</time>
      </trkpt>
      <trkpt lat="47.22036" lon="-1.47521">
        <ele>-9.4</ele>
        <time>2016-01-09T11:47:55Z</time>
      </trkpt>
      <trkpt lat="47.22053" lon="-1.47506">
        <ele>-8.7</ele>
        <time>2016-01-09T11:47:58Z</time>
      </trkpt>
      <trkpt lat="47.22071" lon="-1.47489">
        <ele>-8</ele>
        <time>2016-01-09T11:48:01Z</time>
      </trkpt>
      <trkpt lat="47.22087" lon="-1.47472">
        <ele>-7.3</ele>
        <time>2016-01-09T11:48:04Z</time>
      </trkpt>
      <trkpt lat="47.22104" lon="-1.47458">
        <ele>-6.3</ele>
        <time>2016-01-09T11:48:07Z</time>
      </trkpt>
      <trkpt lat="47.22122" lon="-1.47443">
        <ele>-5.6</ele>
        <time>2016-01-09T11:48:10Z</time>
      </trkpt>
      <trkpt lat="47.22139" lon="-1.47428">
        <ele>-5</ele>
        <time>2016-01-09T11:48:13Z</time>
      </trkpt>
      <trkpt lat="47.22158" lon="-1.47413">
        <ele>-4.3</ele>
        <time>2016-01-09T11:48:16Z</time>
      </trkpt>
      <trkpt lat="47.22176" lon="-1.47399">
        <ele>-3.2</ele>
        <time>2016-01-09T11:48:19Z</time>
      </trkpt>
      <trkpt lat="47.22193" lon="-1.47384">
        <ele>-2.2</ele>
        <time>2016-01-09T11:48:22Z</time>
      </trkpt>
      <trkpt lat="47.22211" lon="-1.47368">
        <ele>-1.3</ele>
        <time>2016-01-09T11:48:25Z</time>
      </trkpt>
      <trkpt lat="47.2223" lon="-1.47354">
        <ele>-0.8</ele>
        <time>2016-01-09T11:48:28Z</time>
      </trkpt>
      <trkpt lat="47.2225" lon="-1.4734">
        <ele>-0.2</ele>
        <time>2016-01-09T11:48:31Z</time>
      </trkpt>
      <trkpt lat="47.22268" lon="-1.47326">
        <ele>0.1</ele>
        <time>2016-01-09T11:48:34Z</time>
      </trkpt>
      <trkpt lat="47.22284" lon="-1.47311">
        <ele>0.3</ele>
        <time>2016-01-09T11:48:37Z</time>
      </trkpt>
      <trkpt lat="47.22303" lon="-1.47296">
        <ele>0.6</ele>
        <time>2016-01-09T11:48:40Z</time>
      </trkpt>
      <trkpt lat="47.2232" lon="-1.4728">
        <ele>1</ele>
        <time>2016-01-09T11:48:43Z</time>
      </trkpt>
      <trkpt lat="47.22338" lon="-1.47265">
        <ele>1.4</ele>
        <time>2016-01-09T11:48:46Z</time>
      </trkpt>
      <trkpt lat="47.22356" lon="-1.4725">
        <ele>1.2</ele>
        <time>2016-01-09T11:48:49Z</time>
      </trkpt>
      <trkpt lat="47.22373" lon="-1.47235">
        <ele>1.7</ele>
        <time>2016-01-09T11:48:52Z</time>
      </trkpt>
      <trkpt lat="47.22389" lon="-1.47219">
        <ele>1.3</ele>
        <time>2016-01-09T11:48:55Z</time>
      </trkpt>
      <trkpt lat="47.22405" lon="-1.47203">
        <ele>0.7</ele>
        <time>2016-01-09T11:48:58Z</time>
      </trkpt>
      <trkpt lat="47.22422" lon="-1.47187">
        <ele>0.6</ele>
        <time>2016-01-09T11:49:01Z</time>
      </trkpt>
      <trkpt lat="47.22438" lon="-1.47172">
        <ele>0.6</ele>
        <time>2016-01-09T11:49:04Z</time>
      </trkpt>
      <trkpt lat="47.22454" lon="-1.47159">
        <ele>0.3</ele>
        <time>2016-01-09T11:49:07Z</time>
      </trkpt>
      <trkpt lat="47.2247" lon="-1.47147">
        <ele>0.2</ele>
        <time>2016-01-09T11:49:10Z</time>
      </trkpt>
      <trkpt lat="47.22487" lon="-1.47136">
        <ele>8.7</ele>
        <time>2016-01-09T11:49:13Z</time>
      </trkpt>
      <trkpt lat="47.22505" lon="-1.47129">
        <ele>-0.7</ele>
        <time>2016-01-09T11:49:16Z</time>
      </trkpt>
      <trkpt lat="47.22525" lon="-1.47125">
        <ele>-1</ele>
        <time>2016-01-09T11:49:19Z</time>
      </trkpt>
      <trkpt lat="47.22545" lon="-1.4712">
        <ele>-0.7</ele>
        <time>2016-01-09T11:49:22Z</time>
      </trkpt>
      <trkpt lat="47.22565" lon="-1.47114">
        <ele>0.1</ele>
        <time>2016-01-09T11:49:25Z</time>
      </trkpt>
      <trkpt lat="47.22584" lon="-1.47103">
        <ele>-0.2</ele>
        <time>2016-01-09T11:49:28Z</time>
      </trkpt>
      <trkpt lat="47.22601" lon="-1.47085">
        <ele>-0.6</ele>
        <time>2016-01-09T11:49:31Z</time>
      </trkpt>
      <trkpt lat="47.22615" lon="-1.47062">
        <ele>-1.2</ele>
        <time>2016-01-09T11:49:34Z</time>
      </trkpt>
      <trkpt lat="47.22629" lon="-1.47038">
        <ele>-1.4</ele>
        <time>2016-01-09T11:49:37Z</time>
      </trkpt>
      <trkpt lat="47.22644" lon="-1.47017">
        <ele>-1.1</ele>
        <time>2016-01-09T11:49:40Z</time>
      </trkpt>
      <trkpt lat="47.2266" lon="-1.46998">
        <ele>-1.5</ele>
        <time>2016-01-09T11:49:43Z</time>
      </trkpt>
      <trkpt lat="47.22678" lon="-1.46983">
        <ele>-1.4</ele>
        <time>2016-01-09T11:49:46Z</time>
      </trkpt>
      <trkpt lat="47.22695" lon="-1.46969">
        <ele>-1.2</ele>
        <time>2016-01-09T11:49:49Z</time>
      </trkpt>
      <trkpt lat="47.22714" lon="-1.46959">
        <ele>-1.7</ele>
        <time>2016-01-09T11:49:52Z</time>
      </trkpt>
      <trkpt lat="47.22734" lon="-1.46953">
        <ele>-2.3</ele>
        <time>2016-01-09T11:49:55Z</time>
      </trkpt>
      <trkpt lat="47.22754" lon="-1.46952">
        <ele>-2.6</ele>
        <time>2016-01-09T11:49:58Z</time>
      </trkpt>
      <trkpt lat="47.22776" lon="-1.46952">
        <ele>-3.2</ele>
        <time>2016-01-09T11:50:01Z</time>
      </trkpt>
      <trkpt lat="47.22796" lon="-1.46955">
        <ele>-4.3</ele>
        <time>2016-01-09T11:50:04Z</time>
      </trkpt>
      <trkpt lat="47.22815" lon="-1.46961">
        <ele>-4</ele>
        <time>2016-01-09T11:50:07Z</time>
      </trkpt>
      <trkpt lat="47.22834" lon="-1.4697">
        <ele>-3.8</ele>
        <time>2016-01-09T11:50:10Z</time>
      </trkpt>
      <trkpt lat="47.22851" lon="-1.46979">
        <ele>-3.8</ele>
        <time>2016-01-09T11:50:13Z</time>
      </trkpt>
      <trkpt lat="47.22869" lon="-1.46989">
        <ele>-4.1</ele>
        <time>2016-01-09T11:50:16Z</time>
      </trkpt>
      <trkpt lat="47.22887" lon="-1.46997">
        <ele>-4.3</ele>
        <time>2016-01-09T11:50:19Z</time>
      </trkpt>
      <trkpt lat="47.22906" lon="-1.46991">
        <ele>-5</ele>
        <time>2016-01-09T11:50:22Z</time>
      </trkpt>
      <trkpt lat="47.22917" lon="-1.46967">
        <ele>-6.4</ele>
        <time>2016-01-09T11:50:25Z</time>
      </trkpt>
      <trkpt lat="47.22923" lon="-1.4694">
        <ele>-7</ele>
        <time>2016-01-09T11:50:28Z</time>
      </trkpt>
      <trkpt lat="47.2293" lon="-1.46913">
        <ele>-7.6</ele>
        <time>2016-01-09T11:50:31Z</time>
      </trkpt>
      <trkpt lat="47.22937" lon="-1.46886">
        <ele>-7.7</ele>
        <time>2016-01-09T11:50:34Z</time>
      </trkpt>
      <trkpt lat="47.2295" lon="-1.4686">
        <ele>-8.2</ele>
        <time>2016-01-09T11:50:38Z</time>
      </trkpt>
      <trkpt lat="47.22961" lon="-1.46836">
        <ele>-8</ele>
        <time>2016-01-09T11:50:42Z</time>
      </trkpt>
      <trkpt lat="47.22978" lon="-1.4681">
        <ele>-8.1</ele>
        <time>2016-01-09T11:50:46Z</time>
      </trkpt>
      <trkpt lat="47.22991" lon="-1.46782">
        <ele>-7.9</ele>
        <time>2016-01-09T11:50:50Z</time>
      </trkpt>
      <trkpt lat="47.23009" lon="-1.46763">
        <ele>-8</ele>
        <time>2016-01-09T11:50:54Z</time>
      </trkpt>
      <trkpt lat="47.23026" lon="-1.46748">
        <ele>-7.9</ele>
        <time>2016-01-09T11:50:58Z</time>
      </trkpt>
      <trkpt lat="47.23043" lon="-1.46737">
        <ele>-8.8</ele>
        <time>2016-01-09T11:51:02Z</time>
      </trkpt>
      <trkpt lat="47.23043" lon="-1.46767">
        <ele>-11.3</ele>
        <time>2016-01-09T11:51:10Z</time>
      </trkpt>
      <trkpt lat="47.23045" lon="-1.46799">
        <ele>-10.2</ele>
        <time>2016-01-09T11:51:14Z</time>
      </trkpt>
      <trkpt lat="47.23045" lon="-1.46832">
        <ele>-10</ele>
        <time>2016-01-09T11:51:18Z</time>
      </trkpt>
      <trkpt lat="47.23045" lon="-1.46863">
        <ele>-9.9</ele>
        <time>2016-01-09T11:51:22Z</time>
      </trkpt>
      <trkpt lat="47.23044" lon="-1.46892">
        <ele>-9.7</ele>
        <time>2016-01-09T11:51:26Z</time>
      </trkpt>
      <trkpt lat="47.23039" lon="-1.46919">
        <ele>-9.4</ele>
        <time>2016-01-09T11:51:30Z</time>
      </trkpt>
      <trkpt lat="47.23052" lon="-1.46948">
        <ele>-9.6</ele>
        <time>2016-01-09T11:51:35Z</time>
      </trkpt>
      <trkpt lat="47.23063" lon="-1.4697">
        <ele>-8.9</ele>
        <time>2016-01-09T11:51:39Z</time>
      </trkpt>
      <trkpt lat="47.23075" lon="-1.46994">
        <ele>-8.1</ele>
        <time>2016-01-09T11:51:43Z</time>
      </trkpt>
      <trkpt lat="47.23087" lon="-1.47013">
        <ele>-6.9</ele>
        <time>2016-01-09T11:51:47Z</time>
      </trkpt>
      <trkpt lat="47.231" lon="-1.47033">
        <ele>-5.8</ele>
        <time>2016-01-09T11:51:51Z</time>
      </trkpt>
      <trkpt lat="47.23113" lon="-1.47055">
        <ele>-5</ele>
        <time>2016-01-09T11:51:55Z</time>
      </trkpt>
      <trkpt lat="47.23126" lon="-1.47081">
        <ele>-4.2</ele>
        <time>2016-01-09T11:52:00Z</time>
      </trkpt>
      <trkpt lat="47.23139" lon="-1.47106">
        <ele>-3.1</ele>
        <time>2016-01-09T11:52:05Z</time>
      </trkpt>
      <trkpt lat="47.23154" lon="-1.47129">
        <ele>-2.5</ele>
        <time>2016-01-09T11:52:10Z</time>
      </trkpt>
      <trkpt lat="47.23167" lon="-1.47152">
        <ele>-1.9</ele>
        <time>2016-01-09T11:52:14Z</time>
      </trkpt>
      <trkpt lat="47.2318" lon="-1.47174">
        <ele>-1.6</ele>
        <time>2016-01-09T11:52:18Z</time>
      </trkpt>
      <trkpt lat="47.23192" lon="-1.47197">
        <ele>-0.8</ele>
        <time>2016-01-09T11:52:22Z</time>
      </trkpt>
      <trkpt lat="47.23204" lon="-1.47218">
        <ele>-1.2</ele>
        <time>2016-01-09T11:52:26Z</time>
      </trkpt>
      <trkpt lat="47.23217" lon="-1.47241">
        <ele>-1.3</ele>
        <time>2016-01-09T11:52:30Z</time>
      </trkpt>
      <trkpt lat="47.23231" lon="-1.47262">
        <ele>-2</ele>
        <time>2016-01-09T11:52:34Z</time>
      </trkpt>
      <trkpt lat="47.23243" lon="-1.47284">
        <ele>-1.7</ele>
        <time>2016-01-09T11:52:38Z</time>
      </trkpt>
      <trkpt lat="47.23256" lon="-1.47309">
        <ele>-0.6</ele>
        <time>2016-01-09T11:52:42Z</time>
      </trkpt>
      <trkpt lat="47.23268" lon="-1.47332">
        <ele>1.3</ele>
        <time>2016-01-09T11:52:46Z</time>
      </trkpt>
      <trkpt lat="47.23282" lon="-1.47355">
        <ele>1.7</ele>
        <time>2016-01-09T11:52:50Z</time>
      </trkpt>
      <trkpt lat="47.23295" lon="-1.47379">
        <ele>2.2</ele>
        <time>2016-01-09T11:52:54Z</time>
      </trkpt>
      <trkpt lat="47.2331" lon="-1.47404">
        <ele>2.7</ele>
        <time>2016-01-09T11:52:58Z</time>
      </trkpt>
      <trkpt lat="47.23324" lon="-1.47429">
        <ele>3</ele>
        <time>2016-01-09T11:53:02Z</time>
      </trkpt>
      <trkpt lat="47.23339" lon="-1.47454">
        <ele>3.4</ele>
        <time>2016-01-09T11:53:06Z</time>
      </trkpt>
      <trkpt lat="47.23354" lon="-1.47481">
        <ele>3.5</ele>
        <time>2016-01-09T11:53:10Z</time>
      </trkpt>
      <trkpt lat="47.23366" lon="-1.475">
        <ele>3.2</ele>
        <time>2016-01-09T11:53:13Z</time>
      </trkpt>
      <trkpt lat="47.23382" lon="-1.47521">
        <ele>2.6</ele>
        <time>2016-01-09T11:53:16Z</time>
      </trkpt>
      <trkpt lat="47.23398" lon="-1.47545">
        <ele>2.6</ele>
        <time>2016-01-09T11:53:19Z</time>
      </trkpt>
      <trkpt lat="47.23413" lon="-1.4757">
        <ele>3.3</ele>
        <time>2016-01-09T11:53:22Z</time>
      </trkpt>
      <trkpt lat="47.23429" lon="-1.47595">
        <ele>2.8</ele>
        <time>2016-01-09T11:53:25Z</time>
      </trkpt>
      <trkpt lat="47.23446" lon="-1.47618">
        <ele>2.3</ele>
        <time>2016-01-09T11:53:28Z</time>
      </trkpt>
      <trkpt lat="47.23464" lon="-1.47641">
        <ele>2.1</ele>
        <time>2016-01-09T11:53:31Z</time>
      </trkpt>
      <trkpt lat="47.23481" lon="-1.4766">
        <ele>1.6</ele>
        <time>2016-01-09T11:53:34Z</time>
      </trkpt>
      <trkpt lat="47.23502" lon="-1.47675">
        <ele>1.2</ele>
        <time>2016-01-09T11:53:37Z</time>
      </trkpt>
      <trkpt lat="47.23523" lon="-1.47689">
        <ele>1.2</ele>
        <time>2016-01-09T11:53:40Z</time>
      </trkpt>
      <trkpt lat="47.23545" lon="-1.477">
        <ele>0.3</ele>
        <time>2016-01-09T11:53:43Z</time>
      </trkpt>
      <trkpt lat="47.23561" lon="-1.47687">
        <ele>0.6</ele>
        <time>2016-01-09T11:53:46Z</time>
      </trkpt>
      <trkpt lat="47.2356" lon="-1.47656">
        <ele>-1.3</ele>
        <time>2016-01-09T11:53:52Z</time>
      </trkpt>
      <trkpt lat="47.23545" lon="-1.47628">
        <ele>-1.7</ele>
        <time>2016-01-09T11:53:56Z</time>
      </trkpt>
      <trkpt lat="47.23532" lon="-1.47607">
        <ele>-1.8</ele>
        <time>2016-01-09T11:53:59Z</time>
      </trkpt>
      <trkpt lat="47.23518" lon="-1.47586">
        <ele>-2</ele>
        <time>2016-01-09T11:54:02Z</time>
      </trkpt>
      <trkpt lat="47.23505" lon="-1.47567">
        <ele>-2.1</ele>
        <time>2016-01-09T11:54:05Z</time>
      </trkpt>
      <trkpt lat="47.23491" lon="-1.47547">
        <ele>-2.3</ele>
        <time>2016-01-09T11:54:08Z</time>
      </trkpt>
      <trkpt lat="47.23475" lon="-1.47523">
        <ele>-2.9</ele>
        <time>2016-01-09T11:54:12Z</time>
      </trkpt>
      <trkpt lat="47.23458" lon="-1.47501">
        <ele>-3.7</ele>
        <time>2016-01-09T11:54:16Z</time>
      </trkpt>
      <trkpt lat="47.23442" lon="-1.47476">
        <ele>-4.2</ele>
        <time>2016-01-09T11:54:20Z</time>
      </trkpt>
      <trkpt lat="47.23427" lon="-1.47449">
        <ele>-4.8</ele>
        <time>2016-01-09T11:54:24Z</time>
      </trkpt>
      <trkpt lat="47.23409" lon="-1.47449">
        <ele>-5.5</ele>
        <time>2016-01-09T11:54:28Z</time>
      </trkpt>
      <trkpt lat="47.23388" lon="-1.47462">
        <ele>-5.2</ele>
        <time>2016-01-09T11:54:32Z</time>
      </trkpt>
      <trkpt lat="47.23367" lon="-1.47472">
        <ele>-4.7</ele>
        <time>2016-01-09T11:54:36Z</time>
      </trkpt>
      <trkpt lat="47.23347" lon="-1.47482">
        <ele>-4.7</ele>
        <time>2016-01-09T11:54:40Z</time>
      </trkpt>
      <trkpt lat="47.23328" lon="-1.47498">
        <ele>-4.7</ele>
        <time>2016-01-09T11:54:44Z</time>
      </trkpt>
      <trkpt lat="47.23308" lon="-1.47509">
        <ele>-4.5</ele>
        <time>2016-01-09T11:54:48Z</time>
      </trkpt>
      <trkpt lat="47.23286" lon="-1.47521">
        <ele>-4.1</ele>
        <time>2016-01-09T11:54:52Z</time>
      </trkpt>
      <trkpt lat="47.23269" lon="-1.47542">
        <ele>-3.7</ele>
        <time>2016-01-09T11:54:56Z</time>
      </trkpt>
      <trkpt lat="47.23254" lon="-1.47562">
        <ele>-3.2</ele>
        <time>2016-01-09T11:54:59Z</time>
      </trkpt>
      <trkpt lat="47.2324" lon="-1.47581">
        <ele>-2.6</ele>
        <time>2016-01-09T11:55:02Z</time>
      </trkpt>
      <trkpt lat="47.23227" lon="-1.47606">
        <ele>-1.9</ele>
        <time>2016-01-09T11:55:06Z</time>
      </trkpt>
      <trkpt lat="47.23217" lon="-1.4763">
        <ele>-1.3</ele>
        <time>2016-01-09T11:55:10Z</time>
      </trkpt>
      <trkpt lat="47.23205" lon="-1.47655">
        <ele>-0.2</ele>
        <time>2016-01-09T11:55:14Z</time>
      </trkpt>
      <trkpt lat="47.23196" lon="-1.47681">
        <ele>0.4</ele>
        <time>2016-01-09T11:55:18Z</time>
      </trkpt>
      <trkpt lat="47.23186" lon="-1.47709">
        <ele>0.9</ele>
        <time>2016-01-09T11:55:22Z</time>
      </trkpt>
      <trkpt lat="47.23174" lon="-1.47737">
        <ele>1.8</ele>
        <time>2016-01-09T11:55:26Z</time>
      </trkpt>
      <trkpt lat="47.23163" lon="-1.4776">
        <ele>2.2</ele>
        <time>2016-01-09T11:55:29Z</time>
      </trkpt>
      <trkpt lat="47.23154" lon="-1.47783">
        <ele>2.6</ele>
        <time>2016-01-09T11:55:32Z</time>
      </trkpt>
      <trkpt lat="47.23144" lon="-1.47808">
        <ele>2.1</ele>
        <time>2016-01-09T11:55:35Z</time>
      </trkpt>
      <trkpt lat="47.23133" lon="-1.4784">
        <ele>2</ele>
        <time>2016-01-09T11:55:39Z</time>
      </trkpt>
      <trkpt lat="47.23124" lon="-1.47862">
        <ele>2.4</ele>
        <time>2016-01-09T11:55:42Z</time>
      </trkpt>
      <trkpt lat="47.23109" lon="-1.47886">
        <ele>3</ele>
        <time>2016-01-09T11:55:46Z</time>
      </trkpt>
      <trkpt lat="47.23094" lon="-1.47908">
        <ele>3.6</ele>
        <time>2016-01-09T11:55:50Z</time>
      </trkpt>
      <trkpt lat="47.23078" lon="-1.47929">
        <ele>4.7</ele>
        <time>2016-01-09T11:55:54Z</time>
      </trkpt>
      <trkpt lat="47.23062" lon="-1.47949">
        <ele>5.8</ele>
        <time>2016-01-09T11:55:58Z</time>
      </trkpt>
      <trkpt lat="47.23046" lon="-1.47971">
        <ele>7</ele>
        <time>2016-01-09T11:56:02Z</time>
      </trkpt>
      <trkpt lat="47.23029" lon="-1.47996">
        <ele>8</ele>
        <time>2016-01-09T11:56:06Z</time>
      </trkpt>
      <trkpt lat="47.23009" lon="-1.48019">
        <ele>8.5</ele>
        <time>2016-01-09T11:56:10Z</time>
      </trkpt>
      <trkpt lat="47.22996" lon="-1.48039">
        <ele>8.7</ele>
        <time>2016-01-09T11:56:13Z</time>
      </trkpt>
      <trkpt lat="47.2298" lon="-1.48058">
        <ele>7.5</ele>
        <time>2016-01-09T11:56:16Z</time>
      </trkpt>
      <trkpt lat="47.22965" lon="-1.48084">
        <ele>7.1</ele>
        <time>2016-01-09T11:56:20Z</time>
      </trkpt>
      <trkpt lat="47.22947" lon="-1.48105">
        <ele>5.6</ele>
        <time>2016-01-09T11:56:24Z</time>
      </trkpt>
      <trkpt lat="47.22927" lon="-1.48114">
        <ele>5.1</ele>
        <time>2016-01-09T11:56:28Z</time>
      </trkpt>
      <trkpt lat="47.22908" lon="-1.4813">
        <ele>5.1</ele>
        <time>2016-01-09T11:56:32Z</time>
      </trkpt>
      <trkpt lat="47.22893" lon="-1.48152">
        <ele>5.8</ele>
        <time>2016-01-09T11:56:36Z</time>
      </trkpt>
      <trkpt lat="47.2288" lon="-1.48176">
        <ele>6.4</ele>
        <time>2016-01-09T11:56:40Z</time>
      </trkpt>
      <trkpt lat="47.22863" lon="-1.482">
        <ele>6.4</ele>
        <time>2016-01-09T11:56:44Z</time>
      </trkpt>
      <trkpt lat="47.22849" lon="-1.4822">
        <ele>5.6</ele>
        <time>2016-01-09T11:56:47Z</time>
      </trkpt>
      <trkpt lat="47.22834" lon="-1.48238">
        <ele>3.8</ele>
        <time>2016-01-09T11:56:50Z</time>
      </trkpt>
      <trkpt lat="47.22819" lon="-1.4826">
        <ele>2.6</ele>
        <time>2016-01-09T11:56:54Z</time>
      </trkpt>
      <trkpt lat="47.22805" lon="-1.48279">
        <ele>2.9</ele>
        <time>2016-01-09T11:56:57Z</time>
      </trkpt>
      <trkpt lat="47.22788" lon="-1.48304">
        <ele>2.6</ele>
        <time>2016-01-09T11:57:01Z</time>
      </trkpt>
      <trkpt lat="47.22773" lon="-1.48327">
        <ele>2.5</ele>
        <time>2016-01-09T11:57:05Z</time>
      </trkpt>
      <trkpt lat="47.2276" lon="-1.48346">
        <ele>1.9</ele>
        <time>2016-01-09T11:57:08Z</time>
      </trkpt>
      <trkpt lat="47.22743" lon="-1.4837">
        <ele>1.7</ele>
        <time>2016-01-09T11:57:12Z</time>
      </trkpt>
      <trkpt lat="47.22729" lon="-1.48389">
        <ele>0.8</ele>
        <time>2016-01-09T11:57:15Z</time>
      </trkpt>
      <trkpt lat="47.22714" lon="-1.48413">
        <ele>0.5</ele>
        <time>2016-01-09T11:57:19Z</time>
      </trkpt>
      <trkpt lat="47.22705" lon="-1.48435">
        <ele>0.9</ele>
        <time>2016-01-09T11:57:22Z</time>
      </trkpt>
      <trkpt lat="47.22696" lon="-1.48465">
        <ele>0.5</ele>
        <time>2016-01-09T11:57:26Z</time>
      </trkpt>
      <trkpt lat="47.22685" lon="-1.48495">
        <ele>-0.3</ele>
        <time>2016-01-09T11:57:30Z</time>
      </trkpt>
      <trkpt lat="47.22674" lon="-1.48524">
        <ele>-1.1</ele>
        <time>2016-01-09T11:57:34Z</time>
      </trkpt>
      <trkpt lat="47.22664" lon="-1.48553">
        <ele>-1.6</ele>
        <time>2016-01-09T11:57:38Z</time>
      </trkpt>
      <trkpt lat="47.22655" lon="-1.4858">
        <ele>-2.6</ele>
        <time>2016-01-09T11:57:42Z</time>
      </trkpt>
      <trkpt lat="47.22642" lon="-1.48605">
        <ele>-2.9</ele>
        <time>2016-01-09T11:57:46Z</time>
      </trkpt>
      <trkpt lat="47.22631" lon="-1.48635">
        <ele>-3.2</ele>
        <time>2016-01-09T11:57:50Z</time>
      </trkpt>
      <trkpt lat="47.22622" lon="-1.48667">
        <ele>-2.3</ele>
        <time>2016-01-09T11:57:54Z</time>
      </trkpt>
      <trkpt lat="47.22613" lon="-1.487">
        <ele>-2</ele>
        <time>2016-01-09T11:57:58Z</time>
      </trkpt>
      <trkpt lat="47.22605" lon="-1.48725">
        <ele>-1.9</ele>
        <time>2016-01-09T11:58:01Z</time>
      </trkpt>
      <trkpt lat="47.22599" lon="-1.4875">
        <ele>-2</ele>
        <time>2016-01-09T11:58:04Z</time>
      </trkpt>
      <trkpt lat="47.2259" lon="-1.48782">
        <ele>-1.1</ele>
        <time>2016-01-09T11:58:08Z</time>
      </trkpt>
      <trkpt lat="47.22578" lon="-1.48811">
        <ele>0.1</ele>
        <time>2016-01-09T11:58:12Z</time>
      </trkpt>
      <trkpt lat="47.22566" lon="-1.4884">
        <ele>1.3</ele>
        <time>2016-01-09T11:58:16Z</time>
      </trkpt>
      <trkpt lat="47.22557" lon="-1.48871">
        <ele>2</ele>
        <time>2016-01-09T11:58:20Z</time>
      </trkpt>
      <trkpt lat="47.22548" lon="-1.48901">
        <ele>3.1</ele>
        <time>2016-01-09T11:58:24Z</time>
      </trkpt>
      <trkpt lat="47.2254" lon="-1.48927">
        <ele>3.6</ele>
        <time>2016-01-09T11:58:27Z</time>
      </trkpt>
      <trkpt lat="47.22532" lon="-1.48951">
        <ele>4.2</ele>
        <time>2016-01-09T11:58:30Z</time>
      </trkpt>
      <trkpt lat="47.22521" lon="-1.48981">
        <ele>4.8</ele>
        <time>2016-01-09T11:58:34Z</time>
      </trkpt>
      <trkpt lat="47.22511" lon="-1.4901">
        <ele>6.1</ele>
        <time>2016-01-09T11:58:38Z</time>
      </trkpt>
      <trkpt lat="47.22504" lon="-1.49038">
        <ele>7.9</ele>
        <time>2016-01-09T11:58:42Z</time>
      </trkpt>
      <trkpt lat="47.22493" lon="-1.49064">
        <ele>9.7</ele>
        <time>2016-01-09T11:58:46Z</time>
      </trkpt>
      <trkpt lat="47.22483" lon="-1.49092">
        <ele>10.8</ele>
        <time>2016-01-09T11:58:50Z</time>
      </trkpt>
      <trkpt lat="47.22474" lon="-1.49121">
        <ele>10.9</ele>
        <time>2016-01-09T11:58:53Z</time>
      </trkpt>
      <trkpt lat="47.22466" lon="-1.49151">
        <ele>12.7</ele>
        <time>2016-01-09T11:58:57Z</time>
      </trkpt>
      <trkpt lat="47.22454" lon="-1.49179">
        <ele>14.5</ele>
        <time>2016-01-09T11:59:01Z</time>
      </trkpt>
      <trkpt lat="47.22444" lon="-1.4921">
        <ele>16</ele>
        <time>2016-01-09T11:59:05Z</time>
      </trkpt>
      <trkpt lat="47.22434" lon="-1.49233">
        <ele>17.6</ele>
        <time>2016-01-09T11:59:08Z</time>
      </trkpt>
      <trkpt lat="47.22422" lon="-1.49261">
        <ele>19.5</ele>
        <time>2016-01-09T11:59:12Z</time>
      </trkpt>
      <trkpt lat="47.22412" lon="-1.49291">
        <ele>20.6</ele>
        <time>2016-01-09T11:59:16Z</time>
      </trkpt>
      <trkpt lat="47.22403" lon="-1.49319">
        <ele>21.6</ele>
        <time>2016-01-09T11:59:20Z</time>
      </trkpt>
      <trkpt lat="47.22394" lon="-1.49348">
        <ele>23.2</ele>
        <time>2016-01-09T11:59:24Z</time>
      </trkpt>
      <trkpt lat="47.22385" lon="-1.49375">
        <ele>24</ele>
        <time>2016-01-09T11:59:28Z</time>
      </trkpt>
      <trkpt lat="47.22373" lon="-1.49401">
        <ele>24.5</ele>
        <time>2016-01-09T11:59:32Z</time>
      </trkpt>
      <trkpt lat="47.22362" lon="-1.49427">
        <ele>26.1</ele>
        <time>2016-01-09T11:59:36Z</time>
      </trkpt>
      <trkpt lat="47.22352" lon="-1.49456">
        <ele>26.8</ele>
        <time>2016-01-09T11:59:40Z</time>
      </trkpt>
      <trkpt lat="47.22343" lon="-1.49485">
        <ele>27.9</ele>
        <time>2016-01-09T11:59:44Z</time>
      </trkpt>
      <trkpt lat="47.22333" lon="-1.49513">
        <ele>27.9</ele>
        <time>2016-01-09T11:59:48Z</time>
      </trkpt>
      <trkpt lat="47.22322" lon="-1.49541">
        <ele>28.5</ele>
        <time>2016-01-09T11:59:52Z</time>
      </trkpt>
      <trkpt lat="47.2231" lon="-1.49571">
        <ele>28.2</ele>
        <time>2016-01-09T11:59:56Z</time>
      </trkpt>
      <trkpt lat="47.223" lon="-1.49593">
        <ele>28.5</ele>
        <time>2016-01-09T11:59:59Z</time>
      </trkpt>
      <trkpt lat="47.22293" lon="-1.49623">
        <ele>28.2</ele>
        <time>2016-01-09T12:00:03Z</time>
      </trkpt>
      <trkpt lat="47.22286" lon="-1.49654">
        <ele>27.7</ele>
        <time>2016-01-09T12:00:07Z</time>
      </trkpt>
      <trkpt lat="47.22277" lon="-1.49684">
        <ele>26</ele>
        <time>2016-01-09T12:00:11Z</time>
      </trkpt>
      <trkpt lat="47.22266" lon="-1.49714">
        <ele>24.2</ele>
        <time>2016-01-09T12:00:15Z</time>
      </trkpt>
      <trkpt lat="47.2226" lon="-1.4974">
        <ele>22.8</ele>
        <time>2016-01-09T12:00:18Z</time>
      </trkpt>
      <trkpt lat="47.22254" lon="-1.49765">
        <ele>21.2</ele>
        <time>2016-01-09T12:00:21Z</time>
      </trkpt>
      <trkpt lat="47.22246" lon="-1.49798">
        <ele>20.8</ele>
        <time>2016-01-09T12:00:25Z</time>
      </trkpt>
      <trkpt lat="47.2224" lon="-1.49824">
        <ele>19.5</ele>
        <time>2016-01-09T12:00:28Z</time>
      </trkpt>
      <trkpt lat="47.22235" lon="-1.49854">
        <ele>18.7</ele>
        <time>2016-01-09T12:00:32Z</time>
      </trkpt>
      <trkpt lat="47.2223" lon="-1.49885">
        <ele>18.6</ele>
        <time>2016-01-09T12:00:36Z</time>
      </trkpt>
      <trkpt lat="47.22224" lon="-1.49917">
        <ele>18.8</ele>
        <time>2016-01-09T12:00:40Z</time>
      </trkpt>
      <trkpt lat="47.22216" lon="-1.49947">
        <ele>18.5</ele>
        <time>2016-01-09T12:00:44Z</time>
      </trkpt>
      <trkpt lat="47.22209" lon="-1.49977">
        <ele>18.8</ele>
        <time>2016-01-09T12:00:48Z</time>
      </trkpt>
      <trkpt lat="47.22203" lon="-1.50002">
        <ele>19</ele>
        <time>2016-01-09T12:00:51Z</time>
      </trkpt>
      <trkpt lat="47.22196" lon="-1.50026">
        <ele>19.6</ele>
        <time>2016-01-09T12:00:54Z</time>
      </trkpt>
      <trkpt lat="47.22185" lon="-1.5006">
        <ele>19.1</ele>
        <time>2016-01-09T12:00:58Z</time>
      </trkpt>
      <trkpt lat="47.22179" lon="-1.50088">
        <ele>18.2</ele>
        <time>2016-01-09T12:01:01Z</time>
      </trkpt>
      <trkpt lat="47.22169" lon="-1.50119">
        <ele>17.9</ele>
        <time>2016-01-09T12:01:05Z</time>
      </trkpt>
      <trkpt lat="47.22158" lon="-1.50148">
        <ele>17.2</ele>
        <time>2016-01-09T12:01:09Z</time>
      </trkpt>
      <trkpt lat="47.22153" lon="-1.50178">
        <ele>16</ele>
        <time>2016-01-09T12:01:13Z</time>
      </trkpt>
      <trkpt lat="47.22146" lon="-1.50208">
        <ele>15.1</ele>
        <time>2016-01-09T12:01:17Z</time>
      </trkpt>
      <trkpt lat="47.22138" lon="-1.50235">
        <ele>14.7</ele>
        <time>2016-01-09T12:01:21Z</time>
      </trkpt>
      <trkpt lat="47.22128" lon="-1.50263">
        <ele>14.3</ele>
        <time>2016-01-09T12:01:25Z</time>
      </trkpt>
      <trkpt lat="47.22113" lon="-1.5029">
        <ele>13.8</ele>
        <time>2016-01-09T12:01:29Z</time>
      </trkpt>
      <trkpt lat="47.22101" lon="-1.50314">
        <ele>14.1</ele>
        <time>2016-01-09T12:01:33Z</time>
      </trkpt>
      <trkpt lat="47.22092" lon="-1.50341">
        <ele>14.4</ele>
        <time>2016-01-09T12:01:37Z</time>
      </trkpt>
      <trkpt lat="47.22085" lon="-1.5037">
        <ele>15.3</ele>
        <time>2016-01-09T12:01:41Z</time>
      </trkpt>
      <trkpt lat="47.22075" lon="-1.504">
        <ele>15.3</ele>
        <time>2016-01-09T12:01:45Z</time>
      </trkpt>
      <trkpt lat="47.22069" lon="-1.50427">
        <ele>15.7</ele>
        <time>2016-01-09T12:01:48Z</time>
      </trkpt>
      <trkpt lat="47.22065" lon="-1.50455">
        <ele>16.1</ele>
        <time>2016-01-09T12:01:51Z</time>
      </trkpt>
      <trkpt lat="47.22063" lon="-1.50482">
        <ele>16.8</ele>
        <time>2016-01-09T12:01:54Z</time>
      </trkpt>
      <trkpt lat="47.22061" lon="-1.50509">
        <ele>16.6</ele>
        <time>2016-01-09T12:01:57Z</time>
      </trkpt>
      <trkpt lat="47.22058" lon="-1.50536">
        <ele>17</ele>
        <time>2016-01-09T12:02:00Z</time>
      </trkpt>
      <trkpt lat="47.22051" lon="-1.50564">
        <ele>18.2</ele>
        <time>2016-01-09T12:02:03Z</time>
      </trkpt>
      <trkpt lat="47.22047" lon="-1.50598">
        <ele>18.7</ele>
        <time>2016-01-09T12:02:07Z</time>
      </trkpt>
      <trkpt lat="47.22046" lon="-1.50633">
        <ele>20</ele>
        <time>2016-01-09T12:02:11Z</time>
      </trkpt>
      <trkpt lat="47.22045" lon="-1.50663">
        <ele>21.4</ele>
        <time>2016-01-09T12:02:15Z</time>
      </trkpt>
      <trkpt lat="47.22043" lon="-1.50692">
        <ele>22.9</ele>
        <time>2016-01-09T12:02:19Z</time>
      </trkpt>
      <trkpt lat="47.22039" lon="-1.50723">
        <ele>24.8</ele>
        <time>2016-01-09T12:02:23Z</time>
      </trkpt>
      <trkpt lat="47.22034" lon="-1.50749">
        <ele>24.5</ele>
        <time>2016-01-09T12:02:26Z</time>
      </trkpt>
      <trkpt lat="47.22026" lon="-1.50773">
        <ele>25</ele>
        <time>2016-01-09T12:02:29Z</time>
      </trkpt>
      <trkpt lat="47.22016" lon="-1.50802">
        <ele>26.6</ele>
        <time>2016-01-09T12:02:33Z</time>
      </trkpt>
      <trkpt lat="47.22006" lon="-1.50825">
        <ele>27.1</ele>
        <time>2016-01-09T12:02:36Z</time>
      </trkpt>
      <trkpt lat="47.21996" lon="-1.50851">
        <ele>26.3</ele>
        <time>2016-01-09T12:02:39Z</time>
      </trkpt>
      <trkpt lat="47.21988" lon="-1.50884">
        <ele>26</ele>
        <time>2016-01-09T12:02:43Z</time>
      </trkpt>
      <trkpt lat="47.2198" lon="-1.50916">
        <ele>27</ele>
        <time>2016-01-09T12:02:47Z</time>
      </trkpt>
      <trkpt lat="47.21972" lon="-1.50942">
        <ele>28</ele>
        <time>2016-01-09T12:02:50Z</time>
      </trkpt>
      <trkpt lat="47.21962" lon="-1.50973">
        <ele>27.5</ele>
        <time>2016-01-09T12:02:54Z</time>
      </trkpt>
      <trkpt lat="47.21955" lon="-1.50998">
        <ele>25.7</ele>
        <time>2016-01-09T12:02:57Z</time>
      </trkpt>
      <trkpt lat="47.21948" lon="-1.51023">
        <ele>22.4</ele>
        <time>2016-01-09T12:03:00Z</time>
      </trkpt>
      <trkpt lat="47.21938" lon="-1.51049">
        <ele>20.8</ele>
        <time>2016-01-09T12:03:04Z</time>
      </trkpt>
      <trkpt lat="47.21927" lon="-1.51078">
        <ele>18.5</ele>
        <time>2016-01-09T12:03:08Z</time>
      </trkpt>
      <trkpt lat="47.21917" lon="-1.5111">
        <ele>15.7</ele>
        <time>2016-01-09T12:03:12Z</time>
      </trkpt>
      <trkpt lat="47.21908" lon="-1.5114">
        <ele>13.3</ele>
        <time>2016-01-09T12:03:16Z</time>
      </trkpt>
      <trkpt lat="47.21899" lon="-1.51171">
        <ele>11.5</ele>
        <time>2016-01-09T12:03:20Z</time>
      </trkpt>
      <trkpt lat="47.21891" lon="-1.512">
        <ele>9.3</ele>
        <time>2016-01-09T12:03:24Z</time>
      </trkpt>
      <trkpt lat="47.21881" lon="-1.51229">
        <ele>8.3</ele>
        <time>2016-01-09T12:03:28Z</time>
      </trkpt>
      <trkpt lat="47.21872" lon="-1.51258">
        <ele>7.4</ele>
        <time>2016-01-09T12:03:32Z</time>
      </trkpt>
      <trkpt lat="47.21864" lon="-1.51286">
        <ele>8.1</ele>
        <time>2016-01-09T12:03:36Z</time>
      </trkpt>
      <trkpt lat="47.21855" lon="-1.51311">
        <ele>9.5</ele>
        <time>2016-01-09T12:03:40Z</time>
      </trkpt>
      <trkpt lat="47.21847" lon="-1.51337">
        <ele>10.3</ele>
        <time>2016-01-09T12:03:44Z</time>
      </trkpt>
      <trkpt lat="47.21841" lon="-1.51366">
        <ele>9.3</ele>
        <time>2016-01-09T12:03:48Z</time>
      </trkpt>
      <trkpt lat="47.21833" lon="-1.51395">
        <ele>9.6</ele>
        <time>2016-01-09T12:03:52Z</time>
      </trkpt>
      <trkpt lat="47.21827" lon="-1.51425">
        <ele>8.9</ele>
        <time>2016-01-09T12:03:56Z</time>
      </trkpt>
      <trkpt lat="47.21821" lon="-1.51455">
        <ele>8.8</ele>
        <time>2016-01-09T12:04:00Z</time>
      </trkpt>
      <trkpt lat="47.21815" lon="-1.51484">
        <ele>8.9</ele>
        <time>2016-01-09T12:04:04Z</time>
      </trkpt>
      <trkpt lat="47.21805" lon="-1.51508">
        <ele>8.3</ele>
        <time>2016-01-09T12:04:08Z</time>
      </trkpt>
      <trkpt lat="47.21795" lon="-1.51533">
        <ele>7</ele>
        <time>2016-01-09T12:04:12Z</time>
      </trkpt>
      <trkpt lat="47.21786" lon="-1.51558">
        <ele>4.7</ele>
        <time>2016-01-09T12:04:16Z</time>
      </trkpt>
      <trkpt lat="47.21775" lon="-1.51581">
        <ele>2.9</ele>
        <time>2016-01-09T12:04:20Z</time>
      </trkpt>
      <trkpt lat="47.2176" lon="-1.51602">
        <ele>1.1</ele>
        <time>2016-01-09T12:04:24Z</time>
      </trkpt>
      <trkpt lat="47.21749" lon="-1.51625">
        <ele>-0.1</ele>
        <time>2016-01-09T12:04:28Z</time>
      </trkpt>
      <trkpt lat="47.21738" lon="-1.5165">
        <ele>0.6</ele>
        <time>2016-01-09T12:04:32Z</time>
      </trkpt>
      <trkpt lat="47.21727" lon="-1.51676">
        <ele>0.4</ele>
        <time>2016-01-09T12:04:36Z</time>
      </trkpt>
      <trkpt lat="47.21715" lon="-1.51701">
        <ele>1.2</ele>
        <time>2016-01-09T12:04:40Z</time>
      </trkpt>
      <trkpt lat="47.21704" lon="-1.51724">
        <ele>1.8</ele>
        <time>2016-01-09T12:04:44Z</time>
      </trkpt>
      <trkpt lat="47.21691" lon="-1.51751">
        <ele>2</ele>
        <time>2016-01-09T12:04:48Z</time>
      </trkpt>
      <trkpt lat="47.21678" lon="-1.51778">
        <ele>2.5</ele>
        <time>2016-01-09T12:04:52Z</time>
      </trkpt>
      <trkpt lat="47.21667" lon="-1.51804">
        <ele>3.4</ele>
        <time>2016-01-09T12:04:56Z</time>
      </trkpt>
      <trkpt lat="47.21654" lon="-1.5183">
        <ele>4.6</ele>
        <time>2016-01-09T12:05:00Z</time>
      </trkpt>
      <trkpt lat="47.21647" lon="-1.51859">
        <ele>5.1</ele>
        <time>2016-01-09T12:05:04Z</time>
      </trkpt>
      <trkpt lat="47.2164" lon="-1.51888">
        <ele>5.2</ele>
        <time>2016-01-09T12:05:08Z</time>
      </trkpt>
      <trkpt lat="47.21632" lon="-1.51917">
        <ele>5.9</ele>
        <time>2016-01-09T12:05:12Z</time>
      </trkpt>
      <trkpt lat="47.21625" lon="-1.51946">
        <ele>6.7</ele>
        <time>2016-01-09T12:05:16Z</time>
      </trkpt>
      <trkpt lat="47.21618" lon="-1.51971">
        <ele>5</ele>
        <time>2016-01-09T12:05:19Z</time>
      </trkpt>
      <trkpt lat="47.21606" lon="-1.51995">
        <ele>3.8</ele>
        <time>2016-01-09T12:05:23Z</time>
      </trkpt>
      <trkpt lat="47.21595" lon="-1.52025">
        <ele>2.3</ele>
        <time>2016-01-09T12:05:27Z</time>
      </trkpt>
      <trkpt lat="47.21585" lon="-1.52054">
        <ele>2.9</ele>
        <time>2016-01-09T12:05:31Z</time>
      </trkpt>
      <trkpt lat="47.21577" lon="-1.52081">
        <ele>2.7</ele>
        <time>2016-01-09T12:05:35Z</time>
      </trkpt>
      <trkpt lat="47.21568" lon="-1.52109">
        <ele>3.2</ele>
        <time>2016-01-09T12:05:39Z</time>
      </trkpt>
      <trkpt lat="47.21559" lon="-1.52136">
        <ele>3.6</ele>
        <time>2016-01-09T12:05:43Z</time>
      </trkpt>
      <trkpt lat="47.21549" lon="-1.52164">
        <ele>4.2</ele>
        <time>2016-01-09T12:05:47Z</time>
      </trkpt>
      <trkpt lat="47.2154" lon="-1.52193">
        <ele>4.1</ele>
        <time>2016-01-09T12:05:51Z</time>
      </trkpt>
      <trkpt lat="47.21529" lon="-1.52221">
        <ele>3.8</ele>
        <time>2016-01-09T12:05:55Z</time>
      </trkpt>
      <trkpt lat="47.2152" lon="-1.52249">
        <ele>4</ele>
        <time>2016-01-09T12:05:59Z</time>
      </trkpt>
      <trkpt lat="47.2151" lon="-1.52278">
        <ele>3.8</ele>
        <time>2016-01-09T12:06:03Z</time>
      </trkpt>
      <trkpt lat="47.21501" lon="-1.52311">
        <ele>3</ele>
        <time>2016-01-09T12:06:07Z</time>
      </trkpt>
      <trkpt lat="47.21493" lon="-1.52335">
        <ele>3.7</ele>
        <time>2016-01-09T12:06:10Z</time>
      </trkpt>
      <trkpt lat="47.21484" lon="-1.52367">
        <ele>3.8</ele>
        <time>2016-01-09T12:06:14Z</time>
      </trkpt>
      <trkpt lat="47.21474" lon="-1.52398">
        <ele>4.3</ele>
        <time>2016-01-09T12:06:18Z</time>
      </trkpt>
      <trkpt lat="47.21464" lon="-1.52427">
        <ele>3.2</ele>
        <time>2016-01-09T12:06:22Z</time>
      </trkpt>
      <trkpt lat="47.21455" lon="-1.52457">
        <ele>3.3</ele>
        <time>2016-01-09T12:06:26Z</time>
      </trkpt>
      <trkpt lat="47.21445" lon="-1.52488">
        <ele>3.1</ele>
        <time>2016-01-09T12:06:30Z</time>
      </trkpt>
      <trkpt lat="47.21436" lon="-1.52518">
        <ele>2.9</ele>
        <time>2016-01-09T12:06:34Z</time>
      </trkpt>
      <trkpt lat="47.21427" lon="-1.52548">
        <ele>2.6</ele>
        <time>2016-01-09T12:06:38Z</time>
      </trkpt>
      <trkpt lat="47.21417" lon="-1.52576">
        <ele>2.7</ele>
        <time>2016-01-09T12:06:42Z</time>
      </trkpt>
      <trkpt lat="47.21408" lon="-1.52602">
        <ele>2.1</ele>
        <time>2016-01-09T12:06:46Z</time>
      </trkpt>
      <trkpt lat="47.214" lon="-1.52631">
        <ele>2</ele>
        <time>2016-01-09T12:06:50Z</time>
      </trkpt>
      <trkpt lat="47.21391" lon="-1.52661">
        <ele>1.6</ele>
        <time>2016-01-09T12:06:54Z</time>
      </trkpt>
      <trkpt lat="47.21382" lon="-1.52691">
        <ele>1.4</ele>
        <time>2016-01-09T12:06:58Z</time>
      </trkpt>
      <trkpt lat="47.21374" lon="-1.52721">
        <ele>1.7</ele>
        <time>2016-01-09T12:07:02Z</time>
      </trkpt>
      <trkpt lat="47.2137" lon="-1.52753">
        <ele>1.9</ele>
        <time>2016-01-09T12:07:06Z</time>
      </trkpt>
      <trkpt lat="47.21365" lon="-1.52786">
        <ele>1.9</ele>
        <time>2016-01-09T12:07:10Z</time>
      </trkpt>
      <trkpt lat="47.2136" lon="-1.52815">
        <ele>1.7</ele>
        <time>2016-01-09T12:07:14Z</time>
      </trkpt>
      <trkpt lat="47.21353" lon="-1.52847">
        <ele>2.3</ele>
        <time>2016-01-09T12:07:18Z</time>
      </trkpt>
      <trkpt lat="47.21347" lon="-1.5288">
        <ele>2.2</ele>
        <time>2016-01-09T12:07:22Z</time>
      </trkpt>
      <trkpt lat="47.21343" lon="-1.52912">
        <ele>1.5</ele>
        <time>2016-01-09T12:07:26Z</time>
      </trkpt>
      <trkpt lat="47.21342" lon="-1.52943">
        <ele>1.3</ele>
        <time>2016-01-09T12:07:30Z</time>
      </trkpt>
      <trkpt lat="47.21341" lon="-1.52971">
        <ele>1.5</ele>
        <time>2016-01-09T12:07:34Z</time>
      </trkpt>
      <trkpt lat="47.21337" lon="-1.53003">
        <ele>1.1</ele>
        <time>2016-01-09T12:07:38Z</time>
      </trkpt>
      <trkpt lat="47.21334" lon="-1.53037">
        <ele>0.2</ele>
        <time>2016-01-09T12:07:42Z</time>
      </trkpt>
      <trkpt lat="47.21332" lon="-1.53071">
        <ele>0.6</ele>
        <time>2016-01-09T12:07:46Z</time>
      </trkpt>
      <trkpt lat="47.21329" lon="-1.53101">
        <ele>0.6</ele>
        <time>2016-01-09T12:07:50Z</time>
      </trkpt>
      <trkpt lat="47.21322" lon="-1.53132">
        <ele>0.6</ele>
        <time>2016-01-09T12:07:54Z</time>
      </trkpt>
      <trkpt lat="47.21317" lon="-1.53163">
        <ele>1</ele>
        <time>2016-01-09T12:07:58Z</time>
      </trkpt>
      <trkpt lat="47.21314" lon="-1.53195">
        <ele>0.6</ele>
        <time>2016-01-09T12:08:02Z</time>
      </trkpt>
      <trkpt lat="47.21312" lon="-1.53228">
        <ele>0.6</ele>
        <time>2016-01-09T12:08:06Z</time>
      </trkpt>
      <trkpt lat="47.21311" lon="-1.53261">
        <ele>1.2</ele>
        <time>2016-01-09T12:08:10Z</time>
      </trkpt>
      <trkpt lat="47.2131" lon="-1.53294">
        <ele>2</ele>
        <time>2016-01-09T12:08:14Z</time>
      </trkpt>
      <trkpt lat="47.21306" lon="-1.53327">
        <ele>2.1</ele>
        <time>2016-01-09T12:08:18Z</time>
      </trkpt>
      <trkpt lat="47.21301" lon="-1.53353">
        <ele>2.7</ele>
        <time>2016-01-09T12:08:21Z</time>
      </trkpt>
      <trkpt lat="47.21296" lon="-1.53384">
        <ele>3.6</ele>
        <time>2016-01-09T12:08:25Z</time>
      </trkpt>
      <trkpt lat="47.21294" lon="-1.53414">
        <ele>3.7</ele>
        <time>2016-01-09T12:08:29Z</time>
      </trkpt>
      <trkpt lat="47.21291" lon="-1.53448">
        <ele>4</ele>
        <time>2016-01-09T12:08:33Z</time>
      </trkpt>
      <trkpt lat="47.21298" lon="-1.53476">
        <ele>3.9</ele>
        <time>2016-01-09T12:08:37Z</time>
      </trkpt>
      <trkpt lat="47.213" lon="-1.53505">
        <ele>3.6</ele>
        <time>2016-01-09T12:08:41Z</time>
      </trkpt>
      <trkpt lat="47.21302" lon="-1.53534">
        <ele>3.5</ele>
        <time>2016-01-09T12:08:45Z</time>
      </trkpt>
      <trkpt lat="47.21302" lon="-1.53563">
        <ele>3.5</ele>
        <time>2016-01-09T12:08:49Z</time>
      </trkpt>
      <trkpt lat="47.21302" lon="-1.53594">
        <ele>3.6</ele>
        <time>2016-01-09T12:08:53Z</time>
      </trkpt>
      <trkpt lat="47.21303" lon="-1.53622">
        <ele>3.1</ele>
        <time>2016-01-09T12:08:58Z</time>
      </trkpt>
      <trkpt lat="47.21315" lon="-1.53642">
        <ele>1.8</ele>
        <time>2016-01-09T12:09:07Z</time>
      </trkpt>
      <trkpt lat="47.21323" lon="-1.53673">
        <ele>2.2</ele>
        <time>2016-01-09T12:09:11Z</time>
      </trkpt>
      <trkpt lat="47.21329" lon="-1.53706">
        <ele>2.5</ele>
        <time>2016-01-09T12:09:15Z</time>
      </trkpt>
      <trkpt lat="47.21325" lon="-1.53738">
        <ele>2.6</ele>
        <time>2016-01-09T12:09:19Z</time>
      </trkpt>
      <trkpt lat="47.21325" lon="-1.5377">
        <ele>2.8</ele>
        <time>2016-01-09T12:09:23Z</time>
      </trkpt>
      <trkpt lat="47.21327" lon="-1.53803">
        <ele>3</ele>
        <time>2016-01-09T12:09:27Z</time>
      </trkpt>
      <trkpt lat="47.21334" lon="-1.53838">
        <ele>3.4</ele>
        <time>2016-01-09T12:09:31Z</time>
      </trkpt>
      <trkpt lat="47.21337" lon="-1.53871">
        <ele>4.1</ele>
        <time>2016-01-09T12:09:35Z</time>
      </trkpt>
      <trkpt lat="47.21342" lon="-1.53902">
        <ele>4.8</ele>
        <time>2016-01-09T12:09:39Z</time>
      </trkpt>
      <trkpt lat="47.21357" lon="-1.53927">
        <ele>5.7</ele>
        <time>2016-01-09T12:09:43Z</time>
      </trkpt>
      <trkpt lat="47.21379" lon="-1.53936">
        <ele>6.2</ele>
        <time>2016-01-09T12:09:47Z</time>
      </trkpt>
      <trkpt lat="47.21383" lon="-1.53966">
        <ele>6.5</ele>
        <time>2016-01-09T12:09:51Z</time>
      </trkpt>
      <trkpt lat="47.21383" lon="-1.53997">
        <ele>6.6</ele>
        <time>2016-01-09T12:09:55Z</time>
      </trkpt>
      <trkpt lat="47.21397" lon="-1.54022">
        <ele>6.5</ele>
        <time>2016-01-09T12:09:59Z</time>
      </trkpt>
      <trkpt lat="47.2141" lon="-1.54047">
        <ele>6.2</ele>
        <time>2016-01-09T12:10:03Z</time>
      </trkpt>
      <trkpt lat="47.21426" lon="-1.54072">
        <ele>6.1</ele>
        <time>2016-01-09T12:10:07Z</time>
      </trkpt>
      <trkpt lat="47.2144" lon="-1.54095">
        <ele>6.1</ele>
        <time>2016-01-09T12:10:11Z</time>
      </trkpt>
      <trkpt lat="47.21451" lon="-1.54122">
        <ele>6.3</ele>
        <time>2016-01-09T12:10:15Z</time>
      </trkpt>
      <trkpt lat="47.21466" lon="-1.54148">
        <ele>6.3</ele>
        <time>2016-01-09T12:10:19Z</time>
      </trkpt>
      <trkpt lat="47.21479" lon="-1.54166">
        <ele>6.4</ele>
        <time>2016-01-09T12:10:22Z</time>
      </trkpt>
      <trkpt lat="47.21495" lon="-1.5418">
        <ele>6</ele>
        <time>2016-01-09T12:10:25Z</time>
      </trkpt>
      <trkpt lat="47.21514" lon="-1.54195">
        <ele>6.4</ele>
        <time>2016-01-09T12:10:29Z</time>
      </trkpt>
      <trkpt lat="47.21528" lon="-1.54212">
        <ele>6.6</ele>
        <time>2016-01-09T12:10:32Z</time>
      </trkpt>
      <trkpt lat="47.21542" lon="-1.54234">
        <ele>6.3</ele>
        <time>2016-01-09T12:10:35Z</time>
      </trkpt>
      <trkpt lat="47.21558" lon="-1.54246">
        <ele>5.7</ele>
        <time>2016-01-09T12:10:38Z</time>
      </trkpt>
      <trkpt lat="47.21578" lon="-1.54256">
        <ele>5.6</ele>
        <time>2016-01-09T12:10:42Z</time>
      </trkpt>
      <trkpt lat="47.21581" lon="-1.54286">
        <ele>5.3</ele>
        <time>2016-01-09T12:10:46Z</time>
      </trkpt>
      <trkpt lat="47.21593" lon="-1.54311">
        <ele>5.1</ele>
        <time>2016-01-09T12:10:50Z</time>
      </trkpt>
      <trkpt lat="47.21602" lon="-1.54339">
        <ele>5.3</ele>
        <time>2016-01-09T12:10:54Z</time>
      </trkpt>
      <trkpt lat="47.21608" lon="-1.54369">
        <ele>5.5</ele>
        <time>2016-01-09T12:10:58Z</time>
      </trkpt>
      <trkpt lat="47.21612" lon="-1.54402">
        <ele>6.1</ele>
        <time>2016-01-09T12:11:02Z</time>
      </trkpt>
      <trkpt lat="47.21612" lon="-1.54429">
        <ele>6</ele>
        <time>2016-01-09T12:11:05Z</time>
      </trkpt>
      <trkpt lat="47.21611" lon="-1.54462">
        <ele>5.8</ele>
        <time>2016-01-09T12:11:09Z</time>
      </trkpt>
      <trkpt lat="47.21607" lon="-1.54491">
        <ele>5.6</ele>
        <time>2016-01-09T12:11:13Z</time>
      </trkpt>
      <trkpt lat="47.21599" lon="-1.5452">
        <ele>5.7</ele>
        <time>2016-01-09T12:11:17Z</time>
      </trkpt>
      <trkpt lat="47.21588" lon="-1.54548">
        <ele>5.3</ele>
        <time>2016-01-09T12:11:21Z</time>
      </trkpt>
      <trkpt lat="47.21579" lon="-1.54574">
        <ele>5.3</ele>
        <time>2016-01-09T12:11:25Z</time>
      </trkpt>
      <trkpt lat="47.21569" lon="-1.54602">
        <ele>5.2</ele>
        <time>2016-01-09T12:11:29Z</time>
      </trkpt>
      <trkpt lat="47.21559" lon="-1.5463">
        <ele>5.4</ele>
        <time>2016-01-09T12:11:33Z</time>
      </trkpt>
      <trkpt lat="47.21551" lon="-1.54656">
        <ele>5.7</ele>
        <time>2016-01-09T12:11:37Z</time>
      </trkpt>
      <trkpt lat="47.21539" lon="-1.54688">
        <ele>6.5</ele>
        <time>2016-01-09T12:11:42Z</time>
      </trkpt>
      <trkpt lat="47.21527" lon="-1.54717">
        <ele>7.8</ele>
        <time>2016-01-09T12:11:46Z</time>
      </trkpt>
      <trkpt lat="47.21511" lon="-1.54741">
        <ele>8.8</ele>
        <time>2016-01-09T12:11:50Z</time>
      </trkpt>
      <trkpt lat="47.21499" lon="-1.54765">
        <ele>9.7</ele>
        <time>2016-01-09T12:11:54Z</time>
      </trkpt>
      <trkpt lat="47.21488" lon="-1.54792">
        <ele>10.9</ele>
        <time>2016-01-09T12:11:58Z</time>
      </trkpt>
      <trkpt lat="47.21476" lon="-1.54817">
        <ele>12</ele>
        <time>2016-01-09T12:12:02Z</time>
      </trkpt>
      <trkpt lat="47.21465" lon="-1.54841">
        <ele>13.1</ele>
        <time>2016-01-09T12:12:06Z</time>
      </trkpt>
      <trkpt lat="47.21456" lon="-1.54866">
        <ele>14.3</ele>
        <time>2016-01-09T12:12:10Z</time>
      </trkpt>
      <trkpt lat="47.21442" lon="-1.54888">
        <ele>15.5</ele>
        <time>2016-01-09T12:12:14Z</time>
      </trkpt>
      <trkpt lat="47.2143" lon="-1.5491">
        <ele>16.6</ele>
        <time>2016-01-09T12:12:18Z</time>
      </trkpt>
      <trkpt lat="47.21418" lon="-1.54937">
        <ele>18</ele>
        <time>2016-01-09T12:12:22Z</time>
      </trkpt>
      <trkpt lat="47.21408" lon="-1.5496">
        <ele>18.6</ele>
        <time>2016-01-09T12:12:26Z</time>
      </trkpt>
      <trkpt lat="47.21395" lon="-1.54987">
        <ele>19.4</ele>
        <time>2016-01-09T12:12:31Z</time>
      </trkpt>
      <trkpt lat="47.21384" lon="-1.55009">
        <ele>19.9</ele>
        <time>2016-01-09T12:12:35Z</time>
      </trkpt>
      <trkpt lat="47.21374" lon="-1.55036">
        <ele>20.8</ele>
        <time>2016-01-09T12:12:39Z</time>
      </trkpt>
      <trkpt lat="47.21365" lon="-1.55063">
        <ele>21.5</ele>
        <time>2016-01-09T12:12:43Z</time>
      </trkpt>
      <trkpt lat="47.21354" lon="-1.55085">
        <ele>21.6</ele>
        <time>2016-01-09T12:12:47Z</time>
      </trkpt>
      <trkpt lat="47.21346" lon="-1.5511">
        <ele>22.3</ele>
        <time>2016-01-09T12:12:51Z</time>
      </trkpt>
      <trkpt lat="47.21335" lon="-1.55135">
        <ele>22.9</ele>
        <time>2016-01-09T12:12:55Z</time>
      </trkpt>
      <trkpt lat="47.21325" lon="-1.55159">
        <ele>23.4</ele>
        <time>2016-01-09T12:12:59Z</time>
      </trkpt>
      <trkpt lat="47.21315" lon="-1.55181">
        <ele>24.2</ele>
        <time>2016-01-09T12:13:03Z</time>
      </trkpt>
      <trkpt lat="47.21303" lon="-1.55208">
        <ele>24.9</ele>
        <time>2016-01-09T12:13:08Z</time>
      </trkpt>
      <trkpt lat="47.21293" lon="-1.55234">
        <ele>24.9</ele>
        <time>2016-01-09T12:13:12Z</time>
      </trkpt>
      <trkpt lat="47.21283" lon="-1.55263">
        <ele>25.7</ele>
        <time>2016-01-09T12:13:17Z</time>
      </trkpt>
      <trkpt lat="47.21276" lon="-1.55288">
        <ele>25.6</ele>
        <time>2016-01-09T12:13:22Z</time>
      </trkpt>
      <trkpt lat="47.21268" lon="-1.55312">
        <ele>24.4</ele>
        <time>2016-01-09T12:13:27Z</time>
      </trkpt>
      <trkpt lat="47.21277" lon="-1.55341">
        <ele>22</ele>
        <time>2016-01-09T12:13:33Z</time>
      </trkpt>
      <trkpt lat="47.21278" lon="-1.55368">
        <ele>21.3</ele>
        <time>2016-01-09T12:13:37Z</time>
      </trkpt>
      <trkpt lat="47.21266" lon="-1.55394">
        <ele>21</ele>
        <time>2016-01-09T12:13:41Z</time>
      </trkpt>
      <trkpt lat="47.21254" lon="-1.55421">
        <ele>20.6</ele>
        <time>2016-01-09T12:13:46Z</time>
      </trkpt>
      <trkpt lat="47.2124" lon="-1.55441">
        <ele>20.3</ele>
        <time>2016-01-09T12:13:49Z</time>
      </trkpt>
      <trkpt lat="47.21225" lon="-1.55462">
        <ele>20</ele>
        <time>2016-01-09T12:13:52Z</time>
      </trkpt>
      <trkpt lat="47.21213" lon="-1.55491">
        <ele>19.7</ele>
        <time>2016-01-09T12:13:56Z</time>
      </trkpt>
      <trkpt lat="47.21204" lon="-1.55519">
        <ele>19.8</ele>
        <time>2016-01-09T12:14:00Z</time>
      </trkpt>
      <trkpt lat="47.21196" lon="-1.55549">
        <ele>18.8</ele>
        <time>2016-01-09T12:14:04Z</time>
      </trkpt>
      <trkpt lat="47.21188" lon="-1.55578">
        <ele>17.7</ele>
        <time>2016-01-09T12:14:08Z</time>
      </trkpt>
      <trkpt lat="47.21181" lon="-1.55607">
        <ele>16.4</ele>
        <time>2016-01-09T12:14:12Z</time>
      </trkpt>
      <trkpt lat="47.21173" lon="-1.55634">
        <ele>15.5</ele>
        <time>2016-01-09T12:14:16Z</time>
      </trkpt>
      <trkpt lat="47.21172" lon="-1.55665">
        <ele>12.6</ele>
        <time>2016-01-09T12:14:20Z</time>
      </trkpt>
      <trkpt lat="47.21176" lon="-1.55691">
        <ele>11.6</ele>
        <time>2016-01-09T12:14:23Z</time>
      </trkpt>
      <trkpt lat="47.2117" lon="-1.55724">
        <ele>11.1</ele>
        <time>2016-01-09T12:14:27Z</time>
      </trkpt>
      <trkpt lat="47.21161" lon="-1.55749">
        <ele>10.2</ele>
        <time>2016-01-09T12:14:30Z</time>
      </trkpt>
      <trkpt lat="47.21151" lon="-1.55778">
        <ele>8.4</ele>
        <time>2016-01-09T12:14:34Z</time>
      </trkpt>
      <trkpt lat="47.21145" lon="-1.55811">
        <ele>6.6</ele>
        <time>2016-01-09T12:14:38Z</time>
      </trkpt>
      <trkpt lat="47.21143" lon="-1.55846">
        <ele>4.7</ele>
        <time>2016-01-09T12:14:42Z</time>
      </trkpt>
      <trkpt lat="47.21151" lon="-1.55876">
        <ele>3.8</ele>
        <time>2016-01-09T12:14:46Z</time>
      </trkpt>
      <trkpt lat="47.21152" lon="-1.55903">
        <ele>3.6</ele>
        <time>2016-01-09T12:14:50Z</time>
      </trkpt>
      <trkpt lat="47.21134" lon="-1.55919">
        <ele>4.2</ele>
        <time>2016-01-09T12:14:57Z</time>
      </trkpt>
      <trkpt lat="47.21115" lon="-1.55932">
        <ele>4.1</ele>
        <time>2016-01-09T12:15:01Z</time>
      </trkpt>
      <trkpt lat="47.21097" lon="-1.55949">
        <ele>3.7</ele>
        <time>2016-01-09T12:15:05Z</time>
      </trkpt>
      <trkpt lat="47.21082" lon="-1.55968">
        <ele>3.7</ele>
        <time>2016-01-09T12:15:09Z</time>
      </trkpt>
      <trkpt lat="47.21067" lon="-1.55985">
        <ele>3.6</ele>
        <time>2016-01-09T12:15:13Z</time>
      </trkpt>
      <trkpt lat="47.21058" lon="-1.56012">
        <ele>3.1</ele>
        <time>2016-01-09T12:15:23Z</time>
      </trkpt>
      <trkpt lat="47.21045" lon="-1.56035">
        <ele>2.9</ele>
        <time>2016-01-09T12:15:27Z</time>
      </trkpt>
      <trkpt lat="47.21035" lon="-1.5606">
        <ele>2.8</ele>
        <time>2016-01-09T12:15:31Z</time>
      </trkpt>
      <trkpt lat="47.21024" lon="-1.56089">
        <ele>2.8</ele>
        <time>2016-01-09T12:15:36Z</time>
      </trkpt>
      <trkpt lat="47.21014" lon="-1.56114">
        <ele>2.7</ele>
        <time>2016-01-09T12:15:41Z</time>
      </trkpt>
      <trkpt lat="47.21005" lon="-1.56139">
        <ele>3.5</ele>
        <time>2016-01-09T12:15:50Z</time>
      </trkpt>
      <trkpt lat="47.20997" lon="-1.56166">
        <ele>3.6</ele>
        <time>2016-01-09T12:15:56Z</time>
      </trkpt>
      <trkpt lat="47.20978" lon="-1.56168">
        <ele>3.1</ele>
        <time>2016-01-09T12:16:02Z</time>
      </trkpt>
      <trkpt lat="47.20956" lon="-1.56164">
        <ele>2.9</ele>
        <time>2016-01-09T12:16:06Z</time>
      </trkpt>
      <trkpt lat="47.20938" lon="-1.56159">
        <ele>2.6</ele>
        <time>2016-01-09T12:16:09Z</time>
      </trkpt>
      <trkpt lat="47.2092" lon="-1.56153">
        <ele>2.4</ele>
        <time>2016-01-09T12:16:12Z</time>
      </trkpt>
      <trkpt lat="47.20901" lon="-1.56149">
        <ele>2.4</ele>
        <time>2016-01-09T12:16:15Z</time>
      </trkpt>
      <trkpt lat="47.20883" lon="-1.56143">
        <ele>2.4</ele>
        <time>2016-01-09T12:16:18Z</time>
      </trkpt>
      <trkpt lat="47.20862" lon="-1.56139">
        <ele>1.8</ele>
        <time>2016-01-09T12:16:21Z</time>
      </trkpt>
      <trkpt lat="47.20841" lon="-1.56141">
        <ele>0.7</ele>
        <time>2016-01-09T12:16:25Z</time>
      </trkpt>
      <trkpt lat="47.20837" lon="-1.56174">
        <ele>-0.7</ele>
        <time>2016-01-09T12:16:29Z</time>
      </trkpt>
      <trkpt lat="47.20838" lon="-1.56208">
        <ele>-1.8</ele>
        <time>2016-01-09T12:16:33Z</time>
      </trkpt>
      <trkpt lat="47.20837" lon="-1.5624">
        <ele>-1.9</ele>
        <time>2016-01-09T12:16:37Z</time>
      </trkpt>
      <trkpt lat="47.20837" lon="-1.56275">
        <ele>-2.6</ele>
        <time>2016-01-09T12:16:41Z</time>
      </trkpt>
      <trkpt lat="47.20835" lon="-1.56307">
        <ele>-3.5</ele>
        <time>2016-01-09T12:16:45Z</time>
      </trkpt>
      <trkpt lat="47.20827" lon="-1.56334">
        <ele>-3.9</ele>
        <time>2016-01-09T12:16:49Z</time>
      </trkpt>
      <trkpt lat="47.20819" lon="-1.56366">
        <ele>-4.5</ele>
        <time>2016-01-09T12:16:53Z</time>
      </trkpt>
      <trkpt lat="47.20812" lon="-1.56397">
        <ele>-5</ele>
        <time>2016-01-09T12:16:57Z</time>
      </trkpt>
      <trkpt lat="47.20807" lon="-1.56428">
        <ele>-5.4</ele>
        <time>2016-01-09T12:17:01Z</time>
      </trkpt>
      <trkpt lat="47.20799" lon="-1.56459">
        <ele>-5.5</ele>
        <time>2016-01-09T12:17:05Z</time>
      </trkpt>
      <trkpt lat="47.20789" lon="-1.56487">
        <ele>-5.7</ele>
        <time>2016-01-09T12:17:09Z</time>
      </trkpt>
      <trkpt lat="47.20774" lon="-1.56508">
        <ele>-5.7</ele>
        <time>2016-01-09T12:17:14Z</time>
      </trkpt>
      <trkpt lat="47.20758" lon="-1.56498">
        <ele>-6</ele>
        <time>2016-01-09T12:17:19Z</time>
      </trkpt>
      <trkpt lat="47.20738" lon="-1.565">
        <ele>-5.6</ele>
        <time>2016-01-09T12:17:29Z</time>
      </trkpt>
      <trkpt lat="47.20731" lon="-1.56525">
        <ele>-5.7</ele>
        <time>2016-01-09T12:17:35Z</time>
      </trkpt>
      <trkpt lat="47.2072" lon="-1.56551">
        <ele>-5.2</ele>
        <time>2016-01-09T12:17:38Z</time>
      </trkpt>
      <trkpt lat="47.20702" lon="-1.56571">
        <ele>-4.9</ele>
        <time>2016-01-09T12:17:42Z</time>
      </trkpt>
      <trkpt lat="47.20684" lon="-1.56583">
        <ele>-5.2</ele>
        <time>2016-01-09T12:17:46Z</time>
      </trkpt>
      <trkpt lat="47.20666" lon="-1.56601">
        <ele>-4.2</ele>
        <time>2016-01-09T12:17:50Z</time>
      </trkpt>
      <trkpt lat="47.20647" lon="-1.56616">
        <ele>-4</ele>
        <time>2016-01-09T12:17:54Z</time>
      </trkpt>
      <trkpt lat="47.20628" lon="-1.56624">
        <ele>-3.6</ele>
        <time>2016-01-09T12:17:58Z</time>
      </trkpt>
      <trkpt lat="47.2061" lon="-1.56632">
        <ele>-3.7</ele>
        <time>2016-01-09T12:18:02Z</time>
      </trkpt>
      <trkpt lat="47.2059" lon="-1.56641">
        <ele>-5.4</ele>
        <time>2016-01-09T12:18:07Z</time>
      </trkpt>
      <trkpt lat="47.20578" lon="-1.56663">
        <ele>-6.8</ele>
        <time>2016-01-09T12:18:11Z</time>
      </trkpt>
      <trkpt lat="47.20566" lon="-1.5669">
        <ele>-7.7</ele>
        <time>2016-01-09T12:18:15Z</time>
      </trkpt>
      <trkpt lat="47.20559" lon="-1.56715">
        <ele>-6.5</ele>
        <time>2016-01-09T12:18:18Z</time>
      </trkpt>
      <trkpt lat="47.20555" lon="-1.56745">
        <ele>-5.9</ele>
        <time>2016-01-09T12:18:22Z</time>
      </trkpt>
      <trkpt lat="47.20551" lon="-1.56773">
        <ele>-5.3</ele>
        <time>2016-01-09T12:18:26Z</time>
      </trkpt>
      <trkpt lat="47.20547" lon="-1.56801">
        <ele>-5</ele>
        <time>2016-01-09T12:18:30Z</time>
      </trkpt>
      <trkpt lat="47.20541" lon="-1.5683">
        <ele>-5.5</ele>
        <time>2016-01-09T12:18:34Z</time>
      </trkpt>
      <trkpt lat="47.20538" lon="-1.56856">
        <ele>-6.6</ele>
        <time>2016-01-09T12:18:38Z</time>
      </trkpt>
      <trkpt lat="47.20529" lon="-1.5688">
        <ele>-5.8</ele>
        <time>2016-01-09T12:18:43Z</time>
      </trkpt>
      <trkpt lat="47.20511" lon="-1.56897">
        <ele>-5.3</ele>
        <time>2016-01-09T12:18:48Z</time>
      </trkpt>
      <trkpt lat="47.20498" lon="-1.56916">
        <ele>-4.6</ele>
        <time>2016-01-09T12:18:52Z</time>
      </trkpt>
      <trkpt lat="47.20488" lon="-1.56943">
        <ele>-4.7</ele>
        <time>2016-01-09T12:18:56Z</time>
      </trkpt>
      <trkpt lat="47.20481" lon="-1.56971">
        <ele>-4.1</ele>
        <time>2016-01-09T12:19:00Z</time>
      </trkpt>
      <trkpt lat="47.20473" lon="-1.57001">
        <ele>-3.5</ele>
        <time>2016-01-09T12:19:04Z</time>
      </trkpt>
      <trkpt lat="47.20468" lon="-1.5703">
        <ele>-3.3</ele>
        <time>2016-01-09T12:19:08Z</time>
      </trkpt>
      <trkpt lat="47.20462" lon="-1.57057">
        <ele>-2.2</ele>
        <time>2016-01-09T12:19:12Z</time>
      </trkpt>
      <trkpt lat="47.20455" lon="-1.57084">
        <ele>-1.3</ele>
        <time>2016-01-09T12:19:16Z</time>
      </trkpt>
      <trkpt lat="47.20443" lon="-1.57106">
        <ele>-1.7</ele>
        <time>2016-01-09T12:19:20Z</time>
      </trkpt>
      <trkpt lat="47.20427" lon="-1.57126">
        <ele>-3.1</ele>
        <time>2016-01-09T12:19:24Z</time>
      </trkpt>
      <trkpt lat="47.20411" lon="-1.5714">
        <ele>-4.1</ele>
        <time>2016-01-09T12:19:28Z</time>
      </trkpt>
      <trkpt lat="47.20394" lon="-1.57152">
        <ele>-4.3</ele>
        <time>2016-01-09T12:19:32Z</time>
      </trkpt>
      <trkpt lat="47.20376" lon="-1.57161">
        <ele>-3</ele>
        <time>2016-01-09T12:19:37Z</time>
      </trkpt>
      <trkpt lat="47.20357" lon="-1.57173">
        <ele>-4.2</ele>
        <time>2016-01-09T12:19:42Z</time>
      </trkpt>
      <trkpt lat="47.20339" lon="-1.57186">
        <ele>-4.5</ele>
        <time>2016-01-09T12:19:46Z</time>
      </trkpt>
      <trkpt lat="47.20321" lon="-1.57197">
        <ele>-5.3</ele>
        <time>2016-01-09T12:19:50Z</time>
      </trkpt>
      <trkpt lat="47.20304" lon="-1.57209">
        <ele>-5.8</ele>
        <time>2016-01-09T12:19:54Z</time>
      </trkpt>
      <trkpt lat="47.20284" lon="-1.57223">
        <ele>-5.1</ele>
        <time>2016-01-09T12:19:59Z</time>
      </trkpt>
      <trkpt lat="47.20265" lon="-1.57235">
        <ele>-5.1</ele>
        <time>2016-01-09T12:20:04Z</time>
      </trkpt>
      <trkpt lat="47.20247" lon="-1.57249">
        <ele>-3.8</ele>
        <time>2016-01-09T12:20:09Z</time>
      </trkpt>
      <trkpt lat="47.20231" lon="-1.57261">
        <ele>-1.9</ele>
        <time>2016-01-09T12:20:13Z</time>
      </trkpt>
      <trkpt lat="47.20215" lon="-1.57274">
        <ele>-2.8</ele>
        <time>2016-01-09T12:20:17Z</time>
      </trkpt>
      <trkpt lat="47.20194" lon="-1.57286">
        <ele>-2.5</ele>
        <time>2016-01-09T12:20:22Z</time>
      </trkpt>
      <trkpt lat="47.20176" lon="-1.57298">
        <ele>-3.8</ele>
        <time>2016-01-09T12:20:27Z</time>
      </trkpt>
      <trkpt lat="47.20156" lon="-1.57311">
        <ele>-1.8</ele>
        <time>2016-01-09T12:20:32Z</time>
      </trkpt>
      <trkpt lat="47.20137" lon="-1.57328">
        <ele>-1</ele>
        <time>2016-01-09T12:20:37Z</time>
      </trkpt>
      <trkpt lat="47.2012" lon="-1.57342">
        <ele>-1.4</ele>
        <time>2016-01-09T12:20:41Z</time>
      </trkpt>
      <trkpt lat="47.20103" lon="-1.57355">
        <ele>-1.9</ele>
        <time>2016-01-09T12:20:45Z</time>
      </trkpt>
      <trkpt lat="47.20082" lon="-1.57368">
        <ele>-1.9</ele>
        <time>2016-01-09T12:20:50Z</time>
      </trkpt>
      <trkpt lat="47.20062" lon="-1.57382">
        <ele>-1.2</ele>
        <time>2016-01-09T12:20:55Z</time>
      </trkpt>
      <trkpt lat="47.20046" lon="-1.57394">
        <ele>-1.1</ele>
        <time>2016-01-09T12:20:59Z</time>
      </trkpt>
      <trkpt lat="47.20029" lon="-1.57404">
        <ele>-1</ele>
        <time>2016-01-09T12:21:03Z</time>
      </trkpt>
      <trkpt lat="47.20008" lon="-1.57415">
        <ele>-0.5</ele>
        <time>2016-01-09T12:21:08Z</time>
      </trkpt>
      <trkpt lat="47.1999" lon="-1.57411">
        <ele>-0.8</ele>
        <time>2016-01-09T12:21:13Z</time>
      </trkpt>
      <trkpt lat="47.19976" lon="-1.57391">
        <ele>-0.8</ele>
        <time>2016-01-09T12:21:18Z</time>
      </trkpt>
      <trkpt lat="47.19962" lon="-1.57368">
        <ele>-0.3</ele>
        <time>2016-01-09T12:21:23Z</time>
      </trkpt>
      <trkpt lat="47.1995" lon="-1.57344">
        <ele>0.6</ele>
        <time>2016-01-09T12:21:28Z</time>
      </trkpt>
      <trkpt lat="47.1994" lon="-1.57316">
        <ele>1.3</ele>
        <time>2016-01-09T12:21:34Z</time>
      </trkpt>
      <trkpt lat="47.19939" lon="-1.57288">
        <ele>0.9</ele>
        <time>2016-01-09T12:21:38Z</time>
      </trkpt>
      <trkpt lat="47.19938" lon="-1.57255">
        <ele>0.2</ele>
        <time>2016-01-09T12:21:42Z</time>
      </trkpt>
      <trkpt lat="47.19935" lon="-1.57222">
        <ele>-0.6</ele>
        <time>2016-01-09T12:21:46Z</time>
      </trkpt>
      <trkpt lat="47.19936" lon="-1.57188">
        <ele>-1.8</ele>
        <time>2016-01-09T12:21:50Z</time>
      </trkpt>
      <trkpt lat="47.19937" lon="-1.57161">
        <ele>-2.3</ele>
        <time>2016-01-09T12:21:53Z</time>
      </trkpt>
      <trkpt lat="47.19939" lon="-1.57126">
        <ele>-2.3</ele>
        <time>2016-01-09T12:21:57Z</time>
      </trkpt>
      <trkpt lat="47.19935" lon="-1.57091">
        <ele>-2.7</ele>
        <time>2016-01-09T12:22:01Z</time>
      </trkpt>
      <trkpt lat="47.19933" lon="-1.57056">
        <ele>-2.8</ele>
        <time>2016-01-09T12:22:05Z</time>
      </trkpt>
      <trkpt lat="47.19932" lon="-1.57029">
        <ele>-2.4</ele>
        <time>2016-01-09T12:22:08Z</time>
      </trkpt>
      <trkpt lat="47.19931" lon="-1.56995">
        <ele>-2.7</ele>
        <time>2016-01-09T12:22:12Z</time>
      </trkpt>
      <trkpt lat="47.1993" lon="-1.56961">
        <ele>-2.9</ele>
        <time>2016-01-09T12:22:16Z</time>
      </trkpt>
      <trkpt lat="47.19928" lon="-1.56927">
        <ele>-3</ele>
        <time>2016-01-09T12:22:20Z</time>
      </trkpt>
      <trkpt lat="47.19928" lon="-1.56891">
        <ele>-3</ele>
        <time>2016-01-09T12:22:24Z</time>
      </trkpt>
      <trkpt lat="47.19928" lon="-1.56863">
        <ele>-3.2</ele>
        <time>2016-01-09T12:22:27Z</time>
      </trkpt>
      <trkpt lat="47.19928" lon="-1.56828">
        <ele>-3.5</ele>
        <time>2016-01-09T12:22:31Z</time>
      </trkpt>
      <trkpt lat="47.19929" lon="-1.56802">
        <ele>-3.8</ele>
        <time>2016-01-09T12:22:34Z</time>
      </trkpt>
      <trkpt lat="47.19929" lon="-1.56775">
        <ele>-4</ele>
        <time>2016-01-09T12:22:37Z</time>
      </trkpt>
      <trkpt lat="47.19926" lon="-1.5674">
        <ele>-4.2</ele>
        <time>2016-01-09T12:22:41Z</time>
      </trkpt>
      <trkpt lat="47.19927" lon="-1.56706">
        <ele>-5.3</ele>
        <time>2016-01-09T12:22:45Z</time>
      </trkpt>
      <trkpt lat="47.19927" lon="-1.56672">
        <ele>-6.7</ele>
        <time>2016-01-09T12:22:49Z</time>
      </trkpt>
      <trkpt lat="47.19929" lon="-1.56646">
        <ele>-6.9</ele>
        <time>2016-01-09T12:22:52Z</time>
      </trkpt>
      <trkpt lat="47.19931" lon="-1.56612">
        <ele>-7.5</ele>
        <time>2016-01-09T12:22:56Z</time>
      </trkpt>
      <trkpt lat="47.19936" lon="-1.56577">
        <ele>-8</ele>
        <time>2016-01-09T12:23:00Z</time>
      </trkpt>
      <trkpt lat="47.19939" lon="-1.56549">
        <ele>-5.4</ele>
        <time>2016-01-09T12:23:03Z</time>
      </trkpt>
      <trkpt lat="47.19944" lon="-1.56516">
        <ele>-3.7</ele>
        <time>2016-01-09T12:23:07Z</time>
      </trkpt>
      <trkpt lat="47.19951" lon="-1.56484">
        <ele>-3.3</ele>
        <time>2016-01-09T12:23:11Z</time>
      </trkpt>
      <trkpt lat="47.1996" lon="-1.56451">
        <ele>-3.8</ele>
        <time>2016-01-09T12:23:15Z</time>
      </trkpt>
      <trkpt lat="47.19967" lon="-1.56426">
        <ele>-4</ele>
        <time>2016-01-09T12:23:18Z</time>
      </trkpt>
      <trkpt lat="47.19975" lon="-1.56393">
        <ele>-2.9</ele>
        <time>2016-01-09T12:23:22Z</time>
      </trkpt>
      <trkpt lat="47.19978" lon="-1.56359">
        <ele>-2.5</ele>
        <time>2016-01-09T12:23:26Z</time>
      </trkpt>
      <trkpt lat="47.1998" lon="-1.56326">
        <ele>-2.4</ele>
        <time>2016-01-09T12:23:30Z</time>
      </trkpt>
      <trkpt lat="47.1998" lon="-1.56294">
        <ele>-2</ele>
        <time>2016-01-09T12:23:34Z</time>
      </trkpt>
      <trkpt lat="47.19982" lon="-1.56263">
        <ele>-2.3</ele>
        <time>2016-01-09T12:23:38Z</time>
      </trkpt>
      <trkpt lat="47.19986" lon="-1.56231">
        <ele>-0.9</ele>
        <time>2016-01-09T12:23:42Z</time>
      </trkpt>
      <trkpt lat="47.19985" lon="-1.56198">
        <ele>-0.6</ele>
        <time>2016-01-09T12:23:46Z</time>
      </trkpt>
      <trkpt lat="47.19975" lon="-1.56173">
        <ele>-0.7</ele>
        <time>2016-01-09T12:23:50Z</time>
      </trkpt>
      <trkpt lat="47.19957" lon="-1.56171">
        <ele>-0.5</ele>
        <time>2016-01-09T12:23:54Z</time>
      </trkpt>
      <trkpt lat="47.19939" lon="-1.56173">
        <ele>-0.1</ele>
        <time>2016-01-09T12:23:58Z</time>
      </trkpt>
      <trkpt lat="47.19916" lon="-1.56177">
        <ele>1.2</ele>
        <time>2016-01-09T12:24:03Z</time>
      </trkpt>
      <trkpt lat="47.19894" lon="-1.56182">
        <ele>3.5</ele>
        <time>2016-01-09T12:24:08Z</time>
      </trkpt>
      <trkpt lat="47.19872" lon="-1.56185">
        <ele>5</ele>
        <time>2016-01-09T12:24:13Z</time>
      </trkpt>
      <trkpt lat="47.1985" lon="-1.56184">
        <ele>9</ele>
        <time>2016-01-09T12:24:17Z</time>
      </trkpt>
      <trkpt lat="47.19829" lon="-1.56188">
        <ele>11.6</ele>
        <time>2016-01-09T12:24:22Z</time>
      </trkpt>
      <trkpt lat="47.19809" lon="-1.56194">
        <ele>11.5</ele>
        <time>2016-01-09T12:24:27Z</time>
      </trkpt>
      <trkpt lat="47.19787" lon="-1.56199">
        <ele>12.5</ele>
        <time>2016-01-09T12:24:32Z</time>
      </trkpt>
      <trkpt lat="47.19768" lon="-1.56203">
        <ele>12.6</ele>
        <time>2016-01-09T12:24:36Z</time>
      </trkpt>
      <trkpt lat="47.19746" lon="-1.56207">
        <ele>11.6</ele>
        <time>2016-01-09T12:24:40Z</time>
      </trkpt>
      <trkpt lat="47.19723" lon="-1.5621">
        <ele>9.2</ele>
        <time>2016-01-09T12:24:44Z</time>
      </trkpt>
      <trkpt lat="47.19705" lon="-1.56215">
        <ele>8.2</ele>
        <time>2016-01-09T12:24:47Z</time>
      </trkpt>
      <trkpt lat="47.19685" lon="-1.56218">
        <ele>7.6</ele>
        <time>2016-01-09T12:24:50Z</time>
      </trkpt>
      <trkpt lat="47.19666" lon="-1.56225">
        <ele>5.5</ele>
        <time>2016-01-09T12:24:53Z</time>
      </trkpt>
      <trkpt lat="47.19647" lon="-1.56237">
        <ele>3.5</ele>
        <time>2016-01-09T12:24:56Z</time>
      </trkpt>
      <trkpt lat="47.19636" lon="-1.56262">
        <ele>1.9</ele>
        <time>2016-01-09T12:24:59Z</time>
      </trkpt>
      <trkpt lat="47.19633" lon="-1.5629">
        <ele>1.1</ele>
        <time>2016-01-09T12:25:02Z</time>
      </trkpt>
      <trkpt lat="47.19632" lon="-1.56317">
        <ele>5</ele>
        <time>2016-01-09T12:25:05Z</time>
      </trkpt>
      <trkpt lat="47.1963" lon="-1.56344">
        <ele>-1</ele>
        <time>2016-01-09T12:25:08Z</time>
      </trkpt>
      <trkpt lat="47.19631" lon="-1.56371">
        <ele>-2</ele>
        <time>2016-01-09T12:25:11Z</time>
      </trkpt>
      <trkpt lat="47.19631" lon="-1.56399">
        <ele>-3.1</ele>
        <time>2016-01-09T12:25:14Z</time>
      </trkpt>
      <trkpt lat="47.19633" lon="-1.56427">
        <ele>-3.3</ele>
        <time>2016-01-09T12:25:17Z</time>
      </trkpt>
      <trkpt lat="47.19634" lon="-1.56454">
        <ele>-4.2</ele>
        <time>2016-01-09T12:25:20Z</time>
      </trkpt>
      <trkpt lat="47.19636" lon="-1.56489">
        <ele>-4.6</ele>
        <time>2016-01-09T12:25:24Z</time>
      </trkpt>
      <trkpt lat="47.19636" lon="-1.56516">
        <ele>-5.3</ele>
        <time>2016-01-09T12:25:27Z</time>
      </trkpt>
      <trkpt lat="47.19635" lon="-1.56551">
        <ele>-7.6</ele>
        <time>2016-01-09T12:25:31Z</time>
      </trkpt>
      <trkpt lat="47.19633" lon="-1.56586">
        <ele>-9.4</ele>
        <time>2016-01-09T12:25:35Z</time>
      </trkpt>
      <trkpt lat="47.19631" lon="-1.56617">
        <ele>-10.2</ele>
        <time>2016-01-09T12:25:39Z</time>
      </trkpt>
      <trkpt lat="47.19631" lon="-1.56647">
        <ele>-10.8</ele>
        <time>2016-01-09T12:25:43Z</time>
      </trkpt>
      <trkpt lat="47.19632" lon="-1.56678">
        <ele>-11.3</ele>
        <time>2016-01-09T12:25:47Z</time>
      </trkpt>
      <trkpt lat="47.19633" lon="-1.56713">
        <ele>-11.7</ele>
        <time>2016-01-09T12:25:51Z</time>
      </trkpt>
      <trkpt lat="47.19631" lon="-1.56745">
        <ele>-11.5</ele>
        <time>2016-01-09T12:25:55Z</time>
      </trkpt>
      <trkpt lat="47.19627" lon="-1.56777">
        <ele>-12.2</ele>
        <time>2016-01-09T12:25:59Z</time>
      </trkpt>
      <trkpt lat="47.19623" lon="-1.56809">
        <ele>-12.8</ele>
        <time>2016-01-09T12:26:03Z</time>
      </trkpt>
      <trkpt lat="47.19621" lon="-1.5684">
        <ele>-13.1</ele>
        <time>2016-01-09T12:26:07Z</time>
      </trkpt>
      <trkpt lat="47.19619" lon="-1.56867">
        <ele>-13.3</ele>
        <time>2016-01-09T12:26:10Z</time>
      </trkpt>
      <trkpt lat="47.19617" lon="-1.56894">
        <ele>-12.9</ele>
        <time>2016-01-09T12:26:13Z</time>
      </trkpt>
      <trkpt lat="47.19615" lon="-1.56921">
        <ele>-12.9</ele>
        <time>2016-01-09T12:26:16Z</time>
      </trkpt>
      <trkpt lat="47.19613" lon="-1.56955">
        <ele>-12.7</ele>
        <time>2016-01-09T12:26:20Z</time>
      </trkpt>
      <trkpt lat="47.19611" lon="-1.56982">
        <ele>-12.9</ele>
        <time>2016-01-09T12:26:23Z</time>
      </trkpt>
      <trkpt lat="47.19609" lon="-1.5701">
        <ele>-13.1</ele>
        <time>2016-01-09T12:26:26Z</time>
      </trkpt>
      <trkpt lat="47.19607" lon="-1.57038">
        <ele>-13.1</ele>
        <time>2016-01-09T12:26:29Z</time>
      </trkpt>
      <trkpt lat="47.19605" lon="-1.57066">
        <ele>-13</ele>
        <time>2016-01-09T12:26:32Z</time>
      </trkpt>
      <trkpt lat="47.19603" lon="-1.571">
        <ele>-12.8</ele>
        <time>2016-01-09T12:26:36Z</time>
      </trkpt>
      <trkpt lat="47.19601" lon="-1.57133">
        <ele>-13.7</ele>
        <time>2016-01-09T12:26:40Z</time>
      </trkpt>
      <trkpt lat="47.19598" lon="-1.57167">
        <ele>-13.8</ele>
        <time>2016-01-09T12:26:44Z</time>
      </trkpt>
      <trkpt lat="47.19596" lon="-1.57194">
        <ele>-14</ele>
        <time>2016-01-09T12:26:47Z</time>
      </trkpt>
      <trkpt lat="47.19598" lon="-1.57226">
        <ele>-13.9</ele>
        <time>2016-01-09T12:26:51Z</time>
      </trkpt>
      <trkpt lat="47.19594" lon="-1.5726">
        <ele>-14</ele>
        <time>2016-01-09T12:26:55Z</time>
      </trkpt>
      <trkpt lat="47.19593" lon="-1.57293">
        <ele>-14.5</ele>
        <time>2016-01-09T12:26:59Z</time>
      </trkpt>
      <trkpt lat="47.19589" lon="-1.57324">
        <ele>-14.3</ele>
        <time>2016-01-09T12:27:03Z</time>
      </trkpt>
      <trkpt lat="47.19582" lon="-1.57352">
        <ele>-12.8</ele>
        <time>2016-01-09T12:27:07Z</time>
      </trkpt>
      <trkpt lat="47.19574" lon="-1.57382">
        <ele>-10.2</ele>
        <time>2016-01-09T12:27:11Z</time>
      </trkpt>
      <trkpt lat="47.19567" lon="-1.57413">
        <ele>-8.9</ele>
        <time>2016-01-09T12:27:15Z</time>
      </trkpt>
      <trkpt lat="47.19559" lon="-1.57445">
        <ele>-7.7</ele>
        <time>2016-01-09T12:27:19Z</time>
      </trkpt>
      <trkpt lat="47.19553" lon="-1.57479">
        <ele>-6.5</ele>
        <time>2016-01-09T12:27:23Z</time>
      </trkpt>
      <trkpt lat="47.19548" lon="-1.57504">
        <ele>-5.9</ele>
        <time>2016-01-09T12:27:26Z</time>
      </trkpt>
      <trkpt lat="47.19543" lon="-1.57534">
        <ele>-6</ele>
        <time>2016-01-09T12:27:30Z</time>
      </trkpt>
      <trkpt lat="47.19538" lon="-1.57565">
        <ele>-6.4</ele>
        <time>2016-01-09T12:27:34Z</time>
      </trkpt>
      <trkpt lat="47.19532" lon="-1.57596">
        <ele>-6.2</ele>
        <time>2016-01-09T12:27:38Z</time>
      </trkpt>
      <trkpt lat="47.19526" lon="-1.57626">
        <ele>-6.4</ele>
        <time>2016-01-09T12:27:42Z</time>
      </trkpt>
      <trkpt lat="47.19521" lon="-1.57652">
        <ele>-5</ele>
        <time>2016-01-09T12:27:45Z</time>
      </trkpt>
      <trkpt lat="47.19514" lon="-1.57685">
        <ele>-3.3</ele>
        <time>2016-01-09T12:27:49Z</time>
      </trkpt>
      <trkpt lat="47.19508" lon="-1.57715">
        <ele>-2.1</ele>
        <time>2016-01-09T12:27:53Z</time>
      </trkpt>
      <trkpt lat="47.19502" lon="-1.57744">
        <ele>-1.6</ele>
        <time>2016-01-09T12:27:57Z</time>
      </trkpt>
      <trkpt lat="47.19495" lon="-1.57776">
        <ele>-2</ele>
        <time>2016-01-09T12:28:01Z</time>
      </trkpt>
      <trkpt lat="47.19489" lon="-1.57807">
        <ele>-2.5</ele>
        <time>2016-01-09T12:28:05Z</time>
      </trkpt>
      <trkpt lat="47.19485" lon="-1.57839">
        <ele>-3.8</ele>
        <time>2016-01-09T12:28:09Z</time>
      </trkpt>
      <trkpt lat="47.19483" lon="-1.57871">
        <ele>-3.5</ele>
        <time>2016-01-09T12:28:13Z</time>
      </trkpt>
      <trkpt lat="47.19477" lon="-1.57903">
        <ele>-3.9</ele>
        <time>2016-01-09T12:28:17Z</time>
      </trkpt>
      <trkpt lat="47.19473" lon="-1.5793">
        <ele>-3.9</ele>
        <time>2016-01-09T12:28:20Z</time>
      </trkpt>
      <trkpt lat="47.19468" lon="-1.57963">
        <ele>-4.4</ele>
        <time>2016-01-09T12:28:24Z</time>
      </trkpt>
      <trkpt lat="47.19466" lon="-1.57996">
        <ele>-3.8</ele>
        <time>2016-01-09T12:28:28Z</time>
      </trkpt>
      <trkpt lat="47.19463" lon="-1.5803">
        <ele>-4.1</ele>
        <time>2016-01-09T12:28:32Z</time>
      </trkpt>
      <trkpt lat="47.1946" lon="-1.58061">
        <ele>-4.3</ele>
        <time>2016-01-09T12:28:36Z</time>
      </trkpt>
      <trkpt lat="47.19454" lon="-1.5809">
        <ele>-4.9</ele>
        <time>2016-01-09T12:28:41Z</time>
      </trkpt>
      <trkpt lat="47.1944" lon="-1.5811">
        <ele>-5.2</ele>
        <time>2016-01-09T12:28:45Z</time>
      </trkpt>
      <trkpt lat="47.19423" lon="-1.58126">
        <ele>-5.2</ele>
        <time>2016-01-09T12:28:49Z</time>
      </trkpt>
      <trkpt lat="47.1941" lon="-1.58148">
        <ele>-4.1</ele>
        <time>2016-01-09T12:28:53Z</time>
      </trkpt>
      <trkpt lat="47.19397" lon="-1.58171">
        <ele>-3.7</ele>
        <time>2016-01-09T12:28:57Z</time>
      </trkpt>
      <trkpt lat="47.19385" lon="-1.58195">
        <ele>-3.5</ele>
        <time>2016-01-09T12:29:01Z</time>
      </trkpt>
      <trkpt lat="47.19375" lon="-1.58222">
        <ele>-3.4</ele>
        <time>2016-01-09T12:29:05Z</time>
      </trkpt>
      <trkpt lat="47.19367" lon="-1.58248">
        <ele>-3.3</ele>
        <time>2016-01-09T12:29:09Z</time>
      </trkpt>
      <trkpt lat="47.19354" lon="-1.58272">
        <ele>-3.2</ele>
        <time>2016-01-09T12:29:13Z</time>
      </trkpt>
      <trkpt lat="47.19338" lon="-1.5829">
        <ele>-2.8</ele>
        <time>2016-01-09T12:29:17Z</time>
      </trkpt>
      <trkpt lat="47.19321" lon="-1.58305">
        <ele>-2.3</ele>
        <time>2016-01-09T12:29:21Z</time>
      </trkpt>
      <trkpt lat="47.19306" lon="-1.58321">
        <ele>-2.1</ele>
        <time>2016-01-09T12:29:25Z</time>
      </trkpt>
      <trkpt lat="47.1929" lon="-1.58337">
        <ele>-2.2</ele>
        <time>2016-01-09T12:29:29Z</time>
      </trkpt>
      <trkpt lat="47.19274" lon="-1.58356">
        <ele>-2</ele>
        <time>2016-01-09T12:29:33Z</time>
      </trkpt>
      <trkpt lat="47.19258" lon="-1.58371">
        <ele>-2.2</ele>
        <time>2016-01-09T12:29:37Z</time>
      </trkpt>
      <trkpt lat="47.19239" lon="-1.58386">
        <ele>-2.6</ele>
        <time>2016-01-09T12:29:41Z</time>
      </trkpt>
      <trkpt lat="47.1922" lon="-1.58403">
        <ele>-2.4</ele>
        <time>2016-01-09T12:29:45Z</time>
      </trkpt>
      <trkpt lat="47.19201" lon="-1.58417">
        <ele>-2.7</ele>
        <time>2016-01-09T12:29:49Z</time>
      </trkpt>
      <trkpt lat="47.19184" lon="-1.58434">
        <ele>-3.7</ele>
        <time>2016-01-09T12:29:53Z</time>
      </trkpt>
      <trkpt lat="47.19166" lon="-1.58446">
        <ele>-4</ele>
        <time>2016-01-09T12:29:57Z</time>
      </trkpt>
      <trkpt lat="47.19149" lon="-1.58459">
        <ele>-3.7</ele>
        <time>2016-01-09T12:30:01Z</time>
      </trkpt>
      <trkpt lat="47.19137" lon="-1.58481">
        <ele>-3.4</ele>
        <time>2016-01-09T12:30:05Z</time>
      </trkpt>
      <trkpt lat="47.19121" lon="-1.58498">
        <ele>-2.4</ele>
        <time>2016-01-09T12:30:09Z</time>
      </trkpt>
      <trkpt lat="47.19103" lon="-1.58512">
        <ele>-1.4</ele>
        <time>2016-01-09T12:30:13Z</time>
      </trkpt>
      <trkpt lat="47.19086" lon="-1.58527">
        <ele>-0.8</ele>
        <time>2016-01-09T12:30:17Z</time>
      </trkpt>
      <trkpt lat="47.19071" lon="-1.58541">
        <ele>0.4</ele>
        <time>2016-01-09T12:30:21Z</time>
      </trkpt>
      <trkpt lat="47.19056" lon="-1.58559">
        <ele>1.9</ele>
        <time>2016-01-09T12:30:25Z</time>
      </trkpt>
      <trkpt lat="47.19039" lon="-1.58579">
        <ele>1.8</ele>
        <time>2016-01-09T12:30:30Z</time>
      </trkpt>
      <trkpt lat="47.19024" lon="-1.58594">
        <ele>1.2</ele>
        <time>2016-01-09T12:30:34Z</time>
      </trkpt>
      <trkpt lat="47.19005" lon="-1.58611">
        <ele>0.2</ele>
        <time>2016-01-09T12:30:39Z</time>
      </trkpt>
      <trkpt lat="47.1899" lon="-1.58629">
        <ele>6</ele>
        <time>2016-01-09T12:30:44Z</time>
      </trkpt>
      <trkpt lat="47.18974" lon="-1.58648">
        <ele>1.9</ele>
        <time>2016-01-09T12:30:49Z</time>
      </trkpt>
      <trkpt lat="47.18958" lon="-1.58666">
        <ele>1.5</ele>
        <time>2016-01-09T12:30:54Z</time>
      </trkpt>
      <trkpt lat="47.18942" lon="-1.58681">
        <ele>1.1</ele>
        <time>2016-01-09T12:30:58Z</time>
      </trkpt>
      <trkpt lat="47.18923" lon="-1.58697">
        <ele>0.7</ele>
        <time>2016-01-09T12:31:03Z</time>
      </trkpt>
      <trkpt lat="47.18906" lon="-1.58711">
        <ele>0.4</ele>
        <time>2016-01-09T12:31:08Z</time>
      </trkpt>
      <trkpt lat="47.18887" lon="-1.58722">
        <ele>6</ele>
        <time>2016-01-09T12:31:13Z</time>
      </trkpt>
      <trkpt lat="47.1887" lon="-1.58732">
        <ele>-0.6</ele>
        <time>2016-01-09T12:31:18Z</time>
      </trkpt>
      <trkpt lat="47.18851" lon="-1.5874">
        <ele>1.4</ele>
        <time>2016-01-09T12:31:23Z</time>
      </trkpt>
      <trkpt lat="47.18836" lon="-1.58757">
        <ele>3.8</ele>
        <time>2016-01-09T12:31:28Z</time>
      </trkpt>
      <trkpt lat="47.18827" lon="-1.58784">
        <ele>4.8</ele>
        <time>2016-01-09T12:31:33Z</time>
      </trkpt>
      <trkpt lat="47.18811" lon="-1.58805">
        <ele>4.6</ele>
        <time>2016-01-09T12:31:38Z</time>
      </trkpt>
      <trkpt lat="47.18794" lon="-1.5882">
        <ele>3.9</ele>
        <time>2016-01-09T12:31:43Z</time>
      </trkpt>
      <trkpt lat="47.18787" lon="-1.5885">
        <ele>3.4</ele>
        <time>2016-01-09T12:31:48Z</time>
      </trkpt>
      <trkpt lat="47.18783" lon="-1.58876">
        <ele>3.2</ele>
        <time>2016-01-09T12:31:52Z</time>
      </trkpt>
      <trkpt lat="47.18778" lon="-1.58902">
        <ele>3.3</ele>
        <time>2016-01-09T12:31:56Z</time>
      </trkpt>
      <trkpt lat="47.18774" lon="-1.58929">
        <ele>3.3</ele>
        <time>2016-01-09T12:32:00Z</time>
      </trkpt>
      <trkpt lat="47.18771" lon="-1.58955">
        <ele>2.7</ele>
        <time>2016-01-09T12:32:04Z</time>
      </trkpt>
      <trkpt lat="47.18769" lon="-1.58983">
        <ele>1</ele>
        <time>2016-01-09T12:32:08Z</time>
      </trkpt>
      <trkpt lat="47.18766" lon="-1.59011">
        <ele>-0.2</ele>
        <time>2016-01-09T12:32:12Z</time>
      </trkpt>
      <trkpt lat="47.18763" lon="-1.59038">
        <ele>-0.1</ele>
        <time>2016-01-09T12:32:16Z</time>
      </trkpt>
      <trkpt lat="47.1876" lon="-1.59066">
        <ele>-0.2</ele>
        <time>2016-01-09T12:32:20Z</time>
      </trkpt>
      <trkpt lat="47.18758" lon="-1.59095">
        <ele>-0.9</ele>
        <time>2016-01-09T12:32:24Z</time>
      </trkpt>
      <trkpt lat="47.18755" lon="-1.59122">
        <ele>-1.8</ele>
        <time>2016-01-09T12:32:28Z</time>
      </trkpt>
      <trkpt lat="47.1875" lon="-1.59154">
        <ele>-0.6</ele>
        <time>2016-01-09T12:32:33Z</time>
      </trkpt>
      <trkpt lat="47.18746" lon="-1.59185">
        <ele>-0.2</ele>
        <time>2016-01-09T12:32:38Z</time>
      </trkpt>
      <trkpt lat="47.18743" lon="-1.59216">
        <ele>0.5</ele>
        <time>2016-01-09T12:32:43Z</time>
      </trkpt>
      <trkpt lat="47.1874" lon="-1.59243">
        <ele>0.8</ele>
        <time>2016-01-09T12:32:47Z</time>
      </trkpt>
      <trkpt lat="47.18737" lon="-1.59269">
        <ele>1.3</ele>
        <time>2016-01-09T12:32:51Z</time>
      </trkpt>
      <trkpt lat="47.18735" lon="-1.59296">
        <ele>1.4</ele>
        <time>2016-01-09T12:32:55Z</time>
      </trkpt>
      <trkpt lat="47.18731" lon="-1.59326">
        <ele>1</ele>
        <time>2016-01-09T12:32:59Z</time>
      </trkpt>
      <trkpt lat="47.18727" lon="-1.59354">
        <ele>1</ele>
        <time>2016-01-09T12:33:03Z</time>
      </trkpt>
      <trkpt lat="47.18724" lon="-1.59382">
        <ele>1.6</ele>
        <time>2016-01-09T12:33:07Z</time>
      </trkpt>
      <trkpt lat="47.18721" lon="-1.5941">
        <ele>1.8</ele>
        <time>2016-01-09T12:33:11Z</time>
      </trkpt>
      <trkpt lat="47.18717" lon="-1.59437">
        <ele>2.1</ele>
        <time>2016-01-09T12:33:15Z</time>
      </trkpt>
      <trkpt lat="47.18714" lon="-1.59465">
        <ele>0.9</ele>
        <time>2016-01-09T12:33:19Z</time>
      </trkpt>
      <trkpt lat="47.18712" lon="-1.59493">
        <ele>3.3</ele>
        <time>2016-01-09T12:33:23Z</time>
      </trkpt>
      <trkpt lat="47.18709" lon="-1.59521">
        <ele>3.6</ele>
        <time>2016-01-09T12:33:27Z</time>
      </trkpt>
      <trkpt lat="47.18706" lon="-1.59549">
        <ele>3.2</ele>
        <time>2016-01-09T12:33:31Z</time>
      </trkpt>
      <trkpt lat="47.18704" lon="-1.59575">
        <ele>4.1</ele>
        <time>2016-01-09T12:33:35Z</time>
      </trkpt>
      <trkpt lat="47.187" lon="-1.59603">
        <ele>3.7</ele>
        <time>2016-01-09T12:33:39Z</time>
      </trkpt>
      <trkpt lat="47.18697" lon="-1.59631">
        <ele>3.2</ele>
        <time>2016-01-09T12:33:43Z</time>
      </trkpt>
      <trkpt lat="47.18692" lon="-1.5966">
        <ele>3.1</ele>
        <time>2016-01-09T12:33:47Z</time>
      </trkpt>
      <trkpt lat="47.18689" lon="-1.59688">
        <ele>2.8</ele>
        <time>2016-01-09T12:33:51Z</time>
      </trkpt>
      <trkpt lat="47.18687" lon="-1.59716">
        <ele>2.2</ele>
        <time>2016-01-09T12:33:55Z</time>
      </trkpt>
      <trkpt lat="47.18686" lon="-1.59745">
        <ele>2.1</ele>
        <time>2016-01-09T12:33:59Z</time>
      </trkpt>
      <trkpt lat="47.18689" lon="-1.59771">
        <ele>2.5</ele>
        <time>2016-01-09T12:34:03Z</time>
      </trkpt>
      <trkpt lat="47.18693" lon="-1.59799">
        <ele>2.7</ele>
        <time>2016-01-09T12:34:07Z</time>
      </trkpt>
      <trkpt lat="47.18683" lon="-1.59823">
        <ele>2.2</ele>
        <time>2016-01-09T12:34:11Z</time>
      </trkpt>
      <trkpt lat="47.18666" lon="-1.59843">
        <ele>1.7</ele>
        <time>2016-01-09T12:34:15Z</time>
      </trkpt>
      <trkpt lat="47.18645" lon="-1.59843">
        <ele>0.1</ele>
        <time>2016-01-09T12:34:19Z</time>
      </trkpt>
      <trkpt lat="47.18624" lon="-1.59832">
        <ele>-1.4</ele>
        <time>2016-01-09T12:34:23Z</time>
      </trkpt>
      <trkpt lat="47.18626" lon="-1.5986">
        <ele>-0.5</ele>
        <time>2016-01-09T12:34:28Z</time>
      </trkpt>
      <trkpt lat="47.18624" lon="-1.59887">
        <ele>-0.2</ele>
        <time>2016-01-09T12:34:32Z</time>
      </trkpt>
      <trkpt lat="47.18617" lon="-1.59916">
        <ele>0.7</ele>
        <time>2016-01-09T12:34:36Z</time>
      </trkpt>
      <trkpt lat="47.1861" lon="-1.59942">
        <ele>1.2</ele>
        <time>2016-01-09T12:34:40Z</time>
      </trkpt>
      <trkpt lat="47.18603" lon="-1.59967">
        <ele>2</ele>
        <time>2016-01-09T12:34:44Z</time>
      </trkpt>
      <trkpt lat="47.18595" lon="-1.59991">
        <ele>2.7</ele>
        <time>2016-01-09T12:34:48Z</time>
      </trkpt>
      <trkpt lat="47.18587" lon="-1.60017">
        <ele>2.5</ele>
        <time>2016-01-09T12:34:52Z</time>
      </trkpt>
      <trkpt lat="47.18577" lon="-1.60042">
        <ele>3.1</ele>
        <time>2016-01-09T12:34:56Z</time>
      </trkpt>
      <trkpt lat="47.18567" lon="-1.60067">
        <ele>3.9</ele>
        <time>2016-01-09T12:35:00Z</time>
      </trkpt>
      <trkpt lat="47.18556" lon="-1.60092">
        <ele>4.5</ele>
        <time>2016-01-09T12:35:04Z</time>
      </trkpt>
      <trkpt lat="47.18545" lon="-1.60116">
        <ele>4.5</ele>
        <time>2016-01-09T12:35:08Z</time>
      </trkpt>
      <trkpt lat="47.18535" lon="-1.6014">
        <ele>4.9</ele>
        <time>2016-01-09T12:35:12Z</time>
      </trkpt>
      <trkpt lat="47.18525" lon="-1.60162">
        <ele>4.9</ele>
        <time>2016-01-09T12:35:16Z</time>
      </trkpt>
      <trkpt lat="47.18513" lon="-1.60184">
        <ele>3.6</ele>
        <time>2016-01-09T12:35:20Z</time>
      </trkpt>
      <trkpt lat="47.18501" lon="-1.60207">
        <ele>2.8</ele>
        <time>2016-01-09T12:35:24Z</time>
      </trkpt>
      <trkpt lat="47.18489" lon="-1.6023">
        <ele>1.4</ele>
        <time>2016-01-09T12:35:28Z</time>
      </trkpt>
      <trkpt lat="47.18477" lon="-1.60255">
        <ele>1.4</ele>
        <time>2016-01-09T12:35:33Z</time>
      </trkpt>
      <trkpt lat="47.18464" lon="-1.60278">
        <ele>0.5</ele>
        <time>2016-01-09T12:35:37Z</time>
      </trkpt>
      <trkpt lat="47.18452" lon="-1.60299">
        <ele>-1</ele>
        <time>2016-01-09T12:35:41Z</time>
      </trkpt>
      <trkpt lat="47.1844" lon="-1.6032">
        <ele>-2.2</ele>
        <time>2016-01-09T12:35:45Z</time>
      </trkpt>
      <trkpt lat="47.18426" lon="-1.60341">
        <ele>-1.8</ele>
        <time>2016-01-09T12:35:49Z</time>
      </trkpt>
      <trkpt lat="47.18413" lon="-1.6036">
        <ele>-1.8</ele>
        <time>2016-01-09T12:35:53Z</time>
      </trkpt>
      <trkpt lat="47.18399" lon="-1.60379">
        <ele>-1.8</ele>
        <time>2016-01-09T12:35:57Z</time>
      </trkpt>
      <trkpt lat="47.18384" lon="-1.60397">
        <ele>-2.3</ele>
        <time>2016-01-09T12:36:01Z</time>
      </trkpt>
      <trkpt lat="47.18369" lon="-1.60417">
        <ele>-3.4</ele>
        <time>2016-01-09T12:36:05Z</time>
      </trkpt>
      <trkpt lat="47.18353" lon="-1.60436">
        <ele>-3.3</ele>
        <time>2016-01-09T12:36:09Z</time>
      </trkpt>
      <trkpt lat="47.18339" lon="-1.60456">
        <ele>0.2</ele>
        <time>2016-01-09T12:36:13Z</time>
      </trkpt>
      <trkpt lat="47.18321" lon="-1.60475">
        <ele>1</ele>
        <time>2016-01-09T12:36:18Z</time>
      </trkpt>
      <trkpt lat="47.18306" lon="-1.60492">
        <ele>1.5</ele>
        <time>2016-01-09T12:36:22Z</time>
      </trkpt>
      <trkpt lat="47.1829" lon="-1.60508">
        <ele>1.3</ele>
        <time>2016-01-09T12:36:26Z</time>
      </trkpt>
      <trkpt lat="47.18275" lon="-1.60524">
        <ele>0.9</ele>
        <time>2016-01-09T12:36:30Z</time>
      </trkpt>
      <trkpt lat="47.18259" lon="-1.60538">
        <ele>1</ele>
        <time>2016-01-09T12:36:34Z</time>
      </trkpt>
      <trkpt lat="47.18242" lon="-1.60549">
        <ele>1.4</ele>
        <time>2016-01-09T12:36:38Z</time>
      </trkpt>
      <trkpt lat="47.18224" lon="-1.6056">
        <ele>2.1</ele>
        <time>2016-01-09T12:36:42Z</time>
      </trkpt>
      <trkpt lat="47.18203" lon="-1.6057">
        <ele>3.1</ele>
        <time>2016-01-09T12:36:47Z</time>
      </trkpt>
      <trkpt lat="47.18186" lon="-1.60591">
        <ele>4.4</ele>
        <time>2016-01-09T12:36:52Z</time>
      </trkpt>
      <trkpt lat="47.18167" lon="-1.60597">
        <ele>4.5</ele>
        <time>2016-01-09T12:36:56Z</time>
      </trkpt>
      <trkpt lat="47.18149" lon="-1.60598">
        <ele>4.1</ele>
        <time>2016-01-09T12:37:00Z</time>
      </trkpt>
      <trkpt lat="47.18131" lon="-1.60595">
        <ele>3.9</ele>
        <time>2016-01-09T12:37:04Z</time>
      </trkpt>
      <trkpt lat="47.18111" lon="-1.60589">
        <ele>2.6</ele>
        <time>2016-01-09T12:37:08Z</time>
      </trkpt>
      <trkpt lat="47.1809" lon="-1.60582">
        <ele>0.5</ele>
        <time>2016-01-09T12:37:13Z</time>
      </trkpt>
      <trkpt lat="47.18072" lon="-1.60572">
        <ele>-0.1</ele>
        <time>2016-01-09T12:37:17Z</time>
      </trkpt>
      <trkpt lat="47.18054" lon="-1.60561">
        <ele>-0.7</ele>
        <time>2016-01-09T12:37:21Z</time>
      </trkpt>
      <trkpt lat="47.18036" lon="-1.60552">
        <ele>-1.7</ele>
        <time>2016-01-09T12:37:25Z</time>
      </trkpt>
      <trkpt lat="47.18016" lon="-1.60551">
        <ele>-1.5</ele>
        <time>2016-01-09T12:37:29Z</time>
      </trkpt>
      <trkpt lat="47.17996" lon="-1.60556">
        <ele>-1.3</ele>
        <time>2016-01-09T12:37:33Z</time>
      </trkpt>
      <trkpt lat="47.17976" lon="-1.60564">
        <ele>-1.9</ele>
        <time>2016-01-09T12:37:37Z</time>
      </trkpt>
      <trkpt lat="47.17954" lon="-1.60573">
        <ele>-2</ele>
        <time>2016-01-09T12:37:41Z</time>
      </trkpt>
      <trkpt lat="47.17936" lon="-1.60581">
        <ele>-2.4</ele>
        <time>2016-01-09T12:37:45Z</time>
      </trkpt>
      <trkpt lat="47.17915" lon="-1.60585">
        <ele>-2.7</ele>
        <time>2016-01-09T12:37:50Z</time>
      </trkpt>
      <trkpt lat="47.17905" lon="-1.60612">
        <ele>-2.5</ele>
        <time>2016-01-09T12:37:54Z</time>
      </trkpt>
      <trkpt lat="47.17897" lon="-1.60638">
        <ele>-2.2</ele>
        <time>2016-01-09T12:37:57Z</time>
      </trkpt>
      <trkpt lat="47.17889" lon="-1.60662">
        <ele>-1.9</ele>
        <time>2016-01-09T12:38:00Z</time>
      </trkpt>
      <trkpt lat="47.1788" lon="-1.60695">
        <ele>-1.7</ele>
        <time>2016-01-09T12:38:04Z</time>
      </trkpt>
      <trkpt lat="47.17874" lon="-1.60723">
        <ele>-1.6</ele>
        <time>2016-01-09T12:38:08Z</time>
      </trkpt>
      <trkpt lat="47.17868" lon="-1.60749">
        <ele>-0.4</ele>
        <time>2016-01-09T12:38:17Z</time>
      </trkpt>
      <trkpt lat="47.17863" lon="-1.60774">
        <ele>-2.6</ele>
        <time>2016-01-09T12:46:14Z</time>
      </trkpt>
      <trkpt lat="47.17854" lon="-1.60798">
        <ele>-2.4</ele>
        <time>2016-01-09T12:46:18Z</time>
      </trkpt>
      <trkpt lat="47.17845" lon="-1.6083">
        <ele>-2.1</ele>
        <time>2016-01-09T12:46:22Z</time>
      </trkpt>
      <trkpt lat="47.17832" lon="-1.60859">
        <ele>-1.6</ele>
        <time>2016-01-09T12:46:26Z</time>
      </trkpt>
      <trkpt lat="47.17818" lon="-1.60882">
        <ele>-1.1</ele>
        <time>2016-01-09T12:46:30Z</time>
      </trkpt>
      <trkpt lat="47.17801" lon="-1.60898">
        <ele>-1.2</ele>
        <time>2016-01-09T12:46:34Z</time>
      </trkpt>
      <trkpt lat="47.17782" lon="-1.6091">
        <ele>-1.7</ele>
        <time>2016-01-09T12:46:38Z</time>
      </trkpt>
      <trkpt lat="47.17763" lon="-1.60923">
        <ele>-2.1</ele>
        <time>2016-01-09T12:46:42Z</time>
      </trkpt>
      <trkpt lat="47.17744" lon="-1.60935">
        <ele>-1.4</ele>
        <time>2016-01-09T12:46:46Z</time>
      </trkpt>
      <trkpt lat="47.17725" lon="-1.60946">
        <ele>-0.6</ele>
        <time>2016-01-09T12:46:50Z</time>
      </trkpt>
      <trkpt lat="47.17707" lon="-1.60958">
        <ele>0.4</ele>
        <time>2016-01-09T12:46:54Z</time>
      </trkpt>
      <trkpt lat="47.17687" lon="-1.60963">
        <ele>0.9</ele>
        <time>2016-01-09T12:46:58Z</time>
      </trkpt>
      <trkpt lat="47.17667" lon="-1.60966">
        <ele>4.8</ele>
        <time>2016-01-09T12:47:02Z</time>
      </trkpt>
      <trkpt lat="47.17647" lon="-1.6098">
        <ele>-0.7</ele>
        <time>2016-01-09T12:47:06Z</time>
      </trkpt>
      <trkpt lat="47.17628" lon="-1.60998">
        <ele>-2</ele>
        <time>2016-01-09T12:47:10Z</time>
      </trkpt>
      <trkpt lat="47.17612" lon="-1.61015">
        <ele>-2.4</ele>
        <time>2016-01-09T12:47:14Z</time>
      </trkpt>
      <trkpt lat="47.17592" lon="-1.61034">
        <ele>-2.7</ele>
        <time>2016-01-09T12:47:19Z</time>
      </trkpt>
      <trkpt lat="47.17573" lon="-1.6105">
        <ele>-2.3</ele>
        <time>2016-01-09T12:47:23Z</time>
      </trkpt>
      <trkpt lat="47.17555" lon="-1.61065">
        <ele>-2.3</ele>
        <time>2016-01-09T12:47:27Z</time>
      </trkpt>
      <trkpt lat="47.17538" lon="-1.61079">
        <ele>-1.7</ele>
        <time>2016-01-09T12:47:31Z</time>
      </trkpt>
      <trkpt lat="47.17522" lon="-1.61094">
        <ele>-1.5</ele>
        <time>2016-01-09T12:47:35Z</time>
      </trkpt>
      <trkpt lat="47.17501" lon="-1.61103">
        <ele>0.3</ele>
        <time>2016-01-09T12:47:40Z</time>
      </trkpt>
      <trkpt lat="47.17483" lon="-1.61102">
        <ele>1.4</ele>
        <time>2016-01-09T12:47:44Z</time>
      </trkpt>
      <trkpt lat="47.17463" lon="-1.61088">
        <ele>2.4</ele>
        <time>2016-01-09T12:47:49Z</time>
      </trkpt>
      <trkpt lat="47.17448" lon="-1.61065">
        <ele>3.4</ele>
        <time>2016-01-09T12:47:54Z</time>
      </trkpt>
      <trkpt lat="47.17437" lon="-1.6104">
        <ele>3.4</ele>
        <time>2016-01-09T12:47:59Z</time>
      </trkpt>
      <trkpt lat="47.17436" lon="-1.61066">
        <ele>5</ele>
        <time>2016-01-09T12:48:13Z</time>
      </trkpt>
      <trkpt lat="47.17448" lon="-1.61091">
        <ele>6</ele>
        <time>2016-01-09T12:48:18Z</time>
      </trkpt>
      <trkpt lat="47.17457" lon="-1.61114">
        <ele>6.6</ele>
        <time>2016-01-09T12:48:22Z</time>
      </trkpt>
      <trkpt lat="47.17468" lon="-1.61142">
        <ele>8</ele>
        <time>2016-01-09T12:48:27Z</time>
      </trkpt>
      <trkpt lat="47.17477" lon="-1.61165">
        <ele>8.8</ele>
        <time>2016-01-09T12:48:31Z</time>
      </trkpt>
      <trkpt lat="47.17487" lon="-1.61189">
        <ele>9.4</ele>
        <time>2016-01-09T12:48:35Z</time>
      </trkpt>
      <trkpt lat="47.17497" lon="-1.61214">
        <ele>10.2</ele>
        <time>2016-01-09T12:48:39Z</time>
      </trkpt>
      <trkpt lat="47.17509" lon="-1.61239">
        <ele>10.9</ele>
        <time>2016-01-09T12:48:43Z</time>
      </trkpt>
      <trkpt lat="47.17522" lon="-1.61263">
        <ele>11.2</ele>
        <time>2016-01-09T12:48:47Z</time>
      </trkpt>
      <trkpt lat="47.17536" lon="-1.61284">
        <ele>11.1</ele>
        <time>2016-01-09T12:48:51Z</time>
      </trkpt>
      <trkpt lat="47.17555" lon="-1.61295">
        <ele>11</ele>
        <time>2016-01-09T12:48:55Z</time>
      </trkpt>
      <trkpt lat="47.17565" lon="-1.61325">
        <ele>11.1</ele>
        <time>2016-01-09T12:48:59Z</time>
      </trkpt>
      <trkpt lat="47.17556" lon="-1.6135">
        <ele>11.2</ele>
        <time>2016-01-09T12:49:02Z</time>
      </trkpt>
      <trkpt lat="47.17539" lon="-1.61368">
        <ele>11.4</ele>
        <time>2016-01-09T12:49:05Z</time>
      </trkpt>
      <trkpt lat="47.1753" lon="-1.61392">
        <ele>11.9</ele>
        <time>2016-01-09T12:49:08Z</time>
      </trkpt>
      <trkpt lat="47.17522" lon="-1.61423">
        <ele>12.9</ele>
        <time>2016-01-09T12:49:12Z</time>
      </trkpt>
      <trkpt lat="47.17514" lon="-1.6145">
        <ele>13.9</ele>
        <time>2016-01-09T12:49:16Z</time>
      </trkpt>
      <trkpt lat="47.17496" lon="-1.61463">
        <ele>14.1</ele>
        <time>2016-01-09T12:49:20Z</time>
      </trkpt>
      <trkpt lat="47.17478" lon="-1.6147">
        <ele>14.7</ele>
        <time>2016-01-09T12:49:24Z</time>
      </trkpt>
      <trkpt lat="47.17457" lon="-1.61478">
        <ele>15</ele>
        <time>2016-01-09T12:49:29Z</time>
      </trkpt>
      <trkpt lat="47.17439" lon="-1.61487">
        <ele>15.2</ele>
        <time>2016-01-09T12:49:34Z</time>
      </trkpt>
      <trkpt lat="47.17422" lon="-1.61498">
        <ele>15.5</ele>
        <time>2016-01-09T12:49:39Z</time>
      </trkpt>
      <trkpt lat="47.17404" lon="-1.61508">
        <ele>16.5</ele>
        <time>2016-01-09T12:49:44Z</time>
      </trkpt>
      <trkpt lat="47.17387" lon="-1.61524">
        <ele>17.8</ele>
        <time>2016-01-09T12:49:50Z</time>
      </trkpt>
      <trkpt lat="47.17373" lon="-1.61544">
        <ele>19.4</ele>
        <time>2016-01-09T12:49:55Z</time>
      </trkpt>
      <trkpt lat="47.17356" lon="-1.61563">
        <ele>20.9</ele>
        <time>2016-01-09T12:50:01Z</time>
      </trkpt>
      <trkpt lat="47.17343" lon="-1.61583">
        <ele>22.6</ele>
        <time>2016-01-09T12:50:06Z</time>
      </trkpt>
      <trkpt lat="47.17328" lon="-1.61601">
        <ele>25.1</ele>
        <time>2016-01-09T12:50:11Z</time>
      </trkpt>
      <trkpt lat="47.17313" lon="-1.61618">
        <ele>27</ele>
        <time>2016-01-09T12:50:16Z</time>
      </trkpt>
      <trkpt lat="47.173" lon="-1.61639">
        <ele>29.2</ele>
        <time>2016-01-09T12:50:21Z</time>
      </trkpt>
      <trkpt lat="47.17287" lon="-1.61665">
        <ele>31.1</ele>
        <time>2016-01-09T12:50:26Z</time>
      </trkpt>
      <trkpt lat="47.17275" lon="-1.61688">
        <ele>33.6</ele>
        <time>2016-01-09T12:50:31Z</time>
      </trkpt>
      <trkpt lat="47.17263" lon="-1.61711">
        <ele>36.6</ele>
        <time>2016-01-09T12:50:36Z</time>
      </trkpt>
      <trkpt lat="47.17252" lon="-1.61737">
        <ele>39.4</ele>
        <time>2016-01-09T12:50:41Z</time>
      </trkpt>
      <trkpt lat="47.17248" lon="-1.61764">
        <ele>40.7</ele>
        <time>2016-01-09T12:50:45Z</time>
      </trkpt>
      <trkpt lat="47.17231" lon="-1.61786">
        <ele>40.2</ele>
        <time>2016-01-09T12:50:50Z</time>
      </trkpt>
      <trkpt lat="47.17215" lon="-1.61805">
        <ele>38.3</ele>
        <time>2016-01-09T12:50:55Z</time>
      </trkpt>
      <trkpt lat="47.17197" lon="-1.61819">
        <ele>36.4</ele>
        <time>2016-01-09T12:51:00Z</time>
      </trkpt>
      <trkpt lat="47.1718" lon="-1.61835">
        <ele>35.8</ele>
        <time>2016-01-09T12:51:05Z</time>
      </trkpt>
      <trkpt lat="47.17166" lon="-1.61851">
        <ele>35.3</ele>
        <time>2016-01-09T12:51:10Z</time>
      </trkpt>
      <trkpt lat="47.17148" lon="-1.61866">
        <ele>34.9</ele>
        <time>2016-01-09T12:51:15Z</time>
      </trkpt>
      <trkpt lat="47.17133" lon="-1.6188">
        <ele>33.9</ele>
        <time>2016-01-09T12:51:20Z</time>
      </trkpt>
      <trkpt lat="47.17117" lon="-1.61899">
        <ele>32.2</ele>
        <time>2016-01-09T12:51:26Z</time>
      </trkpt>
      <trkpt lat="47.17098" lon="-1.61915">
        <ele>29.8</ele>
        <time>2016-01-09T12:51:31Z</time>
      </trkpt>
      <trkpt lat="47.17081" lon="-1.61932">
        <ele>27.3</ele>
        <time>2016-01-09T12:51:36Z</time>
      </trkpt>
      <trkpt lat="47.17065" lon="-1.61948">
        <ele>26.6</ele>
        <time>2016-01-09T12:51:41Z</time>
      </trkpt>
      <trkpt lat="47.1705" lon="-1.61968">
        <ele>26.7</ele>
        <time>2016-01-09T12:51:46Z</time>
      </trkpt>
      <trkpt lat="47.17036" lon="-1.6199">
        <ele>26.3</ele>
        <time>2016-01-09T12:51:51Z</time>
      </trkpt>
      <trkpt lat="47.17021" lon="-1.62011">
        <ele>25.4</ele>
        <time>2016-01-09T12:51:56Z</time>
      </trkpt>
      <trkpt lat="47.17007" lon="-1.62036">
        <ele>25.1</ele>
        <time>2016-01-09T12:52:01Z</time>
      </trkpt>
      <trkpt lat="47.16995" lon="-1.62057">
        <ele>25.6</ele>
        <time>2016-01-09T12:52:05Z</time>
      </trkpt>
      <trkpt lat="47.16982" lon="-1.62079">
        <ele>26</ele>
        <time>2016-01-09T12:52:10Z</time>
      </trkpt>
      <trkpt lat="47.1697" lon="-1.62101">
        <ele>25.6</ele>
        <time>2016-01-09T12:52:15Z</time>
      </trkpt>
      <trkpt lat="47.16958" lon="-1.62124">
        <ele>25.9</ele>
        <time>2016-01-09T12:52:20Z</time>
      </trkpt>
      <trkpt lat="47.16947" lon="-1.62149">
        <ele>26.7</ele>
        <time>2016-01-09T12:52:25Z</time>
      </trkpt>
      <trkpt lat="47.16935" lon="-1.62171">
        <ele>27.5</ele>
        <time>2016-01-09T12:52:30Z</time>
      </trkpt>
      <trkpt lat="47.16922" lon="-1.62195">
        <ele>27.1</ele>
        <time>2016-01-09T12:52:35Z</time>
      </trkpt>
      <trkpt lat="47.16907" lon="-1.62216">
        <ele>24.9</ele>
        <time>2016-01-09T12:52:40Z</time>
      </trkpt>
      <trkpt lat="47.1689" lon="-1.62236">
        <ele>22.7</ele>
        <time>2016-01-09T12:52:45Z</time>
      </trkpt>
      <trkpt lat="47.16875" lon="-1.62254">
        <ele>22.3</ele>
        <time>2016-01-09T12:52:50Z</time>
      </trkpt>
      <trkpt lat="47.16858" lon="-1.62274">
        <ele>21.1</ele>
        <time>2016-01-09T12:52:55Z</time>
      </trkpt>
      <trkpt lat="47.16842" lon="-1.62293">
        <ele>19.5</ele>
        <time>2016-01-09T12:53:00Z</time>
      </trkpt>
      <trkpt lat="47.16825" lon="-1.62311">
        <ele>18.9</ele>
        <time>2016-01-09T12:53:05Z</time>
      </trkpt>
      <trkpt lat="47.16805" lon="-1.62324">
        <ele>17.9</ele>
        <time>2016-01-09T12:53:10Z</time>
      </trkpt>
      <trkpt lat="47.16784" lon="-1.62337">
        <ele>17.1</ele>
        <time>2016-01-09T12:53:15Z</time>
      </trkpt>
      <trkpt lat="47.16763" lon="-1.62349">
        <ele>16.4</ele>
        <time>2016-01-09T12:53:20Z</time>
      </trkpt>
      <trkpt lat="47.16748" lon="-1.62364">
        <ele>16.3</ele>
        <time>2016-01-09T12:53:24Z</time>
      </trkpt>
      <trkpt lat="47.16737" lon="-1.62388">
        <ele>16</ele>
        <time>2016-01-09T12:53:28Z</time>
      </trkpt>
      <trkpt lat="47.16733" lon="-1.62416">
        <ele>16.3</ele>
        <time>2016-01-09T12:53:32Z</time>
      </trkpt>
      <trkpt lat="47.16729" lon="-1.62443">
        <ele>16.7</ele>
        <time>2016-01-09T12:53:36Z</time>
      </trkpt>
      <trkpt lat="47.16723" lon="-1.6247">
        <ele>16.9</ele>
        <time>2016-01-09T12:53:40Z</time>
      </trkpt>
      <trkpt lat="47.16717" lon="-1.62496">
        <ele>17.3</ele>
        <time>2016-01-09T12:53:44Z</time>
      </trkpt>
      <trkpt lat="47.16712" lon="-1.62522">
        <ele>17.3</ele>
        <time>2016-01-09T12:53:48Z</time>
      </trkpt>
      <trkpt lat="47.16709" lon="-1.62548">
        <ele>17.7</ele>
        <time>2016-01-09T12:53:52Z</time>
      </trkpt>
      <trkpt lat="47.16707" lon="-1.62581">
        <ele>17.9</ele>
        <time>2016-01-09T12:53:57Z</time>
      </trkpt>
      <trkpt lat="47.16705" lon="-1.6261">
        <ele>18.8</ele>
        <time>2016-01-09T12:54:02Z</time>
      </trkpt>
      <trkpt lat="47.16706" lon="-1.62637">
        <ele>18.5</ele>
        <time>2016-01-09T12:54:06Z</time>
      </trkpt>
      <trkpt lat="47.16712" lon="-1.62668">
        <ele>20.3</ele>
        <time>2016-01-09T12:54:11Z</time>
      </trkpt>
      <trkpt lat="47.16725" lon="-1.62688">
        <ele>21.4</ele>
        <time>2016-01-09T12:54:16Z</time>
      </trkpt>
      <trkpt lat="47.16744" lon="-1.62677">
        <ele>21</ele>
        <time>2016-01-09T12:54:21Z</time>
      </trkpt>
      <trkpt lat="47.16763" lon="-1.62674">
        <ele>20.1</ele>
        <time>2016-01-09T12:54:26Z</time>
      </trkpt>
      <trkpt lat="47.16782" lon="-1.62673">
        <ele>19.1</ele>
        <time>2016-01-09T12:54:32Z</time>
      </trkpt>
    </trkseg>
  </trk>
</gpx>